Date StartTime U_cm/s V_cm/s W_cm/s Ustd_cm/s Vstd_cm/s Wstd_cm/s Uvar_(cm/s)^2 Vvar_(cm/s)^2 Wvar_(cm/s)^2 KE_(m/s)^2 TurbulentKE_(m/s)^2 HorizWindSpeed_cm/s FrictionSpeec_cm/s DragCoef SpeedOfSound_m/s SonicTemperature_C Pressure_mb 
05/08/2014  00:00:00     -143.162       68.643       -0.165      120.078      122.316       57.111    14418.700    14961.286     3261.656        2.892        1.632      158.767       73.205        0.213      338.792       11.682      858.650
05/08/2014  00:01:00     -185.784       58.473      -19.848       92.644       45.680       28.161     8582.841     2086.692      793.068        2.489        0.573      194.769       35.782        0.034      338.897       11.858      858.628
05/08/2014  00:02:00     -115.157       67.998      -16.947       77.492       48.176       30.525     6004.979     2320.909      931.759        1.371        0.463      133.734       37.909        0.080      338.787       11.676      858.652
05/08/2014  00:03:00     -120.771      -44.360        1.740       95.544       46.335       35.539     9128.609     2146.972     1263.032        1.455        0.627      128.660       51.138        0.158      338.798       11.694      858.655
05/08/2014  00:04:00     -125.250        7.574       -8.310       48.011       67.932       36.822     2305.077     4614.783     1355.824        1.204        0.414      125.479       39.530        0.099      338.961       11.968      858.669
05/08/2014  00:05:00     -122.893      -19.619      -16.679       50.606       62.748       27.965     2560.985     3937.326      782.028        1.152        0.364      124.449       15.295        0.015      338.774       11.655      858.694
05/08/2014  00:06:00     -150.376        3.297      -26.617       54.618       53.879       37.641     2983.162     2902.917     1416.830        1.532        0.365      150.412       34.546        0.053      338.819       11.729      858.684
05/08/2014  00:07:00     -111.780       12.888      -14.449       33.010       32.628       21.468     1089.692     1064.562      460.865        0.774        0.131      112.521       16.371        0.021      338.842       11.768      858.676
05/08/2014  00:08:00      -79.994       -5.596       -1.890       46.352       70.209       25.901     2148.519     4929.267      670.870        0.709        0.387       80.190       22.545        0.079      338.853       11.787      858.679
05/08/2014  00:09:00     -109.000       37.215      -12.295       47.632       59.406       25.436     2268.842     3529.128      646.971        0.993        0.322      115.178       18.951        0.027      338.945       11.942      858.697
05/08/2014  00:10:00      -44.937        4.602        6.525       66.548       72.918       35.449     4428.679     5317.046     1256.611        0.654        0.550       45.172       37.533        0.690      338.845       11.773      858.692
05/08/2014  00:11:00     -138.226       63.464      -13.362       69.780       76.437       37.085     4869.224     5842.648     1375.289        1.770        0.604      152.099       41.980        0.076      338.913       11.886      858.713
05/08/2014  00:12:00      -99.792       90.862      -20.226       71.096       89.718       38.488     5054.608     8049.262     1481.294        1.660        0.729      134.960       34.389        0.065      338.833       11.752      858.725
05/08/2014  00:13:00     -111.881      110.220      -22.168       60.060       53.751       36.949     3607.147     2889.152     1365.242        1.651        0.393      157.054       30.077        0.037      338.872       11.817      858.732
05/08/2014  00:14:00     -214.899      110.088      -22.630      114.754       98.063       56.061    13168.583     9616.352     3142.789        4.237        1.296      241.456       53.248        0.049      338.860       11.795      858.746
05/08/2014  00:15:00     -210.484        3.944      -23.469       78.036      122.175       49.604     6089.626    14926.842     2460.542        3.417        1.174      210.521       42.020        0.040      338.827       11.738      858.745
05/08/2014  00:16:00      -74.887      -22.465        5.720       75.019       84.713       43.570     5627.867     7176.267     1898.363        1.042        0.735       78.184       44.576        0.325      338.882       11.835      858.729
05/08/2014  00:17:00     -149.744        5.851      -19.697       57.914       45.355       27.277     3353.989     2057.108      744.022        1.450        0.308      149.858       29.186        0.038      338.871       11.817      858.718
05/08/2014  00:18:00      -97.378        5.924      -10.923       43.945       48.881       23.327     1931.174     2389.377      544.162        0.725        0.243       97.558       12.119        0.015      338.993       12.023      858.726
05/08/2014  00:19:00     -172.311      -38.186       -6.792       71.683       81.444       44.207     5138.466     6633.200     1954.245        2.246        0.686      176.492       32.399        0.034      338.851       11.782      858.746
05/08/2014  00:20:00     -248.072      -49.389      -19.119       67.731       74.877       37.111     4587.489     5606.511     1377.256        3.796        0.579      252.940       22.058        0.008      338.807       11.706      858.782
05/08/2014  00:21:00     -104.865      -20.461       -2.033       56.326       54.081       24.190     3172.583     2924.802      585.155        0.905        0.334      106.842       20.940        0.038      338.838       11.762      858.780
05/08/2014  00:22:00     -137.029       53.727      -15.003       53.246       69.813       39.992     2835.183     4873.802     1599.350        1.560        0.465      147.186       35.915        0.060      338.904       11.872      858.784
05/08/2014  00:23:00     -127.787      123.639      -17.147       76.240      111.284       39.642     5812.607    12384.207     1571.512        2.584        0.988      177.809       40.044        0.051      338.975       11.990      858.795
05/08/2014  00:24:00     -103.110       14.539       -1.106      105.050       41.100       39.772    11035.597     1689.206     1581.783        1.257        0.715      104.130       53.832        0.267      338.932       11.919      858.800
05/08/2014  00:25:00     -199.471       -2.664      -13.971       65.410       89.795       42.281     4278.508     8063.054     1787.673        2.706        0.706      199.489       37.286        0.035      338.904       11.870      858.814
05/08/2014  00:26:00     -143.312      -15.225       -2.378       64.965       67.533       36.889     4220.388     4560.657     1360.799        1.546        0.507      144.118       36.533        0.064      338.909       11.879      858.806
05/08/2014  00:27:00      -98.050      212.431      -34.401       93.652       72.074       45.565     8770.774     5194.666     2076.205        3.598        0.802      233.968       41.234        0.031      338.973       11.985      858.801
05/08/2014  00:28:00      -39.209      125.142      -24.975       49.148      106.664       33.806     2415.480    11377.123     1142.840        1.638        0.747      131.140       45.159        0.119      339.048       12.113      858.767
05/08/2014  00:29:00      -84.877       -5.680      -14.518       32.035       36.963       23.672     1026.213     1366.299      560.378        0.520        0.148       85.067       12.103        0.020      339.069       12.149      858.762
05/08/2014  00:30:00     -157.676       24.627      -13.342       63.322       48.829       30.757     4009.699     2384.284      945.971        1.649        0.367      159.588       33.716        0.045      339.033       12.087      858.764
05/08/2014  00:31:00     -160.798      -61.306      -12.194       57.412       56.172       40.108     3296.162     3155.264     1608.653        1.891        0.403      172.088       28.056        0.027      338.988       12.013      858.767
05/08/2014  00:32:00     -173.798      -49.807      -17.947       60.143       44.554       27.869     3617.176     1985.015      776.669        1.969        0.319      180.794       26.799        0.022      338.932       11.917      858.770
05/08/2014  00:33:00      -87.683      -54.604       -0.056       90.393       49.502       37.796     8170.926     2450.448     1428.548        1.136        0.602      103.295       48.227        0.218      338.884       11.838      858.743
05/08/2014  00:34:00      -45.586       60.120       -7.120       49.962       67.083       35.091     2496.184     4500.104     1231.403        0.698        0.411       75.449       39.994        0.281      339.011       12.052      858.732
05/08/2014  00:35:00     -106.267       17.934        0.613       68.873       44.666       36.125     4743.500     1995.038     1304.998        0.983        0.402      107.770       39.610        0.135      339.072       12.155      858.737
05/08/2014  00:36:00     -293.195      -36.543      -13.652       82.175       86.767       52.922     6752.801     7528.479     2800.738        5.228        0.854      295.464       53.341        0.033      338.903       11.868      858.743
05/08/2014  00:37:00     -155.303      -67.381       -5.297       69.045       64.978       32.875     4767.205     4222.132     1080.783        1.938        0.504      169.290       25.041        0.022      338.849       11.779      858.740
05/08/2014  00:38:00     -125.509      -35.336       -2.115       53.390       43.355       26.863     2850.501     1879.638      721.636        1.123        0.273      130.389       22.259        0.029      338.787       11.676      858.752
05/08/2014  00:39:00     -117.285      -50.882      -13.195       46.547       33.821       23.667     2166.580     1143.850      560.119        1.019        0.194      127.847       23.956        0.035      338.831       11.750      858.764
05/08/2014  00:40:00     -147.631      -37.786       -2.586       65.775       45.331       29.267     4326.407     2054.873      856.571        1.523        0.362      152.390       32.930        0.047      338.810       11.714      858.772
05/08/2014  00:41:00     -287.665      -51.796      -31.211       86.998       60.509       51.199     7568.669     3661.316     2621.325        5.013        0.693      292.290       53.299        0.033      338.842       11.765      858.770
05/08/2014  00:42:00     -194.490      -70.706       -6.145       74.550       54.209       34.505     5557.645     2938.666     1190.561        2.627        0.484      206.944       31.768        0.024      338.791       11.680      858.774
05/08/2014  00:43:00     -193.061      -18.056      -16.542       71.874       67.940       30.110     5165.804     4615.854      906.628        2.428        0.534      193.904       33.569        0.030      338.817       11.725      858.782
05/08/2014  00:44:00     -157.363        5.859      -13.967       52.103       57.966       39.856     2714.769     3360.042     1588.489        1.633        0.383      157.472       35.463        0.051      338.906       11.876      858.768
05/08/2014  00:45:00     -127.999      -63.025       -6.912       49.188       45.791       30.030     2419.487     2096.806      901.818        1.291        0.271      142.674       23.598        0.027      338.815       11.723      858.750
05/08/2014  00:46:00     -159.213      -13.449      -14.613       55.887       52.694       22.875     3123.357     2776.664      523.284        1.608        0.321      159.780        9.236        0.003      338.786       11.674      858.757
05/08/2014  00:47:00     -133.165       39.149      -21.853       31.837       51.288       22.242     1013.626     2630.496      494.709        1.194        0.207      138.800       17.668        0.016      338.880       11.832      858.760
05/08/2014  00:48:00     -151.016      -62.509      -28.957       73.321       43.801       39.768     5375.972     1918.497     1581.516        1.821        0.444      163.442       37.603        0.053      338.761       11.633      858.775
05/08/2014  00:49:00     -227.257      -76.224      -22.443       78.978       75.360       37.130     6237.509     5679.150     1378.629        3.562        0.665      239.699       38.350        0.026      338.723       11.564      858.787
05/08/2014  00:50:00     -266.946       32.056      -16.045       80.924       70.199       41.327     6548.637     4927.937     1707.898        4.286        0.659      268.864       32.278        0.014      338.775       11.654      858.797
05/08/2014  00:51:00     -246.199      -47.009      -12.267       70.170       79.513       44.746     4923.798     6322.306     2002.215        3.811        0.662      250.647       34.642        0.019      338.786       11.671      858.788
05/08/2014  00:52:00     -273.434      -68.843      -33.550       76.738       83.421       39.651     5888.782     6959.023     1572.219        4.752        0.721      281.967       36.937        0.017      338.754       11.618      858.794
05/08/2014  00:53:00     -168.657      -71.704      -21.929       71.736       50.113       32.687     5146.109     2511.326     1068.443        2.139        0.436      183.266       16.440        0.008      338.730       11.580      858.788
05/08/2014  00:54:00     -141.746      -51.482       -5.541       73.921       59.177       31.869     5464.327     3501.866     1015.629        1.638        0.499      150.806       37.353        0.061      338.715       11.555      858.787
05/08/2014  00:55:00     -190.975      -50.475      -15.314       56.490       36.037       27.102     3191.170     1298.696      734.503        2.224        0.261      197.533       22.157        0.013      338.709       11.543      858.779
05/08/2014  00:56:00      -59.802       34.387       -2.389       51.754       36.564       35.483     2678.474     1336.910     1259.035        0.502        0.264       68.984       35.952        0.272      338.776       11.657      858.769
05/08/2014  00:57:00      -37.946      -11.581       -1.250       46.366       29.710       22.484     2149.830      882.664      505.533        0.256        0.177       39.674       22.340        0.317      338.735       11.589      858.762
05/08/2014  00:58:00     -120.355      -16.743       -8.855       49.042       73.804       37.256     2405.154     5446.983     1388.027        1.204        0.462      121.514       34.951        0.083      338.735       11.589      858.762
05/08/2014  00:59:00     -161.331       63.352      -11.365       68.753       66.462       34.245     4727.033     4417.193     1172.689        2.024        0.516      173.323       24.851        0.021      338.745       11.603      858.762
05/08/2014  01:00:00     -123.506       64.809      -15.350       60.751       55.753       33.928     3690.684     3108.352     1151.136        1.382        0.398      139.477       20.529        0.022      338.740       11.597      858.763
05/08/2014  01:01:00     -107.331       28.012      -12.038       80.657       49.419       45.164     6505.587     2442.257     2039.779        1.172        0.549      110.926       44.381        0.160      338.772       11.651      858.756
05/08/2014  01:02:00     -113.749      -36.511        0.901       56.511       50.389       27.847     3193.493     2539.065      775.469        1.039        0.325      119.465       24.743        0.043      338.676       11.488      858.759
05/08/2014  01:03:00     -277.730        8.427      -16.590      119.387       60.563       49.323    14253.287     3667.925     2432.718        4.891        1.018      277.858       56.920        0.042      338.743       11.600      858.744
05/08/2014  01:04:00     -170.777      -14.064      -24.768       84.925       38.087       30.381     7212.271     1450.605      922.987        1.978        0.479      171.355       37.008        0.047      338.779       11.662      858.743
05/08/2014  01:05:00      -98.761       50.664      -14.712       40.578       50.005       27.050     1646.544     2500.460      731.723        0.871        0.244      110.998       26.943        0.059      338.854       11.789      858.743
05/08/2014  01:06:00     -104.706       29.898        5.842       57.664       49.440       36.837     3325.150     2444.333     1356.933        0.951        0.356      108.891       37.616        0.119      338.774       11.655      858.732
05/08/2014  01:07:00     -120.039        0.544      -14.874       92.659       46.876       42.128     8585.746     2197.318     1774.810        1.359        0.628      120.040       53.801        0.201      338.777       11.657      858.735
05/08/2014  01:08:00     -189.927      -18.150       -8.056       80.634       77.706       37.958     6501.871     6038.238     1440.795        2.522        0.699      190.792       33.976        0.032      338.762       11.631      858.728
05/08/2014  01:09:00      -39.573       59.983       -8.979       86.032       73.338       29.744     7401.573     5378.463      884.724        0.945        0.683       71.861       28.746        0.160      338.739       11.595      858.707
05/08/2014  01:10:00       -9.696       89.853      -23.006       19.644       19.024       15.761      385.899      361.926      248.424        0.485        0.050       90.374       11.519        0.016      338.732       11.583      858.687
05/08/2014  01:11:00      -81.609       42.793      -13.355       36.462       24.135       16.310     1329.511      582.509      266.002        0.542        0.109       92.148       11.208        0.015      338.993       12.023      858.709
05/08/2014  01:12:00      -56.845       65.124       -6.834       35.288       30.117       23.155     1245.255      907.006      536.177        0.510        0.134       86.443       23.055        0.071      338.798       11.695      858.709
05/08/2014  01:13:00      -94.764       79.549      -17.883       36.341       36.595       22.442     1320.684     1339.230      503.622        0.940        0.158      123.727       21.863        0.031      338.815       11.724      858.701
05/08/2014  01:14:00        0.864       36.370       14.304       35.210       41.423       24.983     1239.712     1715.848      624.129        0.255        0.179       36.381       17.236        0.224      338.672       11.482      858.657
05/08/2014  01:15:00      -72.898       68.102      -11.617       27.035       53.453       25.122      730.912     2857.178      631.130        0.715        0.211       99.760       25.420        0.065      338.692       11.515      858.635
05/08/2014  01:16:00      -56.685       84.366      -16.621       55.232       36.948       21.514     3050.623     1365.144      462.873        0.774        0.244      101.641       19.002        0.035      338.704       11.536      858.602
05/08/2014  01:17:00      -10.095       88.940      -17.287       22.107       21.408       12.687      488.714      458.289      160.958        0.471        0.055       89.511        9.630        0.012      338.662       11.466      858.566
05/08/2014  01:18:00      -66.458      102.264      -14.585       33.021       45.759       22.650     1090.414     2093.903      513.024        0.939        0.185      121.961       23.965        0.039      338.703       11.535      858.544
05/08/2014  01:19:00      -68.682       66.779       -7.335       28.326       38.556       20.492      802.373     1486.591      419.914        0.597        0.135       95.795       17.346        0.033      338.701       11.531      858.530
05/08/2014  01:20:00     -108.086       43.466      -19.954       39.048       30.434       22.058     1524.785      926.255      486.557        0.845        0.147      116.498       21.262        0.033      338.727       11.575      858.535
05/08/2014  01:21:00      -91.406       61.141      -13.513       40.126       37.522       30.215     1610.096     1407.914      912.968        0.810        0.197      109.969       13.086        0.014      338.612       11.381      858.532
05/08/2014  01:22:00      -73.254       69.038       -8.407       40.854       31.009       25.298     1669.019      961.586      640.008        0.674        0.164      100.660       22.528        0.050      338.597       11.357      858.509
05/08/2014  01:23:00      -48.363       70.990       -9.414       30.502       29.599       18.543      930.388      876.078      343.856        0.481        0.108       85.899       10.832        0.016      338.807       11.708      858.488
05/08/2014  01:24:00     -100.978       56.767      -15.715       42.769       47.436       25.685     1829.145     2250.160      659.720        0.920        0.237      115.841       20.893        0.033      338.753       11.620      858.475
05/08/2014  01:25:00      -62.367       48.429       -7.584       40.046       48.079       23.714     1603.710     2311.560      562.373        0.538        0.224       78.962       19.025        0.058      338.792       11.685      858.467
05/08/2014  01:26:00     -116.773       58.466      -16.020       57.599       54.361       27.656     3317.593     2955.162      764.828        1.217        0.352      130.592       29.789        0.052      338.647       11.440      858.476
05/08/2014  01:27:00      -83.835       70.310      -13.324       26.575       38.798       26.273      706.240     1505.299      690.293        0.753        0.145      109.416       17.843        0.027      338.670       11.481      858.489
05/08/2014  01:28:00      -49.128       12.738       -3.566       39.168       32.852       17.672     1534.099     1079.245      312.287        0.276        0.146       50.752       14.621        0.083      338.675       11.487      858.494
05/08/2014  01:29:00      -80.876       73.192      -17.938       33.968       33.449       21.832     1153.838     1118.803      476.644        0.748        0.137      109.078       19.094        0.031      338.496       11.187      858.511
05/08/2014  01:30:00      -99.317       33.270      -13.852       35.819       38.843       25.614     1283.003     1508.785      656.075        0.730        0.172      104.742       17.628        0.028      338.579       11.327      858.525
05/08/2014  01:31:00     -110.233       61.694      -13.850       34.534       57.585       29.224     1192.587     3315.989      854.031        1.075        0.268      126.322       12.847        0.010      338.436       11.086      858.534
05/08/2014  01:32:00      -93.352       14.481      -12.505       56.308       31.805       25.159     3170.613     1011.527      632.999        0.695        0.241       94.468       27.939        0.087      338.490       11.178      858.537
05/08/2014  01:33:00      -90.945      -10.231        4.259       37.037       46.636       28.745     1371.726     2174.944      826.280        0.638        0.219       91.519       25.411        0.077      338.532       11.247      858.547
05/08/2014  01:34:00      -52.602      -20.374       -6.829       53.529       62.882       28.767     2865.361     3954.152      827.518        0.544        0.382       56.410       27.102        0.231      338.466       11.135      858.541
05/08/2014  01:35:00     -101.690      -14.588      -10.442       39.369       49.624       27.088     1549.949     2462.556      733.765        0.770        0.237      102.731       23.611        0.053      338.406       11.037      858.555
05/08/2014  01:36:00      -89.866       70.210      -22.580       59.659       76.029       28.914     3559.163     5780.387      836.013        1.184        0.509      114.041       38.538        0.114      338.362       10.962      858.556
05/08/2014  01:37:00     -109.437      104.215      -20.676       78.027       37.266       32.962     6088.264     1388.760     1086.521        1.591        0.428      151.120       38.021        0.063      338.280       10.821      858.563
05/08/2014  01:38:00      -64.388       45.647        0.737       34.436       41.422       24.534     1185.817     1715.747      601.915        0.487        0.175       78.927       22.205        0.079      338.323       10.897      858.563
05/08/2014  01:39:00      -27.343       -8.975        8.824       30.862       23.188       18.107      952.491      537.663      327.849        0.136        0.091       28.778        7.793        0.073      338.302       10.861      858.550
05/08/2014  01:40:00      -16.843       31.141      -18.111       27.468       47.267       25.038      754.477     2234.210      626.911        0.260        0.181       35.404       14.591        0.170      338.331       10.909      858.558
05/08/2014  01:41:00       22.464       30.918        2.004       27.632       36.685       33.609      763.547     1345.774     1129.543        0.235        0.162       38.217       20.427        0.286      338.433       11.082      858.555
05/08/2014  01:42:00      -14.767      -14.197        3.863       27.102       24.154       22.837      734.523      583.436      521.550        0.114        0.092       20.485       19.601        0.916      338.411       11.044      858.571
05/08/2014  01:43:00      -19.838      -24.156       16.017       23.859       28.376       17.025      569.262      805.181      289.859        0.145        0.083       31.258        8.883        0.081      338.392       11.011      858.590
05/08/2014  01:44:00      -10.808      -42.415        6.280       56.497       50.029       26.086     3191.956     2502.851      680.460        0.416        0.319       43.770       22.705        0.269      338.361       10.961      858.599
05/08/2014  01:45:00      -43.873      -44.599        3.973       44.522       45.393       19.353     1982.243     2060.553      374.528        0.417        0.221       62.561       21.556        0.119      338.306       10.868      858.595
05/08/2014  01:46:00       -7.388      -16.270       13.554       18.892       31.343       18.499      356.918      982.394      342.203        0.109        0.084       17.868       15.033        0.708      338.330       10.910      858.596
05/08/2014  01:47:00       13.833       -1.528       26.423       21.604       20.066       15.419      466.714      402.637      237.745        0.100        0.055       13.917       15.907        1.306      338.340       10.925      858.595
05/08/2014  01:48:00       12.248       16.135       30.017       28.422       17.723       17.259      807.836      314.108      297.868        0.137        0.071       20.258       17.547        0.750      338.340       10.925      858.598
05/08/2014  01:49:00        1.424       -1.242       31.102       13.156       14.206       12.959      173.067      201.802      167.925        0.076        0.027        1.890        8.908       22.215      338.413       11.047      858.605
05/08/2014  01:50:00        2.071       28.581       40.294       22.664       18.920       15.827      513.656      357.953      250.502        0.178        0.056       28.656       13.660        0.227      338.393       11.015      858.613
05/08/2014  01:51:00       -3.402       20.625       40.004       21.574       15.833       15.244      465.458      250.684      232.377        0.149        0.047       20.904       14.458        0.478      338.441       11.095      858.619
05/08/2014  01:52:00      -18.807       26.242       43.817       11.069       22.800       20.242      122.512      519.863      409.732        0.201        0.053       32.285       15.655        0.235      338.458       11.123      858.621
05/08/2014  01:53:00        6.588       36.354       48.870       21.588       22.712       12.941      466.061      515.835      167.462        0.245        0.057       36.946       11.040        0.089      338.391       11.010      858.615
05/08/2014  01:54:00       35.824       22.403       -1.820       20.817       19.854       18.575      433.350      394.173      345.042        0.148        0.059       42.252        9.677        0.052      338.332       10.912      858.620
05/08/2014  01:55:00      -24.054      -23.705       -3.262       26.810       27.059        9.565      718.785      732.165       91.486        0.135        0.077       33.772        8.996        0.071      338.402       11.028      858.642
05/08/2014  01:56:00      -49.472      -19.738       -4.177       28.597       28.087       16.410      817.807      788.867      269.273        0.236        0.094       53.264       10.799        0.041      338.237       10.753      858.658
05/08/2014  01:57:00      -45.720      -17.466       -8.628       27.649       19.387       12.511      764.494      375.871      156.519        0.188        0.065       48.942       12.794        0.068      338.229       10.738      858.657
05/08/2014  01:58:00      -43.859       29.291        3.402       26.108       21.952       21.420      681.617      481.908      458.798        0.221        0.081       52.741       19.050        0.130      338.482       11.165      858.648
05/08/2014  01:59:00      -90.135       29.040       -2.042       46.783       23.882       21.646     2188.639      570.349      468.560        0.610        0.161       94.698       23.768        0.063      338.606       11.372      858.642
05/08/2014  02:00:00      -71.347       36.362      -10.644       19.058       22.611       17.913      363.215      511.279      320.863        0.386        0.060       80.079       12.380        0.024      338.434       11.084      858.624
05/08/2014  02:01:00      -47.003        7.702       -2.326       20.480       34.253       20.862      419.440     1173.243      435.211        0.215        0.101       47.630       22.168        0.217      338.520       11.226      858.610
05/08/2014  02:02:00      -59.672       23.614        6.485       31.622       20.205       21.537      999.935      408.254      463.830        0.302        0.094       64.174       14.937        0.054      338.717       11.557      858.605
05/08/2014  02:03:00      -45.087       48.255        1.407       19.433       27.668       15.400      377.648      765.504      237.168        0.287        0.069       66.041       13.937        0.045      338.513       11.215      858.593
05/08/2014  02:04:00      -54.198       27.085       -9.209       20.980       34.257       17.090      440.155     1173.576      292.084        0.283        0.095       60.588        5.055        0.007      338.446       11.103      858.591
05/08/2014  02:05:00      -68.225      -17.313       -8.860       27.552       13.384       10.633      759.109      179.124      113.060        0.304        0.053       70.388        5.151        0.005      338.108       10.538      858.598
05/08/2014  02:06:00      -42.950      -28.567       -2.129       17.057       19.616        9.516      290.930      384.788       90.564        0.172        0.038       51.582       11.118        0.046      338.259       10.788      858.592
05/08/2014  02:07:00      -24.078      -43.277        9.569       21.989       24.666       16.528      483.506      608.416      273.180        0.195        0.068       49.524       12.779        0.067      338.398       11.021      858.593
05/08/2014  02:08:00      -28.719      -26.919        4.573       26.758       18.595       16.306      715.978      345.763      265.896        0.145        0.066       39.363       16.588        0.178      338.342       10.928      858.586
05/08/2014  02:09:00      -54.779      -48.215       -8.864       25.350       32.824       21.300      642.619     1077.412      453.694        0.379        0.109       72.976       19.072        0.068      338.411       11.045      858.579
05/08/2014  02:10:00      -94.292      -14.160       -5.756       32.502       26.323       17.880     1056.370      692.892      319.702        0.560        0.103       95.349       17.974        0.036      338.296       10.850      858.578
05/08/2014  02:11:00      -62.089      -22.718       13.616       55.228       30.436       25.052     3050.090      926.371      627.626        0.458        0.230       66.114       27.186        0.169      338.301       10.860      858.583
05/08/2014  02:12:00      -90.021      -31.587       -9.542       33.609       23.430       18.437     1129.571      548.959      339.930        0.561        0.101       95.401       16.823        0.031      338.225       10.733      858.585
05/08/2014  02:13:00        1.756      -44.178       -0.941       21.913       21.646       16.243      480.161      468.549      263.846        0.158        0.061       44.213       12.233        0.077      338.179       10.655      858.589
05/08/2014  02:14:00        6.182      -12.618       -5.037       21.159       13.911       10.929      447.707      193.504      119.453        0.049        0.038       14.051        9.657        0.472      338.193       10.677      858.584
05/08/2014  02:15:00      -21.156       -5.749        5.346       19.156       10.268       10.940      366.941      105.437      119.686        0.055        0.030       21.923        6.599        0.091      338.193       10.677      858.577
05/08/2014  02:16:00      -52.292       -3.894       -0.981       15.706       27.090        8.733      246.669      733.884       76.264        0.190        0.053       52.437        7.439        0.020      338.186       10.668      858.579
05/08/2014  02:17:00      -37.913      -41.863        2.274       24.636       20.263       16.791      606.929      410.575      281.925        0.225        0.065       56.479       10.669        0.036      338.268       10.803      858.582
05/08/2014  02:18:00      -37.676       -7.787       -4.705       23.244       14.070       12.418      540.278      197.977      154.207        0.120        0.045       38.473       11.514        0.090      338.213       10.712      858.574
05/08/2014  02:19:00      -18.950       10.425        0.706       13.642       14.304        9.138      186.105      204.590       83.508        0.047        0.024       21.628        8.260        0.146      338.157       10.616      858.561
05/08/2014  02:20:00      -87.963        6.209       -6.388       36.461       27.791       20.267     1329.415      772.361      410.767        0.516        0.126       88.182       15.310        0.030      338.424       11.067      858.561
05/08/2014  02:21:00      -53.561       13.524        3.728       37.753       26.411       18.807     1425.262      697.543      353.687        0.277        0.124       55.242       21.969        0.158      338.382       10.996      858.558
05/08/2014  02:22:00      -24.329       18.208       11.874       21.856       24.535       19.008      477.695      601.963      361.322        0.125        0.072       30.389       15.599        0.263      338.281       10.826      858.539
05/08/2014  02:23:00      -55.216       18.464       -7.376       22.283       24.851       15.483      496.547      617.566      239.718        0.240        0.068       58.222       13.299        0.052      338.365       10.967      858.526
05/08/2014  02:24:00      -65.103      -10.846      -11.650       11.722       36.906       13.386      137.417     1362.046      179.186        0.308        0.084       66.001       14.453        0.048      338.239       10.754      858.529
05/08/2014  02:25:00     -112.292      -53.160       -6.291       23.431       22.747       12.418      549.019      517.427      154.203        0.835        0.061      124.239       12.165        0.010      338.043       10.426      858.541
05/08/2014  02:26:00     -125.689      -32.350      -14.964       15.796       12.767        9.881      249.518      162.998       97.641        0.879        0.026      129.785        5.977        0.002      337.971       10.308      858.549
05/08/2014  02:27:00      -84.280      -52.739       -9.129       28.588       17.709       12.385      817.289      313.617      153.381        0.563        0.064       99.421        8.709        0.008      337.986       10.330      858.550
05/08/2014  02:28:00      -70.858       39.123      -14.566       28.517       27.527       14.769      813.227      757.735      218.124        0.428        0.089       80.941        7.330        0.008      338.093       10.509      858.545
05/08/2014  02:29:00      -26.335       33.440      -13.414       14.260       16.350       10.270      203.351      267.337      105.476        0.128        0.029       42.565        6.675        0.025      338.222       10.727      858.537
05/08/2014  02:30:00      -17.493       20.494        0.938       22.278       24.132       13.176      496.316      582.333      173.605        0.099        0.063       26.944       11.937        0.196      338.408       11.039      858.525
05/08/2014  02:31:00      -22.193       11.961       -1.866       22.794       22.811       14.478      519.571      520.354      209.615        0.094        0.062       25.211       11.381        0.204      338.387       11.004      858.526
05/08/2014  02:32:00      -30.641       -9.640       -2.562       14.282       18.928       12.062      203.981      358.284      145.498        0.087        0.035       32.122        7.630        0.056      338.200       10.689      858.525
05/08/2014  02:33:00      -26.488       37.295       -3.448       25.771       23.936       17.322      664.158      572.912      300.060        0.182        0.077       45.744        8.168        0.032      338.367       10.971      858.527
05/08/2014  02:34:00      -68.487        6.969       -8.561       23.111       25.670       12.083      534.127      658.948      146.002        0.308        0.067       68.840        9.863        0.021      338.377       10.988      858.529
05/08/2014  02:35:00      -28.253        6.839       -0.441       27.227       19.070       12.227      741.310      363.654      149.508        0.105        0.063       29.069       13.205        0.206      338.327       10.903      858.521
05/08/2014  02:36:00      -70.237       -5.957       -4.431       38.342       23.615       15.563     1470.145      557.690      242.199        0.363        0.114       70.489       19.698        0.078      338.301       10.857      858.512
05/08/2014  02:37:00      -53.781       -0.904       -0.107       27.153       28.694       15.249      737.284      823.333      232.546        0.234        0.090       53.789       16.754        0.097      338.250       10.773      858.515
05/08/2014  02:38:00      -65.661       44.010      -12.278       18.018       19.798       12.637      324.660      391.953      159.697        0.364        0.044       79.046        4.420        0.003      338.331       10.908      858.505
05/08/2014  02:39:00      -74.568       15.660       -3.102       40.721       21.386       17.393     1658.180      457.342      302.511        0.412        0.121       76.195       18.862        0.061      338.531       11.246      858.505
05/08/2014  02:40:00      -95.409      -20.166       -8.608       14.857       18.900       15.431      220.731      357.219      238.101        0.520        0.041       97.516        9.759        0.010      338.309       10.874      858.505
05/08/2014  02:41:00      -72.030      -13.020       -1.007       23.001       18.384       12.183      529.050      337.969      148.415        0.319        0.051       73.198       12.257        0.028      338.243       10.762      858.507
05/08/2014  02:42:00      -81.499        1.462       -9.390       37.219       22.792       20.562     1385.244      519.468      422.795        0.453        0.116       81.512       20.257        0.062      338.432       11.079      858.518
05/08/2014  02:43:00      -52.057        5.287        1.436       36.387       24.485       16.960     1323.977      599.499      287.635        0.248        0.111       52.325       11.340        0.047      338.531       11.245      858.526
05/08/2014  02:44:00      -61.386       25.574        9.294       35.466       20.258       21.154     1257.817      410.373      447.478        0.331        0.106       66.500       19.622        0.087      338.761       11.632      858.537
05/08/2014  02:45:00      -45.824       17.949        5.319       17.647       28.376       16.282      311.427      805.216      265.090        0.192        0.069       49.214        8.056        0.027      338.733       11.585      858.533
05/08/2014  02:46:00      -71.583      -30.331       -5.379       26.167       21.700       15.722      684.686      470.883      247.195        0.374        0.070       77.743        9.363        0.015      338.139       10.588      858.524
05/08/2014  02:47:00      -30.853      -34.889        2.403       39.651       22.599       16.671     1572.213      510.698      277.922        0.227        0.118       46.574       18.741        0.162      338.029       10.404      858.509
05/08/2014  02:48:00      -29.882      -18.240       -4.969       21.283       10.567       16.650      452.984      111.654      277.207        0.105        0.042       35.009       15.175        0.188      338.045       10.430      858.487
05/08/2014  02:49:00      -25.916      -10.353       -6.219       24.209       23.301       13.346      586.071      542.933      178.122        0.106        0.065       27.907       13.738        0.242      338.164       10.629      858.467
05/08/2014  02:50:00      -54.226      -23.438       -1.578       16.031       12.495        7.984      257.007      156.123       63.743        0.198        0.024       59.074        5.907        0.010      338.232       10.743      858.457
05/08/2014  02:51:00      -28.165       -5.636        3.014       19.622       13.948        9.625      385.035      194.560       92.641        0.075        0.034       28.724       10.643        0.137      338.253       10.778      858.448
05/08/2014  02:52:00       12.673       30.185        5.986       14.779       21.898       16.751      218.408      479.529      280.605        0.104        0.049       32.737       11.649        0.127      338.363       10.963      858.429
05/08/2014  02:53:00      -14.109       -6.712       -3.829       18.699       15.144        8.964      349.638      229.339       80.356        0.046        0.033       15.624        8.226        0.277      338.364       10.965      858.420
05/08/2014  02:54:00      -99.770       34.709       -6.554       54.152       35.366       25.211     2932.424     1250.779      635.595        0.801        0.241      105.635       25.325        0.057      338.111       10.541      858.422
05/08/2014  02:55:00     -130.407        9.876      -22.191       46.817       35.541       27.705     2191.792     1263.160      767.568        1.091        0.211      130.781       28.921        0.049      337.842       10.090      858.426
05/08/2014  02:56:00      -50.334       24.100        4.306       33.221       38.822       23.302     1103.612     1507.136      542.992        0.314        0.158       55.806       19.431        0.121      338.008       10.368      858.421
05/08/2014  02:57:00      -74.875       34.042        6.568       39.465       25.608       27.555     1557.513      655.756      759.259        0.489        0.149       82.251       12.620        0.024      338.216       10.717      858.411
05/08/2014  02:58:00      -97.553       32.135       -2.922       31.737       25.789       20.546     1007.246      665.098      422.138        0.633        0.105      102.710       15.213        0.022      338.241       10.759      858.422
05/08/2014  02:59:00      -80.425       -0.514      -18.116       27.202       37.300       17.787      739.971     1391.260      316.362        0.462        0.122       80.426       10.330        0.016      338.058       10.451      858.423
05/08/2014  03:00:00      -35.699      -20.248       -0.069       34.983       22.033       15.148     1223.784      485.449      229.472        0.181        0.097       41.042       20.858        0.258      337.895       10.179      858.412
05/08/2014  03:01:00      -40.010       39.652       -8.599       29.991       27.353       16.524      899.477      748.160      273.035        0.258        0.096       56.330       11.204        0.040      338.023       10.393      858.405
05/08/2014  03:02:00     -127.104       22.450      -13.991       48.611       38.047       19.572     2363.037     1447.539      383.070        1.052        0.210      129.071       18.360        0.020      338.168       10.636      858.394
05/08/2014  03:03:00     -189.060       35.190      -30.644       61.099       42.756       29.458     3733.029     1828.033      867.793        2.217        0.321      192.307       29.883        0.024      337.776        9.977      858.399
05/08/2014  03:04:00      -74.581       44.815       -0.774       56.299       50.332       35.423     3169.534     2533.295     1254.767        0.726        0.348       87.010       34.883        0.161      337.734        9.909      858.390
05/08/2014  03:05:00      -94.233       17.535      -14.216       40.294       30.329       21.873     1623.581      919.819      478.418        0.621        0.151       95.850       23.109        0.058      337.765        9.959      858.373
05/08/2014  03:06:00     -102.116       -2.998       -7.943       28.900       35.810       19.207      835.237     1282.345      368.915        0.649        0.124      102.160       11.759        0.013      337.950       10.271      858.370
05/08/2014  03:07:00     -117.245      -30.440      -16.108       38.012       37.994       19.776     1444.905     1443.563      391.075        0.911        0.164      121.132       15.258        0.016      337.791       10.005      858.368
05/08/2014  03:08:00      -77.130       -2.866      -19.987       31.667       37.968       17.831     1002.818     1441.585      317.949        0.456        0.138       77.183       11.098        0.021      337.725        9.893      858.362
05/08/2014  03:09:00       -7.750      -26.258       -3.026       22.334       22.214       17.958      498.814      493.479      322.491        0.104        0.066       27.378       14.431        0.278      337.768        9.964      858.356
05/08/2014  03:10:00     -127.279      -33.761       -8.565       56.634       28.266       19.681     3207.367      798.969      387.338        1.090        0.220      131.680       10.647        0.007      337.688        9.831      858.364
05/08/2014  03:11:00     -154.839      -70.600       -9.599       43.002       36.553       19.819     1849.145     1336.148      392.802        1.631        0.179      170.175       13.572        0.006      337.444        9.420      858.375
05/08/2014  03:12:00      -62.352      -25.121        3.286       39.286       34.863       24.274     1543.360     1215.422      589.224        0.394        0.167       67.223        5.721        0.007      337.589        9.665      858.381
05/08/2014  03:13:00      -39.765      -21.828        8.913       39.783       22.297       20.259     1582.688      497.152      410.429        0.231        0.125       45.362       20.926        0.213      337.608        9.696      858.375
05/08/2014  03:14:00      -70.789      -13.495       -8.933       43.927       18.547       14.108     1929.593      344.003      199.036        0.387        0.124       72.064       18.422        0.065      337.617        9.711      858.380
05/08/2014  03:15:00      -55.042      -14.869        0.678       14.564       29.982       14.778      212.116      898.935      218.392        0.229        0.066       57.015       10.601        0.035      337.808       10.033      858.375
05/08/2014  03:16:00      -45.669        2.753       -1.769       35.881       24.134       18.429     1287.472      582.471      339.627        0.215        0.110       45.752       17.443        0.145      337.918       10.216      858.361
05/08/2014  03:17:00     -115.791       -5.558      -14.431       57.187       47.846       24.663     3270.337     2289.283      608.265        0.991        0.308      115.924       29.306        0.064      337.980       10.320      858.358
05/08/2014  03:18:00      -91.851      -45.830       -1.895       68.304       39.335       34.845     4665.405     1547.260     1214.187        0.898        0.371      102.650       32.020        0.097      337.669        9.798      858.357
05/08/2014  03:19:00      -72.654      -55.908       -5.922       39.202       19.918       16.594     1536.830      396.708      275.354        0.532        0.110       91.674       12.577        0.019      337.563        9.622      858.363
05/08/2014  03:20:00      -25.811      -24.295       -3.488       21.001       17.640       12.091      441.054      311.179      146.197        0.108        0.045       35.446        8.234        0.054      337.601        9.684      858.358
05/08/2014  03:21:00      -86.508       -7.363       -7.722       19.234       13.136       13.400      369.936      172.563      179.566        0.416        0.036       86.821       11.815        0.019      337.543        9.587      858.356
05/08/2014  03:22:00      -96.450       -2.418       -4.573       23.044       23.818       17.492      531.027      567.315      305.979        0.537        0.070       96.480       15.186        0.025      337.755        9.944      858.357
05/08/2014  03:23:00     -112.339       19.095       -9.648       43.929       32.073       26.090     1929.762     1028.660      680.684        0.836        0.182      113.950       25.226        0.049      337.927       10.233      858.355
05/08/2014  03:24:00     -109.756       14.857      -13.910       34.584       31.511       21.543     1196.046      992.937      464.108        0.756        0.133      110.757       16.303        0.022      338.016       10.381      858.362
05/08/2014  03:25:00     -132.230       19.244       -5.650       24.788       26.231       20.404      614.469      688.066      416.339        0.980        0.086      133.623       16.581        0.015      337.716        9.878      858.364
05/08/2014  03:26:00     -118.397        2.725      -10.907       28.608       32.136       20.487      818.398     1032.715      419.707        0.821        0.114      118.429       13.069        0.012      337.868       10.134      858.366
05/08/2014  03:27:00     -113.107      -23.348       -5.599       51.121       29.198       24.417     2613.374      852.519      596.180        0.872        0.203      115.492       24.955        0.047      337.583        9.654      858.380
05/08/2014  03:28:00     -157.235       -0.499      -16.819       44.002       32.855       26.629     1936.173     1079.459      709.123        1.436        0.186      157.236       26.432        0.028      337.566        9.627      858.395
05/08/2014  03:29:00     -100.584       -0.885      -10.564       33.102       34.657       21.696     1095.724     1201.123      470.722        0.650        0.138      100.588       21.321        0.045      337.656        9.777      858.397
05/08/2014  03:30:00     -129.405        7.482      -16.377       31.974       21.489       16.710     1022.312      461.780      279.213        0.942        0.088      129.621       12.310        0.009      337.663        9.789      858.404
05/08/2014  03:31:00     -131.183        6.712      -13.173       36.046       25.356       21.998     1299.293      642.934      483.891        0.993        0.121      131.354       22.092        0.028      337.608        9.696      858.402
05/08/2014  03:32:00      -96.610       12.583      -13.910       26.129       26.563       20.513      682.747      705.570      420.763        0.575        0.090       97.426       16.718        0.029      337.848       10.100      858.395
05/08/2014  03:33:00      -65.289       18.449       -8.953       28.222       33.418       19.578      796.478     1116.747      383.293        0.349        0.115       67.846       11.601        0.029      337.852       10.107      858.386
05/08/2014  03:34:00      -63.832       20.330       -7.128       29.063       32.912       20.529      844.676     1083.171      421.458        0.344        0.117       66.992       20.283        0.092      337.718        9.881      858.380
05/08/2014  03:35:00      -73.402        0.519       -9.402       20.330       18.343       14.087      413.290      336.465      198.450        0.321        0.047       73.404        6.846        0.009      337.917       10.214      858.389
05/08/2014  03:36:00      -31.054       -8.217       -0.394       28.293       27.300       16.112      800.476      745.264      259.586        0.142        0.090       32.123       14.974        0.217      337.957       10.282      858.399
05/08/2014  03:37:00      -66.358      -10.002       -1.471       28.465       31.050       13.083      810.281      964.121      171.160        0.323        0.097       67.107       13.133        0.038      337.905       10.196      858.410
05/08/2014  03:38:00      -67.115        7.776       -5.576       31.945       23.598       14.938     1020.471      556.849      223.155        0.320        0.090       67.564       12.108        0.032      338.146       10.600      858.421
05/08/2014  03:39:00     -100.325      -37.903      -11.044       24.683       31.521       13.634      609.262      993.600      185.897        0.671        0.089      107.247       13.539        0.016      337.862       10.124      858.431
05/08/2014  03:40:00      -14.760      -20.876        6.812       49.976       25.323       24.974     2497.592      641.275      623.695        0.223        0.188       25.567       27.334        1.143      337.708        9.864      858.443
05/08/2014  03:41:00      -61.887       -2.963       -8.736       36.898       16.534       14.152     1361.495      273.376      200.284        0.287        0.092       61.958       11.819        0.036      337.718        9.882      858.455
05/08/2014  03:42:00     -109.521      -13.539      -15.579       17.702       14.422       12.874      313.346      207.997      165.735        0.655        0.034      110.355        7.432        0.005      337.672        9.806      858.476
05/08/2014  03:43:00      -83.292       -3.473      -10.902       18.735       17.639       13.396      350.986      311.132      179.440        0.395        0.042       83.364       13.249        0.025      337.715        9.877      858.490
05/08/2014  03:44:00      -79.970       10.813      -11.987       12.635       13.920        8.412      159.646      193.753       70.758        0.354        0.021       80.698        4.895        0.004      337.692        9.837      858.496
05/08/2014  03:45:00      -69.521       23.699      -16.867       16.883       20.973       13.526      285.052      439.877      182.943        0.329        0.045       73.449       10.700        0.021      337.736        9.912      858.505
05/08/2014  03:46:00      -26.714       34.145      -12.347       18.495       20.967       12.180      342.068      439.614      148.341        0.148        0.047       43.353       14.131        0.106      337.804       10.028      858.503
05/08/2014  03:47:00      -46.372        1.132       -2.115       15.168       20.111       10.755      230.082      404.440      115.667        0.145        0.038       46.386        5.276        0.013      337.820       10.052      858.506
05/08/2014  03:48:00      -69.504       22.372      -10.967       14.027       19.298       12.571      196.768      372.421      158.029        0.309        0.036       73.016        5.785        0.006      337.901       10.189      858.510
05/08/2014  03:49:00      -56.036       45.541      -16.883       12.510       16.103       10.633      156.499      259.315      113.061        0.301        0.026       72.208        4.699        0.004      338.058       10.453      858.503
05/08/2014  03:50:00      -76.898        1.858       -9.987       12.516       14.940       10.267      156.657      223.198      105.416        0.325        0.024       76.920        4.052        0.003      337.924       10.226      858.510
05/08/2014  03:51:00      -21.282      -10.559       -4.080       14.186        9.338        7.096      201.252       87.189       50.354        0.046        0.017       23.757        2.059        0.008      337.892       10.173      858.512
05/08/2014  03:52:00       -8.732       -5.573       11.463        9.313       17.685       10.866       86.736      312.759      118.073        0.038        0.026       10.359        9.930        0.919      337.890       10.169      858.517
05/08/2014  03:53:00        3.049       21.828       -8.281       19.483       10.847        6.913      379.578      117.653       47.796        0.055        0.027       22.040        3.618        0.027      337.932       10.242      858.535
05/08/2014  03:54:00       15.675       29.652       -2.071       14.136       15.088        9.566      199.815      227.661       91.507        0.082        0.026       33.540        4.773        0.020      337.938       10.251      858.546
05/08/2014  03:55:00       18.037       76.776      -13.210       16.663       24.157       12.815      277.640      583.537      164.235        0.371        0.051       78.866       15.254        0.037      337.934       10.244      858.560
05/08/2014  03:56:00       -8.717       72.733       -7.126       33.014       35.845       25.685     1089.907     1284.833      659.718        0.423        0.152       73.253       11.121        0.023      337.995       10.344      858.575
05/08/2014  03:57:00      -18.603       -7.371       -2.819       19.389       40.045       14.270      375.927     1603.573      203.646        0.130        0.109       20.010        9.209        0.212      337.971       10.305      858.587
05/08/2014  03:58:00      -25.318      -20.329        1.467       19.304       16.353       17.185      372.645      267.408      295.323        0.100        0.047       32.469       15.013        0.214      337.958       10.284      858.598
05/08/2014  03:59:00       11.009      -20.748       -6.953       11.247       13.570       14.225      126.500      184.134      202.345        0.056        0.026       23.488        8.127        0.120      337.961       10.289      858.600
05/08/2014  04:00:00      -24.776        3.378        3.575       26.009       10.224       12.172      676.473      104.522      148.166        0.078        0.046       25.005       16.223        0.421      338.040       10.422      858.589
05/08/2014  04:01:00      -52.917       27.964       -9.185       10.220       10.500        7.019      104.452      110.249       49.267        0.197        0.013       59.852        2.858        0.002      338.058       10.451      858.577
05/08/2014  04:02:00      -55.499       14.329      -10.273        7.303        9.860        5.566       53.331       97.215       30.983        0.179        0.009       57.319        2.213        0.001      338.077       10.487      858.570
05/08/2014  04:03:00      -51.137        2.416       -2.560        8.397       10.209        5.612       70.505      104.217       31.491        0.142        0.010       51.194        4.784        0.009      338.028       10.402      858.564
05/08/2014  04:04:00      -71.092       12.023      -10.355       11.732       11.595        7.536      137.641      134.440       56.789        0.282        0.016       72.101        4.797        0.004      337.972       10.307      858.569
05/08/2014  04:05:00      -75.836        2.291       -7.881       37.655       23.751       20.525     1417.925      564.100      421.295        0.411        0.120       75.871       21.503        0.080      337.855       10.112      858.571
05/08/2014  04:06:00      -60.129       21.326       -7.738       24.093       17.279       14.118      580.468      298.574      199.322        0.260        0.054       63.799        6.826        0.011      337.864       10.125      858.580
05/08/2014  04:07:00     -110.933       16.623       -4.229       28.155       20.323       14.647      792.697      413.026      214.525        0.701        0.071      112.172       10.610        0.009      337.935       10.244      858.584
05/08/2014  04:08:00      -98.907       13.249       -6.723       19.956       15.510       11.224      398.247      240.572      125.978        0.538        0.038       99.790        7.742        0.006      337.929       10.235      858.589
05/08/2014  04:09:00      -53.954       20.158      -14.703       35.105       20.072       14.788     1232.375      402.872      218.677        0.269        0.093       57.597       13.250        0.053      337.977       10.316      858.591
05/08/2014  04:10:00      -28.519      -13.982       -3.955       15.451       23.498        9.238      238.742      552.138       85.336        0.095        0.044       31.762        7.883        0.062      337.955       10.280      858.594
05/08/2014  04:11:00      -68.667      -22.864       -8.324       10.923       12.285        6.296      119.305      150.914       39.645        0.281        0.015       72.374        5.281        0.005      338.005       10.362      858.604
05/08/2014  04:12:00      -74.533      -33.884       -9.014       14.879        9.384       10.476      221.371       88.051      109.748        0.360        0.021       81.874        6.390        0.006      337.903       10.190      858.613
05/08/2014  04:13:00      -87.136      -12.444       -8.607       18.584       11.730       12.021      345.350      137.585      144.507        0.422        0.031       88.020       10.997        0.016      337.876       10.146      858.631
05/08/2014  04:14:00      -82.252      -27.107      -11.933       21.008       18.187        8.326      441.345      330.769       69.318        0.424        0.042       86.604        4.700        0.003      337.836       10.080      858.639
05/08/2014  04:15:00      -42.400       -9.930       -2.186       22.052       19.932       12.810      486.276      397.286      164.098        0.147        0.052       43.548       11.247        0.067      337.772        9.973      858.644
05/08/2014  04:16:00      -63.604      -14.512        2.410       27.040       25.574       15.519      731.176      654.041      240.853        0.294        0.081       65.239       13.016        0.040      337.808       10.032      858.644
05/08/2014  04:17:00      -66.863      -25.353       -0.069       21.323       20.098       11.332      454.658      403.926      128.413        0.305        0.049       71.509        7.194        0.010      337.925       10.229      858.646
05/08/2014  04:18:00      -57.245      -29.357        3.078       25.550       15.611       13.155      652.807      243.714      173.056        0.261        0.053       64.334       13.517        0.044      337.955       10.278      858.646
05/08/2014  04:19:00      -50.412      -16.466       -2.134       13.588       14.416        6.791      184.629      207.813       46.117        0.163        0.022       53.033        2.239        0.002      337.920       10.220      858.645
05/08/2014  04:20:00      -33.692      -23.322       -3.632       18.250       14.533        7.919      333.051      211.219       62.709        0.115        0.030       40.977        7.755        0.036      337.826       10.064      858.649
05/08/2014  04:21:00      -31.639      -17.799       -1.359       14.944       19.113       14.008      223.331      365.306      196.228        0.105        0.039       36.302       12.052        0.110      337.722        9.888      858.657
05/08/2014  04:22:00      -39.984      -13.896        5.400       29.849       23.810       14.731      890.967      566.932      217.011        0.175        0.084       42.330       11.325        0.072      337.695        9.843      858.665
05/08/2014  04:23:00      -69.974      -18.216        0.326       27.574       25.702       14.269      760.323      660.573      203.591        0.343        0.081       72.306       12.803        0.031      337.637        9.745      858.674
05/08/2014  04:24:00      -66.694        5.083       -3.867       29.923       19.858       15.531      895.367      394.333      241.222        0.301        0.077       66.888       14.477        0.047      337.638        9.747      858.685
05/08/2014  04:25:00      -49.075       -8.347       -5.239       24.316       13.510       11.704      591.262      182.514      136.972        0.171        0.046       49.779       12.610        0.064      337.681        9.820      858.692
05/08/2014  04:26:00      -77.797      -15.179       -5.489       12.708       12.711       11.096      161.504      161.578      123.130        0.338        0.022       79.264        8.649        0.012      337.751        9.936      858.694
05/08/2014  04:27:00      -85.932      -17.243       -6.653       23.219       16.457       10.472      539.103      270.840      109.664        0.432        0.046       87.645        5.421        0.004      337.669        9.798      858.698
05/08/2014  04:28:00      -82.550      -18.581       -2.249       29.451       21.499       13.865      867.370      462.204      192.232        0.434        0.076       84.616       13.444        0.025      337.629        9.732      858.699
05/08/2014  04:29:00      -88.936       -6.176       -5.167       22.389       17.647       13.621      501.253      311.433      185.543        0.449        0.050       89.150        9.050        0.010      337.609        9.699      858.700
05/08/2014  04:30:00      -66.117       13.622       -5.974       25.943       15.890       14.501      673.023      252.492      210.292        0.286        0.057       67.506       11.819        0.031      337.644        9.758      858.689
05/08/2014  04:31:00      -54.599       10.605       -5.164       24.098       11.970        9.997      580.704      143.293       99.945        0.197        0.041       55.620        5.613        0.010      337.745        9.926      858.681
05/08/2014  04:32:00      -61.009        5.377       -2.579       21.908       14.609       12.765      479.960      213.416      162.955        0.231        0.043       61.245       11.929        0.038      337.731        9.903      858.682
05/08/2014  04:33:00     -136.438       -1.015      -12.869       21.837       19.263       16.263      476.859      371.065      264.491        0.995        0.056      136.441       10.748        0.006      337.662        9.787      858.694
05/08/2014  04:34:00      -97.628      -32.927      -10.006       32.355       21.109       13.396     1046.826      445.580      179.465        0.619        0.084      103.031       13.977        0.018      337.670        9.801      858.696
05/08/2014  04:35:00      -44.600      -21.400       -3.844       22.060       15.012        8.969      486.626      225.366       80.444        0.163        0.040       49.469        6.685        0.018      337.650        9.768      858.703
05/08/2014  04:36:00      -11.741      -45.644        5.250       17.172       13.350       14.918      294.890      178.218      222.540        0.147        0.035       47.130       13.521        0.082      337.822       10.057      858.708
05/08/2014  04:37:00      -61.049       -6.108       -2.647       28.318       16.681       13.302      801.919      278.262      176.932        0.251        0.063       61.354       12.904        0.044      337.920       10.220      858.713
05/08/2014  04:38:00     -111.939       12.465      -11.112       43.728       17.447       16.421     1912.117      304.403      269.657        0.765        0.124      112.631       19.372        0.030      337.616        9.710      858.723
05/08/2014  04:39:00      -23.391      -23.246       -2.666       28.896       41.999       12.654      834.987     1763.882      160.118        0.193        0.138       32.978       12.744        0.149      337.895       10.180      858.719
05/08/2014  04:40:00      -45.322      -57.934        2.146       50.432       25.453       23.729     2543.346      647.873      563.061        0.458        0.188       73.556       19.217        0.068      337.767        9.962      858.728
05/08/2014  04:41:00      -76.687      -76.856       -2.002       34.969       26.899       21.406     1222.854      723.554      458.217        0.710        0.120      108.572       17.880        0.027      337.781        9.985      858.732
05/08/2014  04:42:00      -72.089      -28.881        6.553       33.557       26.731       20.647     1126.072      714.563      426.290        0.417        0.113       77.659       17.893        0.053      337.801       10.021      858.738
05/08/2014  04:43:00      -64.147      -70.556        1.583       37.680       27.938       21.323     1419.812      780.554      454.675        0.587        0.133       95.357       12.974        0.019      337.922       10.223      858.734
05/08/2014  04:44:00     -127.579      -96.155       -2.556       45.376       43.539       23.244     2059.006     1895.677      540.290        1.501        0.225      159.756       23.990        0.023      337.931       10.237      858.732
05/08/2014  04:45:00      -80.697      -66.890        7.008       69.917       52.487       35.043     4888.375     2754.880     1228.008        0.995        0.444      104.816       36.528        0.121      337.914       10.210      858.738
05/08/2014  04:46:00     -125.176      -60.639        0.957       50.088       46.535       20.805     2508.777     2165.468      432.852        1.223        0.255      139.090       23.968        0.030      337.879       10.150      858.745
05/08/2014  04:47:00      -51.711       32.672       -4.138       28.945       26.162       19.454      837.825      684.467      378.439        0.283        0.095       61.167       16.787        0.075      337.649        9.766      858.740
05/08/2014  04:48:00      -80.071       60.503      -22.109       17.176       30.356       13.189      295.005      921.479      173.954        0.598        0.070      100.359       10.986        0.012      337.611        9.703      858.736
05/08/2014  04:49:00      -70.236      -10.891       -8.080       17.575       22.872       13.815      308.875      523.134      190.864        0.307        0.051       71.075        5.930        0.007      337.589        9.666      858.735
05/08/2014  04:50:00      -79.938      -11.948      -12.408       20.097       22.458       14.261      403.901      504.383      203.375        0.390        0.056       80.826        7.417        0.008      337.507        9.526      858.729
05/08/2014  04:51:00      -99.166      -16.038       -6.106       39.642       23.863       15.585     1571.459      569.453      242.898        0.626        0.119      100.454       18.053        0.032      337.529        9.565      858.730
05/08/2014  04:52:00     -126.578        4.706      -16.118       24.345       19.489       14.862      592.669      379.828      220.866        0.875        0.060      126.666       11.182        0.008      337.423        9.386      858.733
05/08/2014  04:53:00     -111.406       20.707       -8.935       28.594       20.324       13.254      817.605      413.049      175.674        0.716        0.070      113.314        9.431        0.007      337.386        9.324      858.732
05/08/2014  04:54:00      -78.466       19.915      -15.956       15.820       17.469       11.795      250.288      305.167      139.118        0.375        0.035       80.954        9.558        0.014      337.419        9.379      858.743
05/08/2014  04:55:00      -84.773      -29.575      -11.778       17.276       20.762       11.577      298.473      431.061      134.029        0.453        0.043       89.784        8.832        0.010      337.437        9.409      858.744
05/08/2014  04:56:00     -107.135      -23.364      -14.109       18.184       19.427       11.007      330.673      377.396      121.154        0.653        0.041      109.653        6.986        0.004      337.485        9.491      858.742
05/08/2014  04:57:00      -93.464      -37.451       -3.941       18.199       22.896       12.468      331.216      524.214      155.443        0.558        0.051      100.688       10.025        0.010      337.457        9.442      858.739
05/08/2014  04:58:00      -70.119      -28.624       -0.243       27.394       20.922       13.279      750.426      437.712      176.338        0.355        0.068       75.736       13.829        0.033      337.407        9.360      858.734
05/08/2014  04:59:00      -72.002      -10.935       -4.310       30.673       26.113       17.536      940.825      681.900      307.524        0.363        0.097       72.827       17.416        0.057      337.385        9.323      858.732
05/08/2014  05:00:00      -92.375       -9.260      -10.236       35.186       15.059       14.892     1238.039      226.764      221.782        0.520        0.084       92.838       14.719        0.025      337.326        9.225      858.739
05/08/2014  05:01:00      -62.369      -17.441      -10.922       18.692       17.527       10.720      349.373      307.199      114.914        0.254        0.039       64.762       12.301        0.036      337.397        9.344      858.743
05/08/2014  05:02:00      -74.744      -15.668       -7.389       11.488       19.705       12.660      131.981      388.286      160.275        0.328        0.034       76.369        9.883        0.017      337.439        9.415      858.747
05/08/2014  05:03:00      -82.272       -1.548       -9.829       42.090       18.153       16.199     1771.540      329.538      262.403        0.462        0.118       82.287       20.151        0.060      337.389        9.330      858.751
05/08/2014  05:04:00     -126.349       20.046       -8.913       21.514       19.569       16.811      462.861      382.951      282.613        0.879        0.056      127.930       13.234        0.011      337.335        9.239      858.761
05/08/2014  05:05:00     -104.770       -6.141      -10.951       23.106       18.079       15.311      533.894      326.841      234.439        0.611        0.055      104.950       13.081        0.016      337.398        9.345      858.769
05/08/2014  05:06:00     -134.658       -0.024      -18.347       23.437       19.487       12.819      549.282      379.754      164.314        0.978        0.055      134.658       12.212        0.008      337.345        9.256      858.781
05/08/2014  05:07:00     -116.614       14.633      -11.946       19.246       24.555       17.236      370.420      602.946      297.090        0.761        0.064      117.529        9.793        0.007      337.367        9.293      858.797
05/08/2014  05:08:00     -108.315       23.794      -18.674       29.731       26.060       18.487      883.904      679.112      341.764        0.728        0.095      110.897       15.383        0.019      337.307        9.194      858.795
05/08/2014  05:09:00      -87.210       -3.138      -12.942       22.907       23.613       13.230      524.716      557.580      175.030        0.452        0.063       87.267       12.229        0.020      337.322        9.218      858.804
05/08/2014  05:10:00      -79.344      -28.791       -7.778       16.565       18.218       13.882      274.406      331.887      192.698        0.399        0.040       84.406        9.251        0.012      337.344        9.255      858.808
05/08/2014  05:11:00      -90.773       -9.487       -7.680       25.391       29.481       18.728      644.718      869.127      350.727        0.513        0.093       91.267        6.662        0.005      337.335        9.239      858.812
05/08/2014  05:12:00     -141.414       26.018      -17.037       32.353       22.486       13.217     1046.706      505.635      174.702        1.135        0.086      143.788        7.768        0.003      337.300        9.181      858.827
05/08/2014  05:13:00     -122.507       15.630      -16.707       30.405       25.935       15.483      924.486      672.603      239.724        0.868        0.092      123.500       15.141        0.015      337.266        9.124      858.831
05/08/2014  05:14:00      -77.885       32.165      -17.220       23.543       13.221       11.413      554.278      174.800      130.261        0.413        0.043       84.266       10.948        0.017      337.406        9.358      858.822
05/08/2014  05:15:00      -70.095        3.789       -9.566       18.291       12.898       10.953      334.576      166.366      119.966        0.282        0.031       70.197        7.375        0.011      337.374        9.303      858.828
05/08/2014  05:16:00      -55.382       22.507      -10.642       10.987       27.170        9.804      120.709      738.214       96.124        0.232        0.048       59.780        6.455        0.012      337.392        9.335      858.821
05/08/2014  05:17:00      -54.284       14.166      -10.637       20.976       20.529       10.158      439.980      421.430      103.192        0.211        0.048       56.102       10.267        0.033      337.451        9.432      858.817
05/08/2014  05:18:00      -69.178      -23.056       -4.662       44.575       18.122       15.177     1986.934      328.394      230.347        0.394        0.127       72.919       21.409        0.086      337.370        9.299      858.828
05/08/2014  05:19:00      -40.854       -5.772        1.084       21.742       12.937       11.638      472.709      167.372      135.442        0.124        0.039       41.259        8.050        0.038      337.364        9.286      858.843
05/08/2014  05:20:00      -59.717      -19.863      -15.679       19.625       11.844       11.266      385.148      140.275      126.922        0.243        0.033       62.934        9.498        0.023      337.412        9.369      858.856
05/08/2014  05:21:00      -56.253      -22.743       -6.342       26.703       15.634       13.770      713.037      244.415      189.608        0.243        0.057       60.676       11.328        0.035      337.383        9.320      858.869
05/08/2014  05:22:00      -41.622       -6.110       -4.926       10.763       19.623       14.550      115.834      385.047      211.705        0.125        0.036       42.068       11.930        0.080      337.414        9.373      858.870
05/08/2014  05:23:00      -83.914       -7.210       -4.503       28.629       21.033       16.312      819.644      442.397      266.081        0.432        0.076       84.223       16.493        0.038      337.396        9.341      858.873
05/08/2014  05:24:00      -92.619      -29.861      -12.925       14.806       11.550       11.782      219.213      133.412      138.823        0.506        0.025       97.313        4.771        0.002      337.395        9.339      858.880
05/08/2014  05:25:00      -69.293      -24.578       -9.060       21.767        9.188       10.169      473.795       84.420      103.416        0.307        0.033       73.523       10.235        0.019      337.341        9.251      858.884
05/08/2014  05:26:00      -53.349       10.062       -4.572       16.891       32.489       11.762      285.311     1055.562      138.342        0.222        0.074       54.289        7.841        0.021      337.348        9.261      858.886
05/08/2014  05:27:00      -41.111      -20.702        0.112       29.678       22.385       14.450      880.812      501.090      208.793        0.185        0.080       46.029       15.573        0.114      337.389        9.329      858.893
05/08/2014  05:28:00      -61.678      -50.288      -12.623       39.252       35.045       21.952     1540.687     1228.166      481.869        0.487        0.163       79.581       17.777        0.050      337.325        9.223      858.887
05/08/2014  05:29:00      -56.782      -31.147        4.953       43.178       24.048       22.920     1864.342      578.317      525.314        0.359        0.148       64.764       23.038        0.127      337.258        9.111      858.884
05/08/2014  05:30:00     -106.369        8.225       -8.822       27.834       35.219       20.270      774.708     1240.364      410.866        0.694        0.121      106.687       13.372        0.016      337.225        9.057      858.868
05/08/2014  05:31:00     -106.212      -36.625       -7.621       44.900       30.797       22.752     2016.025      948.452      517.631        0.808        0.174      112.349       23.432        0.043      337.198        9.010      858.857
05/08/2014  05:32:00      -85.891       20.908       -6.271       50.547       29.150       20.370     2555.018      849.710      414.922        0.584        0.191       88.399       22.524        0.065      337.157        8.941      858.847
05/08/2014  05:33:00     -111.466       38.545      -11.240       27.807       21.078       14.827      773.205      444.277      219.832        0.774        0.072      117.942       11.529        0.010      337.139        8.911      858.834
05/08/2014  05:34:00      -97.648       -7.536      -12.686       23.945       28.615       15.549      573.380      818.800      241.770        0.569        0.082       97.938       13.219        0.018      337.186        8.991      858.840
05/08/2014  05:35:00      -72.032      -31.105       -8.695       45.294       31.383       11.287     2051.550      984.922      127.394        0.470        0.158       78.461       10.520        0.018      337.176        8.974      858.835
05/08/2014  05:36:00      -58.660       44.002       -7.281       46.416       45.296       15.976     2154.425     2051.720      255.238        0.494        0.223       73.329       22.830        0.097      337.308        9.196      858.815
05/08/2014  05:37:00     -101.282       37.402      -13.978       36.930       40.871       22.154     1363.822     1670.403      490.806        0.769        0.176      107.967       18.536        0.029      337.472        9.468      858.818
05/08/2014  05:38:00      -64.959       21.785       -5.210       19.148       31.528       17.267      366.642      994.038      298.154        0.319        0.083       68.514       12.714        0.034      337.446        9.426      858.803
05/08/2014  05:39:00      -48.139        0.815        0.407       44.501       34.262       25.600     1980.340     1173.888      655.342        0.306        0.190       48.146       29.685        0.380      337.410        9.365      858.790
05/08/2014  05:40:00      -63.748       18.850       -7.376       23.735       37.557       21.052      563.345     1410.522      443.196        0.344        0.121       66.477       17.178        0.067      337.449        9.431      858.778
05/08/2014  05:41:00      -68.331       10.582       -1.442       44.982       38.330       22.270     2023.376     1469.214      495.947        0.439        0.199       69.146       24.205        0.123      337.452        9.434      858.762
05/08/2014  05:42:00     -101.033       36.766      -17.629       28.949       28.179       16.921      838.048      794.076      286.311        0.689        0.096      107.514       14.578        0.018      337.533        9.571      858.753
05/08/2014  05:43:00      -90.993        9.308      -10.909       38.956       20.903       20.851     1517.594      436.944      434.761        0.544        0.119       91.468       21.998        0.058      337.432        9.401      858.760
05/08/2014  05:44:00      -67.346      -26.747       -0.213       22.519       13.269       13.055      507.095      176.069      170.433        0.305        0.043       72.463       13.356        0.034      337.423        9.386      858.757
05/08/2014  05:45:00      -18.424       -4.209       -5.509       24.324       17.689        9.638      591.662      312.896       92.894        0.069        0.050       18.899       12.564        0.442      337.415        9.372      858.733
05/08/2014  05:46:00      -41.489       29.523      -10.935       27.922       24.153       13.731      779.640      583.354      188.532        0.213        0.078       50.921       17.486        0.118      337.637        9.746      858.716
05/08/2014  05:47:00      -51.568        2.131       -2.905       17.386       22.983        7.329      302.277      528.199       53.721        0.178        0.044       51.612        6.435        0.016      337.624        9.724      858.703
05/08/2014  05:48:00      -66.923      -25.549       -6.255       14.212       10.468       10.964      201.979      109.570      120.206        0.280        0.022       71.634        8.275        0.013      337.663        9.790      858.698
05/08/2014  05:49:00      -60.627       -1.116       -4.714       15.313       16.813       11.458      234.480      282.671      131.295        0.217        0.032       60.637        9.937        0.027      337.538        9.580      858.690
05/08/2014  05:50:00      -56.938      -19.422       -5.982       11.781       11.771        6.842      138.781      138.560       46.813        0.199        0.016       60.159        4.647        0.006      337.576        9.643      858.693
05/08/2014  05:51:00      -19.152        1.458        1.013       14.474       18.177        7.769      209.492      330.407       60.358        0.048        0.030       19.207        7.491        0.152      337.575        9.643      858.695
05/08/2014  05:52:00       -8.439      -35.154        8.755       12.434       10.051       10.687      154.602      101.027      114.220        0.088        0.018       36.153        6.618        0.034      337.717        9.879      858.701
05/08/2014  05:53:00      -35.299      -14.789       -9.421        8.794        8.561        9.499       77.336       73.293       90.235        0.090        0.012       38.272        4.554        0.014      337.624        9.722      858.720
05/08/2014  05:54:00      -17.172      -35.832      -12.448       25.762       11.147        7.881      663.675      124.266       62.108        0.129        0.043       39.735        7.007        0.031      337.633        9.737      858.742
05/08/2014  05:55:00      -21.362       -2.319       -7.066       17.748       15.408       11.755      315.006      237.411      138.183        0.060        0.035       21.488        7.759        0.130      337.604        9.689      858.753
05/08/2014  05:56:00      -31.153       -4.922        1.593       13.930       17.288       10.679      194.058      298.891      114.036        0.080        0.030       31.540        8.312        0.069      337.542        9.585      858.766
05/08/2014  05:57:00      -49.797        2.025       -3.072       13.593       23.074        7.885      184.756      532.415       62.170        0.164        0.039       49.838        5.521        0.012      337.546        9.591      858.769
05/08/2014  05:58:00      -25.781       13.807       -1.783       15.484        7.401        5.326      239.769       54.774       28.365        0.059        0.016       29.246        5.420        0.034      337.521        9.555      858.776
05/08/2014  05:59:00       12.372       18.205        5.816       11.505       14.056       10.907      132.370      197.566      118.955        0.048        0.022       22.012        9.333        0.180      337.435        9.406      858.786
05/08/2014  06:00:00       29.110       33.843        9.600       19.684       15.235       15.464      387.474      232.108      239.146        0.147        0.043       44.640       11.110        0.062      337.314        9.204      858.794
05/08/2014  06:01:00       58.180       21.881        5.045       24.478       17.398       12.954      599.150      302.701      167.814        0.248        0.053       62.159        9.323        0.022      337.283        9.152      858.802
05/08/2014  06:02:00       -1.821       13.505       23.820       28.753       22.711       10.320      826.733      515.789      106.504        0.110        0.072       13.627        6.718        0.243      337.308        9.195      858.805
05/08/2014  06:03:00      -22.200        6.830       10.618       12.473        9.414       10.323      155.576       88.616      106.556        0.050        0.018       23.227        9.041        0.152      337.328        9.229      858.827
05/08/2014  06:04:00        5.940        3.628       19.831        9.286        7.204        4.418       86.233       51.896       19.516        0.030        0.008        6.960        3.911        0.316      337.394        9.338      858.842
05/08/2014  06:05:00       18.274       10.439        6.707        6.751        9.842        6.182       45.576       96.863       38.215        0.033        0.009       21.045        3.391        0.026      337.356        9.272      858.852
05/08/2014  06:06:00        5.002        6.304       -1.147        9.526        5.675        3.417       90.745       32.207       11.678        0.010        0.007        8.047        2.507        0.097      337.432        9.402      858.856
05/08/2014  06:07:00       16.944       13.135        2.955       12.148       11.313        5.013      147.579      127.983       25.134        0.038        0.015       21.439        4.613        0.046      337.467        9.457      858.851
05/08/2014  06:08:00       12.479       18.900       15.167       13.268       12.094       11.884      176.038      146.271      141.220        0.060        0.023       22.648        9.417        0.173      337.459        9.447      858.843
05/08/2014  06:09:00        5.216       17.450       32.448       17.710       18.695       12.226      313.644      349.514      149.481        0.110        0.041       18.213       13.100        0.517      337.447        9.427      858.839
05/08/2014  06:10:00       15.922       21.134       22.071       21.460       21.275       15.721      460.548      452.628      247.139        0.117        0.058       26.461        8.808        0.111      337.423        9.385      858.849
05/08/2014  06:11:00       17.282        4.836       10.958       12.558       18.080       11.001      157.692      326.884      121.024        0.052        0.030       17.946        6.226        0.120      337.454        9.436      858.860
05/08/2014  06:12:00       20.843        0.688       14.764       11.213       22.318       15.782      125.727      498.105      249.068        0.076        0.044       20.855       14.061        0.455      337.467        9.459      858.861
05/08/2014  06:13:00       -3.923        6.880       18.046        9.095       10.682        6.849       82.717      114.113       46.904        0.032        0.012        7.920        6.884        0.756      337.514        9.540      858.869
05/08/2014  06:14:00       -6.843       11.790       13.672       22.265       12.176       11.557      495.741      148.251      133.556        0.057        0.039       13.632        9.084        0.444      337.539        9.582      858.887
05/08/2014  06:15:00      -45.921       -4.657       -3.469       19.676       11.883        9.071      387.165      141.211       82.276        0.138        0.031       46.157        9.222        0.040      337.557        9.610      858.917
05/08/2014  06:16:00       -0.168        7.267       12.834        7.571       15.802       11.898       57.314      249.692      141.569        0.033        0.022        7.269       12.768        3.085      337.556        9.609      858.918
05/08/2014  06:17:00        0.990       17.083       20.983       13.547       13.772       11.195      183.513      189.664      125.320        0.062        0.025       17.112        6.402        0.140      337.537        9.578      858.914
05/08/2014  06:18:00      -24.879       22.697        9.600       14.735       15.811       17.294      217.114      249.988      299.098        0.100        0.038       33.677        5.337        0.025      337.458        9.445      858.934
05/08/2014  06:19:00      -37.896       27.937       -5.880       11.715        7.363        8.366      137.236       54.217       69.987        0.126        0.013       47.081        7.397        0.025      337.497        9.510      858.966
05/08/2014  06:20:00      -24.786       11.855       -4.981       13.085        9.692       10.353      171.222       93.938      107.189        0.058        0.019       27.475        8.242        0.090      337.572        9.637      858.980
05/08/2014  06:21:00       -1.508        0.198        4.092        5.023        4.856        4.619       25.226       23.576       21.339        0.004        0.004        1.521        1.373        0.815      337.668        9.798      858.987
05/08/2014  06:22:00        9.835        3.847        6.987        8.856        5.563        7.396       78.428       30.943       54.702        0.016        0.008       10.561        3.695        0.122      337.629        9.733      858.993
05/08/2014  06:23:00        3.771        5.615        9.500        7.205        5.013        6.294       51.908       25.126       39.615        0.013        0.006        6.764        4.155        0.377      337.722        9.888      859.001
05/08/2014  06:24:00      -13.901       -5.491       -1.891       12.927        9.827        9.341      167.113       96.569       87.252        0.029        0.018       14.946        8.711        0.340      337.772        9.972      859.009
05/08/2014  06:25:00        0.326        5.485        9.189       16.058       12.283       10.703      257.871      150.872      114.555        0.032        0.026        5.494       12.065        4.822      337.743        9.923      859.012
05/08/2014  06:26:00       12.985       17.806        7.198        5.989        6.275       10.411       35.863       39.369      108.390        0.036        0.009       22.038        5.213        0.056      337.720        9.884      859.009
05/08/2014  06:27:00       16.046        9.303        4.315        8.066       13.808        9.512       65.063      190.667       90.480        0.035        0.017       18.548        7.933        0.183      337.832       10.073      859.004
05/08/2014  06:28:00       17.050      -15.314        1.199       13.393       25.247       17.609      179.366      637.436      310.076        0.083        0.056       22.918       15.499        0.457      337.694        9.841      859.011
05/08/2014  06:29:00       38.294       35.620       21.773       16.159       13.087       14.558      261.119      171.271      211.924        0.193        0.032       52.299        9.079        0.030      337.671        9.802      859.002
05/08/2014  06:30:00       12.332       26.980       12.318       18.244       15.372       16.301      332.856      236.302      265.720        0.093        0.042       29.665       12.465        0.177      337.691        9.836      858.993
05/08/2014  06:31:00       17.053        9.916       -0.848       15.668       13.542        9.315      245.475      183.393       86.778        0.045        0.026       19.726        9.740        0.244      337.745        9.926      858.980
05/08/2014  06:32:00       77.710       45.341       14.160       22.647       18.842       15.459      512.885      355.010      238.968        0.470        0.055       89.970        3.796        0.002      337.643        9.756      858.945
05/08/2014  06:33:00       47.001       25.141       13.798       25.423       17.613       23.535      646.331      310.225      553.916        0.227        0.076       53.303       15.693        0.087      337.723        9.890      858.925
05/08/2014  06:34:00        9.937       16.693       24.440       13.939       18.267       11.110      194.289      333.674      123.438        0.081        0.033       19.427        5.899        0.092      337.901       10.188      858.938
05/08/2014  06:35:00       -3.173       -1.618       12.513        9.110       14.990       11.772       82.995      224.703      138.582        0.031        0.022        3.561       10.065        7.987      338.010       10.370      858.943
05/08/2014  06:36:00        2.062       24.913       17.567       15.522       19.041       16.255      240.929      362.571      264.211        0.090        0.043       24.998       14.201        0.323      337.907       10.199      858.926
05/08/2014  06:37:00       -4.333       15.508       20.642        9.953       16.751       16.374       99.069      280.591      268.121        0.067        0.032       16.102        6.960        0.187      337.897       10.181      858.921
05/08/2014  06:38:00      -14.412       30.312        1.680       12.913       18.994       12.391      166.739      360.761      153.526        0.091        0.034       33.563       10.809        0.104      337.724        9.891      858.914
05/08/2014  06:39:00        0.244        2.941       -6.362        9.649        8.515        7.661       93.112       72.504       58.690        0.014        0.011        2.951        5.602        3.604      337.958       10.284      858.917
05/08/2014  06:40:00      -31.681      -17.172       -2.722       11.871       11.090        9.915      140.915      122.983       98.314        0.083        0.018       36.036        4.234        0.014      337.908       10.200      858.942
05/08/2014  06:41:00        2.164        4.575       13.171        9.226       10.175       10.429       85.128      103.521      108.767        0.025        0.015        5.061        5.711        1.273      338.144       10.596      858.939
05/08/2014  06:42:00       -6.827      -18.002        6.793       22.546       18.186       12.198      508.335      330.718      148.799        0.070        0.049       19.253        9.414        0.239      337.877       10.149      858.940
05/08/2014  06:43:00      -15.723      -50.510       -8.149       16.175       14.530       18.263      261.635      211.114      333.555        0.184        0.040       52.901       10.460        0.039      337.900       10.184      858.936
05/08/2014  06:44:00       -6.180       -4.969        8.528       10.249        7.418        9.886      105.033       55.025       97.731        0.020        0.013        7.930        6.399        0.651      338.091       10.508      858.937
05/08/2014  06:45:00      -26.361        0.290       18.334       16.352       18.719       15.205      267.396      350.418      231.195        0.094        0.042       26.363        4.900        0.035      337.908       10.200      858.945
05/08/2014  06:46:00       -7.461      -59.986        0.048       27.195       33.600       22.039      739.588     1128.938      485.710        0.300        0.118       60.448       12.667        0.044      337.985       10.329      858.968
05/08/2014  06:47:00      -26.523      -39.050       -0.584       34.854       36.592       17.382     1214.787     1339.007      302.132        0.254        0.143       47.206       15.671        0.110      337.980       10.320      858.989
05/08/2014  06:48:00      -20.222      -41.521        8.981       26.570       28.277       19.389      705.942      799.606      375.938        0.205        0.094       46.184       13.980        0.092      338.063       10.459      859.006
05/08/2014  06:49:00      -13.304      -41.847        0.761       38.504       18.258       18.146     1482.591      333.340      329.293        0.204        0.107       43.911       10.956        0.062      338.064       10.462      859.034
05/08/2014  06:50:00      -73.527      -18.131        0.074       47.281       26.001       21.135     2235.491      676.064      446.689        0.455        0.168       75.730       23.235        0.094      337.924       10.226      859.033
05/08/2014  06:51:00       -5.961      -19.891       -3.234       18.687       20.892       11.666      349.222      436.486      136.087        0.068        0.046       20.765        6.737        0.105      337.926       10.230      859.047
05/08/2014  06:52:00      -10.416        4.046        9.326       14.736        9.924       11.364      217.138       98.483      129.133        0.033        0.022       11.174       10.136        0.823      338.124       10.562      859.045
05/08/2014  06:53:00      -16.232        2.729       17.548       17.136       11.155       11.000      293.641      124.437      121.006        0.056        0.027       16.460       10.127        0.379      338.139       10.588      859.056
05/08/2014  06:54:00       14.597      -32.823        4.531       28.135       37.879       22.936      791.573     1434.826      526.072        0.203        0.138       35.922       22.361        0.387      338.131       10.575      859.048
05/08/2014  06:55:00       17.838      -38.613       21.514       34.417       53.647       29.754     1184.505     2878.005      885.325        0.361        0.247       42.534       31.916        0.563      338.131       10.574      859.045
05/08/2014  06:56:00       14.401       -3.168       25.919       21.285       30.793       22.198      453.059      948.193      492.743        0.139        0.095       14.745       16.070        1.188      338.152       10.611      859.039
05/08/2014  06:57:00       29.984      -73.337       -6.192       44.187       45.257       28.357     1952.489     2048.219      804.092        0.556        0.240       79.230       22.316        0.079      338.042       10.424      859.048
05/08/2014  06:58:00        4.341       25.808       50.505       21.727       28.135       24.375      472.044      791.590      594.161        0.255        0.093       26.171       19.089        0.532      338.203       10.695      859.038
05/08/2014  06:59:00      -18.364       18.944       54.901       18.278       31.652       26.704      334.084     1001.867      713.127        0.288        0.102       26.384       21.553        0.667      338.206       10.700      859.029
05/08/2014  07:00:00      -22.109       -6.249       14.602       23.642       27.731       22.093      558.938      768.985      488.096        0.128        0.091       22.976       21.298        0.859      338.187       10.669      859.037
05/08/2014  07:01:00      -29.291      -13.746       27.430       26.541       23.915       15.408      704.444      571.929      237.411        0.166        0.076       32.356       10.602        0.107      338.308       10.872      859.040
05/08/2014  07:02:00      -12.196        3.058       11.457       14.357       13.868       16.273      206.109      192.314      264.799        0.048        0.033       12.574       11.619        0.854      338.368       10.973      859.050
05/08/2014  07:03:00      -50.905        3.359        7.252       19.485       15.487       10.471      379.667      239.838      109.644        0.169        0.036       51.016       11.849        0.054      338.080       10.489      859.046
05/08/2014  07:04:00        8.666      -48.951        2.785       47.403       48.096       23.672     2247.055     2313.190      560.376        0.380        0.256       49.712       24.302        0.239      338.093       10.511      859.058
05/08/2014  07:05:00       19.154      -41.311       21.134       40.835       52.272       34.859     1667.457     2732.397     1215.161        0.407        0.281       45.535       32.508        0.510      338.305       10.866      859.067
05/08/2014  07:06:00       40.047      -14.915       23.324       47.791       52.205       46.919     2284.001     2725.409     2201.415        0.479        0.361       42.734       42.961        1.011      338.216       10.716      859.073
05/08/2014  07:07:00       -3.768      -19.436       42.597       44.405       41.125       32.499     1971.833     1691.260     1056.195        0.346        0.236       19.798       18.024        0.829      338.191       10.675      859.078
05/08/2014  07:08:00      -42.148        0.295       24.654       44.392       27.178       33.275     1970.606      738.646     1107.223        0.310        0.191       42.149       20.129        0.228      338.171       10.642      859.067
05/08/2014  07:09:00       17.620       -3.464       39.911       39.098       32.134       31.111     1528.629     1032.598      967.915        0.272        0.176       17.957       23.484        1.710      338.368       10.971      859.071
05/08/2014  07:10:00       25.030       21.941       41.986       33.500       29.203       28.622     1122.238      852.837      819.233        0.283        0.140       33.285       24.457        0.540      338.249       10.771      859.067
05/08/2014  07:11:00       17.112       17.114       43.107       41.123       65.828       49.766     1691.096     4333.380     2476.644        0.547        0.425       24.201       50.962        4.434      338.270       10.808      859.071
05/08/2014  07:12:00       46.848      -65.401        2.783       52.186       53.348       40.148     2723.382     2845.966     1611.858        0.683        0.359       80.449       35.517        0.195      338.283       10.828      859.073
05/08/2014  07:13:00       38.430      -54.280       -3.404       56.774       47.449       39.833     3223.265     2251.399     1586.639        0.575        0.353       66.507       34.956        0.276      338.254       10.781      859.073
05/08/2014  07:14:00       32.129      -21.081        9.123       52.663       43.414       42.444     2773.374     1884.804     1801.525        0.401        0.323       38.427       29.848        0.603      338.318       10.889      859.092
05/08/2014  07:15:00       24.242      -28.239       34.084       42.145       42.547       36.071     1776.194     1810.290     1301.133        0.372        0.244       37.217       34.152        0.842      338.528       11.240      859.092
05/08/2014  07:16:00       -7.862       -3.543       47.399       22.300       58.505       36.380      497.269     3422.888     1323.515        0.378        0.262        8.623       35.979       17.409      338.518       11.223      859.097
05/08/2014  07:17:00       -4.823       37.449       64.306       18.382       40.703       21.408      337.899     1656.765      458.292        0.401        0.123       37.758       11.372        0.091      338.459       11.125      859.094
05/08/2014  07:18:00       52.023      -75.685        9.101       40.078       67.362       33.045     1606.220     4537.585     1091.962        0.788        0.362       91.840       41.661        0.206      338.162       10.625      859.096
05/08/2014  07:19:00        4.875        8.740       19.576       16.342       25.774       16.337      267.066      664.283      266.911        0.084        0.060       10.008       11.208        1.254      338.273       10.814      859.110
05/08/2014  07:20:00       46.372      -23.613        6.316       36.325       35.057       25.983     1319.513     1229.015      675.124        0.299        0.161       52.038       28.325        0.296      338.310       10.875      859.113
05/08/2014  07:21:00       -6.897       -0.322       37.438       24.857       30.003       20.092      617.858      900.157      403.682        0.169        0.096        6.904       13.446        3.793      338.471       11.146      859.122
05/08/2014  07:22:00       -1.569       19.139       39.381       11.666       24.949       17.614      136.087      622.474      310.251        0.149        0.053       19.203       11.661        0.369      338.533       11.248      859.124
05/08/2014  07:23:00       -9.744      -11.825       25.997       23.227       29.398       27.334      539.473      864.261      747.171        0.153        0.108       15.322       25.828        2.841      338.568       11.307      859.137
05/08/2014  07:24:00        0.071      -47.397       -7.212       24.513       29.076       24.541      600.889      845.396      602.262        0.217        0.102       47.397        9.596        0.041      338.315       10.883      859.139
05/08/2014  07:25:00        2.918      -25.361       13.546       16.293       21.084       15.964      265.472      444.519      254.844        0.090        0.048       25.529       12.439        0.237      338.558       11.291      859.155
05/08/2014  07:26:00       16.317      -13.020       19.464       24.617       33.406       21.366      606.008     1115.953      456.500        0.150        0.109       20.875       16.066        0.592      338.642       11.433      859.159
05/08/2014  07:27:00       -0.381        0.320       30.914       16.181       25.736       13.848      261.836      662.345      191.780        0.104        0.056        0.497       11.306      516.776      338.793       11.685      859.153
05/08/2014  07:28:00       27.555      -44.484        8.456       32.367       38.154       25.248     1047.652     1455.756      637.455        0.297        0.157       52.327       23.660        0.204      338.475       11.152      859.157
05/08/2014  07:29:00       20.555      -27.927       13.839       23.255       30.004       27.325      540.787      900.224      746.647        0.179        0.109       34.676       22.872        0.435      338.702       11.533      859.138
05/08/2014  07:30:00       10.461       27.160       43.381       16.843       31.261       16.493      283.698      977.259      272.024        0.213        0.077       29.105       17.684        0.369      338.738       11.596      859.133
05/08/2014  07:31:00       31.088      -17.035       12.840       23.106       19.753       19.774      533.886      390.188      391.015        0.137        0.066       35.449       13.436        0.144      338.418       11.055      859.116
05/08/2014  07:32:00        4.590        7.885       26.144       15.929       28.530       18.090      253.738      813.970      327.234        0.108        0.070        9.123       16.981        3.464      338.742       11.600      859.111
05/08/2014  07:33:00        5.099      -10.460       14.991       21.952       26.127       21.254      481.897      682.601      451.712        0.099        0.081       11.637       14.623        1.579      338.655       11.455      859.095
05/08/2014  07:34:00       25.871       35.613       43.293       61.308       47.845       33.253     3758.672     2289.106     1105.762        0.548        0.358       44.018       26.673        0.367      338.520       11.227      859.087
05/08/2014  07:35:00       -0.848       31.227       33.652       67.392       40.297       29.104     4541.749     1623.833      847.023        0.456        0.351       31.238       16.839        0.291      338.470       11.143      859.081
05/08/2014  07:36:00       27.375      -33.857        8.687       46.357       58.963       30.464     2148.939     3476.612      928.033        0.426        0.328       43.540       28.545        0.430      338.626       11.406      859.088
05/08/2014  07:37:00       14.353        9.361       51.514       30.920       52.739       43.732      956.037     2781.394     1912.483        0.430        0.282       17.136       41.507        5.867      338.734       11.586      859.078
05/08/2014  07:38:00       20.274        8.615       45.422       25.158       45.559       26.305      632.907     2075.589      691.967        0.297        0.170       22.028       29.434        1.785      338.676       11.490      859.079
05/08/2014  07:39:00       -2.272       18.800       34.886       12.912       20.184       13.876      166.709      407.382      192.554        0.117        0.038       18.936        8.853        0.219      338.948       11.947      859.076
05/08/2014  07:40:00       -8.120      -37.511       21.342       23.683       42.483       20.472      560.904     1804.822      419.088        0.236        0.139       38.379       17.896        0.217      338.842       11.767      859.065
05/08/2014  07:41:00       54.472      -59.873       -9.050       33.604       27.324       18.134     1129.262      746.588      328.835        0.442        0.110       80.944       12.881        0.025      338.386       11.002      859.059
05/08/2014  07:42:00       14.468        2.763       -3.733       16.143       24.077       27.920      260.607      579.719      779.530        0.093        0.081       14.730       10.328        0.492      338.618       11.393      859.049
05/08/2014  07:43:00        2.080       -8.639       12.044       10.720       18.456       14.402      114.909      340.612      207.430        0.044        0.033        8.885        9.467        1.135      339.103       12.208      859.044
05/08/2014  07:44:00        1.845      -21.338        8.306       22.105       29.809       18.564      488.642      888.569      344.632        0.112        0.086       21.418        8.376        0.153      338.814       11.720      859.054
05/08/2014  07:45:00       -7.400      -13.607       27.249       26.505       22.550       18.434      702.521      508.486      339.800        0.127        0.078       15.489       14.569        0.885      339.338       12.603      859.066
05/08/2014  07:46:00      -46.122      -72.291        5.123       45.824       28.923       19.994     2099.833      836.528      399.753        0.536        0.167       85.751       20.308        0.056      338.699       11.527      859.092
05/08/2014  07:47:00      -80.527      -29.826       -4.872       37.497       29.746       15.547     1406.038      884.798      241.711        0.496        0.127       85.874       13.751        0.026      338.513       11.216      859.115
05/08/2014  07:48:00     -103.731      -34.953       -0.654       29.036       37.302       19.252      843.071     1391.443      370.642        0.729        0.130      109.461       17.444        0.025      338.614       11.385      859.139
05/08/2014  07:49:00      -33.262       -7.538        2.983       33.096       25.556       23.052     1095.353      653.119      531.396        0.173        0.114       34.105       20.630        0.366      339.011       12.052      859.148
05/08/2014  07:50:00      -10.908      -56.112       -0.485       17.988       31.178       14.743      323.562      972.085      217.365        0.239        0.076       57.163       12.835        0.050      338.735       11.590      859.164
05/08/2014  07:51:00      -19.017      -46.795       -8.536       29.848       51.143       21.958      890.880     2615.611      482.147        0.331        0.199       50.512       16.975        0.113      338.961       11.968      859.153
05/08/2014  07:52:00      -50.587      -37.833        2.548       50.648       48.703       24.250     2565.199     2371.983      588.051        0.476        0.276       63.169       21.973        0.121      338.988       12.015      859.153
05/08/2014  07:53:00      -45.249      -53.728       -9.911       31.930       55.186       24.232     1019.503     3045.469      587.179        0.484        0.233       70.244       12.764        0.033      338.723       11.569      859.161
05/08/2014  07:54:00        3.660      -12.707       -4.458       24.943       42.130       20.951      622.167     1774.946      438.962        0.151        0.142       13.224       19.703        2.220      339.086       12.179      859.163
05/08/2014  07:55:00      -21.869      -28.640       15.697       52.518       45.203       26.496     2758.176     2043.349      702.027        0.352        0.275       36.035       24.247        0.453      339.248       12.451      859.175
05/08/2014  07:56:00       -3.665      -47.153       21.306       30.038       42.180       28.422      902.254     1779.145      807.825        0.309        0.174       47.295       27.972        0.350      339.487       12.855      859.191
05/08/2014  07:57:00      -35.075      -31.894        6.453       37.720       38.451       28.314     1422.803     1478.471      801.663        0.300        0.185       47.408       29.078        0.376      339.329       12.589      859.191
05/08/2014  07:58:00      -34.493      -35.925       12.694       32.019       39.344       27.850     1025.224     1547.916      775.607        0.299        0.167       49.803       27.591        0.307      339.464       12.816      859.194
05/08/2014  07:59:00      -33.899      -43.628       10.813       29.651       45.954       27.754      879.206     2111.752      770.269        0.346        0.188       55.250       17.187        0.097      339.141       12.271      859.201
05/08/2014  08:00:00      -69.856      -76.271        3.967       38.538       71.051       30.875     1485.178     5048.176      953.295        0.910        0.374      103.427       38.757        0.140      339.083       12.174      859.223
05/08/2014  08:01:00      -65.843      -48.146      -13.813       14.763       15.017       15.330      217.955      225.499      235.005        0.376        0.034       81.568        6.452        0.006      338.744       11.604      859.248
05/08/2014  08:02:00      -24.100      -52.667        1.030       29.078       12.731       18.895      845.524      162.091      357.024        0.236        0.068       57.919       16.284        0.079      338.823       11.736      859.259
05/08/2014  08:03:00       -7.996      -42.269        5.973       27.824       36.893       23.643      774.169     1361.077      558.978        0.229        0.135       43.019       22.363        0.270      339.113       12.224      859.279
05/08/2014  08:04:00      -51.483      -87.384       10.082       37.691       61.877       28.944     1420.588     3828.723      837.767        0.824        0.304      101.423       38.934        0.147      339.078       12.167      859.292
05/08/2014  08:05:00      -27.663      -70.465       -9.775       37.091       44.743       26.083     1375.743     2001.943      680.313        0.494        0.203       75.700       16.971        0.050      339.032       12.089      859.289
05/08/2014  08:06:00      -45.123      -48.462       12.373       36.964       47.078       32.796     1366.318     2216.312     1075.602        0.460        0.233       66.217       17.915        0.073      339.179       12.335      859.279
05/08/2014  08:07:00       -6.457       -7.848       40.927       47.524       39.914       40.751     2258.530     1593.127     1660.636        0.364        0.276       10.163       28.917        8.096      339.534       12.933      859.260
05/08/2014  08:08:00      -36.601      -52.520        6.808       43.646       40.177       28.954     1904.979     1614.212      838.348        0.425        0.218       64.015       12.187        0.036      339.349       12.621      859.264
05/08/2014  08:09:00       -7.771       -4.203       29.816       34.434       29.682       24.561     1185.698      881.042      603.234        0.182        0.133        8.835       12.508        2.004      339.822       13.420      859.280
05/08/2014  08:10:00      -16.297      -45.333       18.034       45.895       38.903       26.889     2106.334     1513.445      723.006        0.349        0.217       48.174       23.460        0.237      339.547       12.955      859.300
05/08/2014  08:11:00      -34.229      -58.028       22.992       41.345       68.270       32.871     1709.402     4660.808     1080.527        0.626        0.373       67.371       28.426        0.178      339.610       13.063      859.316
05/08/2014  08:12:00      -29.350       12.177       10.235       43.355       37.342       29.599     1879.662     1394.423      876.129        0.263        0.208       31.775       14.316        0.203      339.290       12.522      859.326
05/08/2014  08:13:00      -21.171      -37.699       11.581       32.476       28.017       23.250     1054.683      784.934      540.586        0.219        0.119       43.237       19.614        0.206      339.237       12.433      859.341
05/08/2014  08:14:00      -35.806       -6.401       15.090       28.710       31.078       28.497      824.250      965.842      812.068        0.208        0.130       36.373       27.344        0.565      339.025       12.076      859.350
05/08/2014  08:15:00        4.189        0.496       27.543       23.852       46.832       34.359      568.915     2193.190     1180.572        0.236        0.197        4.218       28.233       44.796      339.483       12.847      859.344
05/08/2014  08:16:00       49.652      -58.916       11.389       42.327       50.927       40.347     1791.592     2593.576     1627.880        0.604        0.301       77.048       33.809        0.193      339.046       12.112      859.334
05/08/2014  08:17:00       63.766     -100.207      -10.398       42.221       48.126       32.130     1782.645     2316.105     1032.315        0.967        0.257      118.775       24.639        0.043      338.797       11.694      859.318
05/08/2014  08:18:00       51.105      -67.078       -7.838       42.467       63.683       32.986     1803.425     4055.557     1088.094        0.706        0.347       84.328       30.319        0.129      338.932       11.920      859.312
05/08/2014  08:19:00       -0.129      -35.653       15.548       38.621       40.077       16.695     1491.619     1606.182      278.716        0.244        0.169       35.653        6.918        0.038      339.337       12.602      859.308
05/08/2014  08:20:00      -48.276      -49.273       -0.483       18.220       29.794       13.330      331.966      887.704      177.691        0.308        0.070       68.981       13.303        0.037      338.955       11.957      859.312
05/08/2014  08:21:00      -18.172        5.653        9.285       14.397       15.290       13.147      207.287      233.776      172.835        0.053        0.031       19.031        8.564        0.203      339.056       12.129      859.301
05/08/2014  08:22:00      -25.073       17.786       12.271       20.146       13.226       20.746      405.872      174.927      430.380        0.105        0.051       30.741       13.886        0.204      339.212       12.391      859.295
05/08/2014  08:23:00      -11.581        1.907       11.785       32.302       24.050       17.986     1043.411      578.411      323.492        0.111        0.097       11.737       12.336        1.105      339.241       12.440      859.283
05/08/2014  08:24:00       21.397       40.704       37.749       25.201       29.129       25.876      635.069      848.496      669.589        0.285        0.108       45.986       10.972        0.057      339.392       12.693      859.276
05/08/2014  08:25:00        8.888       18.826       51.561       31.639       27.705       18.763     1001.028      767.580      352.046        0.261        0.106       20.818       14.664        0.496      339.523       12.915      859.274
05/08/2014  08:26:00       33.186        3.401       36.367       38.930       24.870       31.356     1515.513      618.492      983.182        0.278        0.156       33.359       11.160        0.112      339.332       12.592      859.285
05/08/2014  08:27:00       -7.537      -18.996        7.991       33.811       26.455       24.639     1143.199      699.845      607.065        0.147        0.123       20.437       13.623        0.444      339.424       12.749      859.296
05/08/2014  08:28:00      -10.141       -6.252       21.639       17.313       18.830       19.184      299.742      354.570      368.015        0.082        0.051       11.913       13.972        1.376      339.526       12.920      859.310
05/08/2014  08:29:00       12.630      -13.447       23.859       31.784       29.797       25.252     1010.236      887.851      637.686        0.172        0.127       18.448       16.165        0.768      339.356       12.633      859.311
05/08/2014  08:30:00       43.657       -8.143        9.477       54.684       40.035       34.399     2990.308     1602.797     1183.283        0.392        0.289       44.410       24.890        0.314      339.108       12.217      859.322
05/08/2014  08:31:00       28.937      -52.622        5.061       27.936       46.644       25.782      780.442     2175.665      664.688        0.363        0.181       60.053       22.290        0.138      339.085       12.176      859.340
05/08/2014  08:32:00       20.660       14.425       24.665       34.196       29.763       19.842     1169.346      885.812      393.699        0.185        0.122       25.198       11.342        0.203      339.397       12.702      859.343
05/08/2014  08:33:00       50.783      -32.351       20.882       28.448       71.240       32.287      809.271     5075.101     1042.451        0.549        0.346       60.212       38.481        0.408      339.170       12.319      859.353
05/08/2014  08:34:00       19.073       15.677       49.421       35.341       56.006       34.131     1249.011     3136.629     1164.942        0.430        0.278       24.689       37.385        2.293      339.241       12.442      859.367
05/08/2014  08:35:00       12.221       -9.660       49.226       40.591       44.002       27.583     1647.632     1936.174      760.833        0.350        0.217       15.577       27.995        3.230      339.256       12.465      859.379
05/08/2014  08:36:00       84.900      -52.841       12.397       66.667       45.756       43.697     4444.512     2093.612     1909.444        0.930        0.422      100.001       35.580        0.127      338.980       12.001      859.387
05/08/2014  08:37:00       44.230      -27.693       33.274       43.813       59.296       31.617     1919.566     3515.983      999.623        0.513        0.322       52.184       31.307        0.360      339.165       12.311      859.416
05/08/2014  08:38:00       53.420      -41.444       12.099       52.375       57.850       32.634     2743.191     3346.647     1064.951        0.593        0.358       67.611       27.683        0.168      339.027       12.079      859.451
05/08/2014  08:39:00       52.560      -25.588       16.439       55.178       47.841       25.476     3044.597     2288.777      649.005        0.483        0.299       58.458       28.982        0.246      339.042       12.104      859.476
05/08/2014  08:40:00       14.705       17.668       45.758       41.198       38.709       36.950     1697.273     1498.395     1365.333        0.359        0.228       22.987       27.759        1.458      339.302       12.541      859.472
05/08/2014  08:41:00       99.708       58.883       39.806       70.711       44.298       38.276     4999.976     1962.280     1465.030        1.171        0.421      115.797       42.322        0.134      339.138       12.266      859.475
05/08/2014  08:42:00       75.228       51.824       29.367       68.794       35.128       28.479     4732.629     1234.008      811.059        0.799        0.339       91.351       22.889        0.063      339.147       12.281      859.468
05/08/2014  08:43:00       70.887       87.494       75.370       68.774       40.035       27.957     4729.834     1602.775      781.607        1.274        0.356      112.606       22.055        0.038      339.129       12.251      859.445
05/08/2014  08:44:00       -2.297      -13.391       36.133       20.930       46.194       32.045      438.082     2133.923     1026.905        0.254        0.180       13.586       28.794        4.492      339.302       12.542      859.426
05/08/2014  08:45:00       89.555     -143.570      -33.759       51.492       57.414       32.563     2651.474     3296.354     1060.327        1.839        0.350      169.211       30.574        0.033      339.189       12.351      859.405
05/08/2014  08:46:00       95.465     -142.718      -28.703       69.013       57.589       41.860     4762.816     3316.532     1752.225        2.007        0.492      171.703       28.893        0.028      339.193       12.357      859.386
05/08/2014  08:47:00      117.011      -80.233       -0.226       44.490       60.021       41.503     1979.367     3602.486     1722.470        1.372        0.365      141.876       40.075        0.080      339.156       12.297      859.382
05/08/2014  08:48:00       56.509      -65.570        8.173       47.826       79.381       44.012     2287.348     6301.285     1937.039        0.904        0.526       86.561       49.568        0.328      339.276       12.499      859.378
05/08/2014  08:49:00       65.665      -47.344       26.057       53.942       68.571       43.696     2909.727     4702.006     1909.329        0.837        0.476       80.953       35.229        0.189      339.401       12.708      859.373
05/08/2014  08:50:00      103.066      -81.348       12.624       48.680       48.870       47.691     2369.781     2388.318     2274.463        1.221        0.352      131.302       20.159        0.024      339.006       12.045      859.382
05/08/2014  08:51:00       32.746        9.810       47.971       45.739       38.094       37.547     2092.102     1451.122     1409.775        0.421        0.248       34.184       26.478        0.600      339.377       12.670      859.396
05/08/2014  08:52:00       -3.257      -39.082       19.365       24.827       65.341       36.054      616.397     4269.396     1299.917        0.405        0.309       39.218       39.878        1.034      339.498       12.874      859.417
05/08/2014  08:53:00       -8.328      -68.638       -3.200       30.774       35.625       25.942      947.011     1269.141      673.000        0.384        0.144       69.142       12.910        0.035      339.359       12.639      859.437
05/08/2014  08:54:00       16.838      -89.865       -9.910       25.571       23.508       18.314      653.893      552.634      335.387        0.500        0.077       91.428        8.243        0.008      339.429       12.756      859.463
05/08/2014  08:55:00       57.482      -56.930       -3.593       32.017       42.761       22.315     1025.091     1828.537      497.959        0.495        0.168       80.902       20.487        0.064      339.309       12.554      859.478
05/08/2014  08:56:00       47.113      -49.722        2.076       51.496       62.188       32.154     2651.806     3867.350     1033.860        0.612        0.378       68.498       29.179        0.181      339.415       12.732      859.475
05/08/2014  08:57:00       -6.407      -33.082       13.230       36.200       46.412       26.287     1310.429     2154.066      690.983        0.273        0.208       33.697       13.180        0.153      339.471       12.826      859.483
05/08/2014  08:58:00      -12.240        8.877        2.411       34.323       27.127       18.010     1178.076      735.879      324.355        0.124        0.112       15.120       14.281        0.892      339.509       12.892      859.490
05/08/2014  08:59:00       13.917      -15.943       10.845       23.167       34.326       16.426      536.707     1178.274      269.809        0.127        0.099       21.162       19.662        0.863      339.591       13.028      859.496
05/08/2014  09:00:00       43.135      -41.715       -4.678       23.845       25.612       23.387      568.564      655.977      546.962        0.270        0.089       60.007       18.079        0.091      339.328       12.585      859.492
05/08/2014  09:01:00       23.494      -36.968       33.443       33.691       63.123       44.770     1135.072     3984.504     2004.328        0.508        0.356       43.802       31.387        0.513      339.783       13.353      859.475
05/08/2014  09:02:00       24.342      -13.012       33.646       46.136       36.420       24.508     2128.547     1326.397      600.655        0.297        0.203       27.602       18.730        0.460      339.679       13.178      859.468
05/08/2014  09:03:00      -22.097       19.340        9.799       24.874       17.394       21.307      618.728      302.567      454.006        0.117        0.069       29.365       12.652        0.186      339.499       12.874      859.460
05/08/2014  09:04:00        2.362       13.727        1.424       21.341       21.874       15.478      455.439      478.487      239.569        0.068        0.059       13.929       12.661        0.826      339.742       13.285      859.456
05/08/2014  09:05:00        1.301        1.853       22.370       27.817       36.326       17.588      773.808     1319.605      309.342        0.145        0.120        2.264       20.644       83.138      339.873       13.504      859.455
05/08/2014  09:06:00       28.304      -15.802       -1.136       21.418       23.426       15.378      458.735      548.780      236.492        0.115        0.062       32.416       10.129        0.098      339.685       13.187      859.457
05/08/2014  09:07:00      -29.726       -0.982      -11.508       17.547       10.067       14.469      307.903      101.342      209.342        0.082        0.031       29.742        3.620        0.015      339.611       13.063      859.451
05/08/2014  09:08:00      -17.312      -12.845       -7.784       29.724       20.883       16.222      883.492      436.109      263.153        0.105        0.079       21.557       10.820        0.252      339.809       13.396      859.423
05/08/2014  09:09:00      -31.433      -24.558      -14.248       36.154       23.701       23.529     1307.090      561.726      553.595        0.211        0.121       39.889       22.640        0.322      339.576       13.005      859.396
05/08/2014  09:10:00        9.699      -34.856        9.811       28.996       54.379       27.485      840.761     2957.061      755.427        0.298        0.228       36.181       21.623        0.357      339.988       13.699      859.371
05/08/2014  09:11:00       62.183      -21.673       24.446       49.163       37.725       28.695     2416.959     1423.140      823.396        0.480        0.233       65.852       20.764        0.099      339.620       13.078      859.349
05/08/2014  09:12:00       71.209      -70.971        4.369       69.955       89.179       49.242     4893.696     7952.898     2424.745        1.270        0.764      100.537       60.321        0.360      339.686       13.188      859.315
05/08/2014  09:13:00       62.808      -61.081       14.920       50.391       41.860       39.317     2539.227     1752.240     1545.845        0.687        0.292       87.611       28.938        0.109      339.675       13.171      859.293
05/08/2014  09:14:00       37.211      -28.192       26.335       58.624       50.904       44.262     3436.753     2591.202     1959.158        0.543        0.399       46.685       37.342        0.640      339.897       13.545      859.286
05/08/2014  09:15:00       33.128      -56.459       35.010       48.864       78.405       49.436     2387.725     6147.340     2443.943        0.824        0.549       65.460       42.841        0.428      339.833       13.438      859.296
05/08/2014  09:16:00        7.271       30.237       64.531       25.970       40.772       24.836      674.443     1662.331      616.836        0.404        0.148       31.099       20.305        0.426      339.953       13.640      859.307
05/08/2014  09:17:00       22.135       -5.363       45.849       46.155       41.822       29.127     2130.243     1749.041      848.374        0.367        0.236       22.775       18.403        0.653      339.934       13.609      859.310
05/08/2014  09:18:00       80.294      -53.672        3.796       58.097       55.255       49.551     3375.223     3053.088     2455.309        0.911        0.444       96.581       47.660        0.244      339.688       13.192      859.325
05/08/2014  09:19:00       29.248      -15.883       40.786       46.304       51.852       32.922     2144.039     2688.645     1083.851        0.434        0.296       33.282       31.202        0.879      339.891       13.537      859.337
05/08/2014  09:20:00       30.176      -80.891       25.827       48.203       72.334       37.627     2323.484     5232.195     1415.820        0.854        0.449       86.336       44.620        0.267      340.031       13.771      859.339
05/08/2014  09:21:00       97.639      -93.733       -1.857       85.024      102.681       53.240     7229.148    10543.349     2834.524        1.946        1.030      135.349       65.259        0.232      339.788       13.360      859.329
05/08/2014  09:22:00       28.028      -58.412       24.981       51.728       71.840       53.787     2675.772     5160.976     2893.025        0.777        0.536       64.789       35.387        0.298      339.842       13.451      859.334
05/08/2014  09:23:00       47.441       -9.671       33.798       30.396       36.000       32.468      923.889     1295.984     1054.172        0.338        0.164       48.417       20.027        0.171      339.779       13.345      859.327
05/08/2014  09:24:00       54.855      -30.807        7.169       53.283       62.955       40.773     2839.113     3963.350     1662.475        0.624        0.423       62.914       38.110        0.367      339.714       13.237      859.314
05/08/2014  09:25:00       22.857        0.908       31.776       29.910       34.566       25.521      894.604     1194.836      651.336        0.214        0.137       22.875       15.521        0.460      339.862       13.486      859.321
05/08/2014  09:26:00       52.445       -5.989       21.022       36.697       29.032       25.024     1346.658      842.832      626.206        0.302        0.141       52.786       21.866        0.172      339.804       13.388      859.324
05/08/2014  09:27:00       27.022      -41.584       26.760       37.303       58.474       35.334     1391.483     3419.196     1248.475        0.462        0.303       49.592       31.393        0.401      340.007       13.731      859.325
05/08/2014  09:28:00       17.795      -44.311       31.587       32.080       64.992       26.899     1029.142     4224.006      723.537        0.463        0.299       47.751       27.948        0.343      340.092       13.874      859.307
05/08/2014  09:29:00       33.454      -25.991       26.770       46.549       55.053       33.822     2166.826     3030.839     1143.935        0.443        0.317       42.364       23.537        0.309      339.767       13.325      859.286
05/08/2014  09:30:00       35.576       20.216       34.585       36.858       35.213       28.073     1358.494     1239.952      788.092        0.313        0.169       40.918       16.116        0.155      339.928       13.597      859.285
05/08/2014  09:31:00       -7.637      -58.297      -12.918       32.243       28.363       20.536     1039.639      804.432      421.746        0.294        0.113       58.795       10.989        0.035      339.738       13.277      859.281
05/08/2014  09:32:00      -17.875      -44.705       -6.003       34.422       29.292       26.964     1184.840      858.050      727.047        0.256        0.138       48.147        9.113        0.036      339.928       13.598      859.277
05/08/2014  09:33:00      -27.768      -33.351       12.438       35.294       30.487       19.760     1245.679      929.460      390.469        0.230        0.128       43.398       15.013        0.120      340.007       13.731      859.272
05/08/2014  09:34:00      -65.733      -27.987        5.606       16.606       43.424       16.857      275.764     1885.681      284.173        0.379        0.122       71.443       15.207        0.045      339.668       13.159      859.275
05/08/2014  09:35:00        5.870        9.337        8.912       26.350       22.693       21.299      694.340      514.982      453.633        0.093        0.083       11.029       15.193        1.898      340.117       13.918      859.273
05/08/2014  09:36:00       52.476       32.431       19.173       21.439       19.808       25.721      459.651      392.355      661.581        0.284        0.076       61.689       14.946        0.059      339.869       13.499      859.271
05/08/2014  09:37:00       14.121       28.911        8.893       28.057       22.762       26.272      787.176      518.128      690.216        0.155        0.100       32.176       14.070        0.191      339.765       13.323      859.267
05/08/2014  09:38:00       10.623       16.686       14.831       30.718       19.544       19.660      943.597      381.983      386.502        0.116        0.086       19.780       10.568        0.285      340.028       13.767      859.289
05/08/2014  09:39:00      -56.667        6.949        1.850       30.258       23.087       17.739      915.570      533.021      314.669        0.251        0.088       57.092        7.108        0.015      339.970       13.668      859.305
05/08/2014  09:40:00      -69.719      -15.608       -2.586       42.446       23.268       19.104     1801.648      541.389      364.965        0.391        0.135       71.445       16.558        0.054      339.984       13.692      859.308
05/08/2014  09:41:00      -49.433      -25.138       -2.070       28.831       18.435       15.334      831.235      339.844      235.140        0.224        0.070       55.458       11.794        0.045      340.143       13.960      859.315
05/08/2014  09:42:00      -18.721      -22.642        3.210       22.219       23.090       27.070      493.680      533.132      732.794        0.132        0.088       29.379       18.621        0.402      340.177       14.020      859.325
05/08/2014  09:43:00      -30.154       -7.308        8.953       30.448       19.934       29.309      927.059      397.365      859.039        0.161        0.109       31.027       20.628        0.442      340.176       14.017      859.325
05/08/2014  09:44:00      -23.803        8.811        8.973       41.312       15.726       22.858     1706.674      247.292      522.485        0.160        0.124       25.382       14.946        0.347      340.224       14.098      859.336
05/08/2014  09:45:00      -13.885      -31.949        4.967       25.494       23.991       21.516      649.958      575.583      462.946        0.146        0.084       34.836       11.313        0.105      340.153       13.977      859.351
05/08/2014  09:46:00      -34.358      -50.334        0.185       40.832       41.887       19.740     1667.250     1754.535      389.657        0.376        0.191       60.942       10.310        0.029      340.141       13.956      859.354
05/08/2014  09:47:00       37.363      -24.479       20.592       49.179       60.077       38.906     2418.614     3609.244     1513.669        0.498        0.377       44.668       42.730        0.915      340.157       13.984      859.356
05/08/2014  09:48:00       -8.850       47.023       66.483       18.416       34.066       29.551      339.134     1160.485      873.277        0.454        0.119       47.849       20.472        0.183      340.115       13.912      859.354
05/08/2014  09:49:00      -11.169      -29.619       10.437       38.136       45.552       28.239     1454.357     2074.979      797.423        0.272        0.216       31.655       30.777        0.945      340.252       14.144      859.334
05/08/2014  09:50:00        9.014       -1.343       46.326       37.765       30.513       23.090     1426.185      931.049      533.130        0.256        0.145        9.114       16.567        3.304      340.454       14.485      859.327
05/08/2014  09:51:00       18.896      -29.622       25.711       40.164       66.318       45.877     1613.149     4398.065     2104.703        0.500        0.406       35.135       47.162        1.802      340.120       13.921      859.319
05/08/2014  09:52:00      -13.151      -28.560       18.348       45.977       28.220       25.474     2113.870      796.355      648.922        0.244        0.178       31.443       22.501        0.512      340.460       14.496      859.325
05/08/2014  09:53:00        5.043      -80.810       -2.319       38.794       36.039       27.320     1504.980     1298.783      746.382        0.505        0.178       80.967       16.152        0.040      340.410       14.411      859.314
05/08/2014  09:54:00       50.174      -33.420       27.344       53.418       63.011       41.368     2853.487     3970.411     1711.342        0.646        0.427       60.285       45.769        0.576      340.551       14.651      859.325
05/08/2014  09:55:00       11.815      -51.075       32.685       44.621       67.753       47.615     1990.992     4590.428     2267.178        0.633        0.442       52.424       31.110        0.352      340.441       14.462      859.316
05/08/2014  09:56:00       27.908       -4.949       76.384       47.658       79.666       58.107     2271.326     6346.619     3376.383        0.931        0.600       28.343       52.266        3.400      340.186       14.034      859.312
05/08/2014  09:57:00       62.108      -14.657       34.381       52.966       54.705       47.816     2805.410     2992.607     2286.383        0.667        0.404       63.814       44.860        0.494      340.030       13.770      859.344
05/08/2014  09:58:00       52.201      -10.900       23.484       30.635       33.229       31.438      938.493     1104.169      988.362        0.321        0.152       53.327       27.319        0.262      339.977       13.680      859.352
05/08/2014  09:59:00       15.769       42.709       63.824       39.308       48.330       36.367     1545.154     2335.787     1322.579        0.567        0.260       45.527       27.781        0.372      340.222       14.093      859.373
05/08/2014  10:00:00       40.698      -20.743       62.271       66.097       89.007       57.854     4368.808     7922.172     3347.118        1.080        0.782       45.680       50.547        1.224      340.248       14.137      859.376
05/08/2014  10:01:00       86.393      -92.506       12.609       85.174      111.579       76.370     7254.552    12449.969     5832.386        2.085        1.277      126.574       81.840        0.418      340.239       14.122      859.393
05/08/2014  10:02:00       42.470      -39.430       42.388       59.302       83.660       71.546     3516.720     6998.951     5118.812        1.039        0.782       57.952       62.500        1.163      340.125       13.931      859.410
05/08/2014  10:03:00       32.988      -38.880        6.691       41.660       79.502       42.613     1735.586     6320.498     1815.889        0.626        0.494       50.988       45.413        0.793      340.401       14.396      859.430
05/08/2014  10:04:00       27.559        8.967       34.908       25.753       25.801       25.756      663.204      665.692      663.371        0.202        0.100       28.981       17.247        0.354      340.385       14.369      859.442
05/08/2014  10:05:00       22.424      -98.792       12.637       51.267       90.564       33.880     2628.301     8201.798     1147.842        1.120        0.599      101.305       44.577        0.194      340.188       14.035      859.443
05/08/2014  10:06:00       32.986      -98.032       14.927       52.172      102.732       45.488     2721.884    10553.812     2069.168        1.313        0.767      103.432       42.249        0.167      340.558       14.661      859.456
05/08/2014  10:07:00       97.032      -65.883       16.012       45.251       73.686       38.355     2047.609     5429.662     1471.128        1.148        0.447      117.285       38.982        0.110      339.908       13.564      859.502
05/08/2014  10:08:00       26.003       -4.143        0.707       27.479       50.741       30.665      755.081     2574.636      940.333        0.248        0.214       26.331       29.138        1.225      340.175       14.014      859.527
05/08/2014  10:09:00       29.154      -46.793        8.509       42.476       42.293       23.805     1804.203     1788.687      566.685        0.363        0.208       55.132       20.943        0.144      340.393       14.381      859.560
05/08/2014  10:10:00       92.808      -79.430      -14.837       45.584       57.662       27.640     2077.902     3324.858      763.961        1.065        0.308      122.157       26.413        0.047      339.959       13.650      859.562
05/08/2014  10:11:00       50.449       40.106       12.389       40.932       37.869       41.015     1675.401     1434.068     1682.216        0.455        0.240       64.448       26.099        0.164      340.097       13.884      859.554
05/08/2014  10:12:00       35.976      -23.763       20.276       37.776       47.143       28.873     1427.030     2222.508      833.630        0.338        0.224       43.115       14.806        0.118      340.145       13.964      859.520
05/08/2014  10:13:00      121.868       75.092       22.678       60.789       40.925       42.349     3695.277     1674.877     1793.399        1.408        0.358      143.145       26.368        0.034      340.087       13.866      859.509
05/08/2014  10:14:00       40.699       23.836       29.834       27.129       44.241       41.768      735.968     1957.243     1744.567        0.378        0.222       47.166       34.056        0.521      340.107       13.899      859.484
05/08/2014  10:15:00      108.375       87.211       70.760       62.605       46.631       50.903     3919.403     2174.478     2591.106        1.652        0.434      139.107       31.036        0.050      340.142       13.957      859.451
05/08/2014  10:16:00       47.331       76.509       97.268       54.531       67.156       56.236     2973.597     4509.907     3162.520        1.410        0.532       89.966       40.552        0.203      340.175       14.013      859.433
05/08/2014  10:17:00       62.807      -11.990       23.249       78.982       40.595       24.730     6238.228     1647.960      611.580        0.656        0.425       63.941       26.961        0.178      340.264       14.165      859.394
05/08/2014  10:18:00       56.461      -18.687       26.834       76.391       79.799       54.108     5835.602     6367.803     2927.705        0.969        0.757       59.473       61.132        1.057      340.329       14.273      859.365
05/08/2014  10:19:00      166.201      102.941       32.680       66.697       45.420       52.227     4448.488     2062.978     2727.658        2.426        0.462      195.498       27.333        0.020      340.456       14.486      859.340
05/08/2014  10:20:00      295.031      178.428       22.190       84.227       58.118       56.116     7094.268     3377.701     3149.006        6.649        0.681      344.790       42.323        0.015      340.107       13.894      859.304
05/08/2014  10:21:00      246.637      105.840       36.786       90.453       75.831       62.169     8181.755     5750.398     3865.030        4.559        0.890      268.388       45.146        0.028      340.139       13.950      859.287
05/08/2014  10:22:00      122.000       52.387       30.364       97.670       77.633       58.601     9539.479     6026.922     3434.095        1.877        0.950      132.772       46.639        0.123      340.401       14.394      859.272
05/08/2014  10:23:00      105.761      109.816       78.614       64.848       55.709       54.409     4205.231     3103.542     2960.359        1.985        0.513      152.463       35.455        0.054      340.505       14.570      859.288
05/08/2014  10:24:00       41.211       87.836       83.540       72.840       56.378       47.680     5305.625     3178.442     2273.396        1.357        0.538       97.024       41.988        0.187      340.427       14.440      859.304
05/08/2014  10:25:00      117.155       64.920       13.942       79.069       52.001       40.277     6251.971     2704.145     1622.205        1.435        0.529      133.940       16.078        0.014      340.362       14.329      859.320
05/08/2014  10:26:00       42.240       45.478       49.950       41.695       35.643       28.435     1738.464     1270.436      808.536        0.508        0.191       62.068       12.015        0.037      340.176       14.015      859.339
05/08/2014  10:27:00        1.700       16.396       26.438       16.525       34.000       18.511      273.082     1155.998      342.649        0.137        0.089       16.483       16.521        1.005      340.569       14.681      859.358
05/08/2014  10:28:00       42.493       59.209        6.437       54.554       47.255       28.847     2976.112     2233.049      832.178        0.570        0.302       72.879       21.258        0.085      340.451       14.480      859.353
05/08/2014  10:29:00      114.334       79.018       18.037       45.810       40.752       35.098     2098.590     1660.714     1231.867        1.232        0.250      138.982       28.103        0.041      340.267       14.170      859.332
05/08/2014  10:30:00       75.481       89.663        0.119       73.822       59.339       40.433     5449.749     3521.098     1634.837        1.217        0.530      117.204       36.383        0.096      340.467       14.507      859.314
05/08/2014  10:31:00       60.294      109.320       -5.666       56.907       52.084       34.475     3238.403     2712.730     1188.495        1.138        0.357      124.845       34.017        0.074      340.436       14.455      859.300
05/08/2014  10:32:00      171.593       81.375       39.170       75.319       54.079       59.676     5672.951     2924.565     3561.263        2.488        0.608      189.910       28.411        0.022      340.499       14.559      859.282
05/08/2014  10:33:00      181.513       92.233       18.766      111.467       80.510       57.395    12424.980     6481.928     3294.214        3.200        1.110      203.602       38.362        0.036      340.258       14.151      859.255
05/08/2014  10:34:00      121.094       62.990       -2.079       58.923       72.584       39.267     3471.951     5268.488     1541.886        1.446        0.514      136.498       17.352        0.016      340.408       14.408      859.237
05/08/2014  10:35:00       66.722      -23.655        3.172       61.109       62.680       29.702     3734.287     3928.777      882.195        0.678        0.427       70.791       21.434        0.092      340.392       14.382      859.252
05/08/2014  10:36:00      137.073       79.732       38.034       46.946       32.600       33.885     2203.965     1062.747     1148.169        1.550        0.221      158.575       22.656        0.020      340.274       14.182      859.262
05/08/2014  10:37:00      130.924      108.058       70.067       75.157       66.518       49.982     5648.613     4424.679     2498.159        2.315        0.629      169.758       34.858        0.042      340.502       14.566      859.238
05/08/2014  10:38:00      166.666      118.845       54.397       49.226       46.285       49.226     2423.203     2142.296     2423.186        2.592        0.349      204.699       23.249        0.013      340.258       14.151      859.234
05/08/2014  10:39:00       52.981       15.722        7.992       55.440       78.033       38.804     3073.584     6089.120     1505.754        0.689        0.533       55.264       28.271        0.262      340.501       14.566      859.231
05/08/2014  10:40:00       83.426      -80.093        1.513       54.425       70.797       49.429     2962.070     5012.216     2443.228        1.190        0.521      115.649       46.509        0.162      340.449       14.477      859.218
05/08/2014  10:41:00      110.904     -141.219      -15.865       46.561       68.972       43.527     2167.882     4757.175     1894.611        2.066        0.441      179.562       32.798        0.033      340.637       14.794      859.205
05/08/2014  10:42:00      125.289     -146.325      -14.541       88.837      121.139       65.183     7891.985    14674.769     4248.865        3.206        1.341      192.636       76.994        0.160      340.624       14.771      859.172
05/08/2014  10:43:00      116.513     -170.782      -12.267       84.268       98.262       59.412     7101.171     9655.369     3529.807        3.159        1.014      206.741       56.256        0.074      340.529       14.610      859.160
05/08/2014  10:44:00      134.943     -172.644      -11.425       94.901      108.867       65.602     9006.228    11851.948     4303.678        3.665        1.258      219.124       72.051        0.108      340.534       14.618      859.148
05/08/2014  10:45:00       90.451      -41.663       55.151       77.024      106.267       72.981     5932.666    11292.696     5326.236        1.775        1.128       99.585       77.559        0.607      340.596       14.724      859.151
05/08/2014  10:46:00      112.937       -4.823       80.221       87.673       92.130       62.354     7686.608     8487.901     3888.019        1.963        1.003      113.040       56.909        0.253      340.670       14.849      859.116
05/08/2014  10:47:00      114.902       69.388       73.827      102.631       63.159       52.452    10533.215     3989.046     2751.234        2.037        0.864      134.228       41.673        0.096      340.545       14.638      859.125
05/08/2014  10:48:00       32.511      -14.838       50.464       90.320       87.580       59.578     8157.768     7670.270     3549.586        1.160        0.969       35.737       57.344        2.575      340.864       15.179      859.127
05/08/2014  10:49:00      164.113      -23.289       65.657      146.270      115.200       70.831    21394.865    13271.023     5017.061        3.573        1.984      165.757       82.277        0.246      340.614       14.754      859.110
05/08/2014  10:50:00       65.625      -77.855       63.285       97.285      160.982       79.113     9464.310    25915.142     6258.941        2.800        2.082      101.824       94.806        0.867      340.804       15.074      859.119
05/08/2014  10:51:00      179.490     -301.298       -9.283       98.508      110.524       50.528     9703.839    12215.475     2553.050        7.377        1.224      350.710       56.475        0.026      340.596       14.723      859.121
05/08/2014  10:52:00      149.963     -270.029      -37.919      117.547      136.467       63.545    13817.242    18623.279     4037.950        6.665        1.824      308.877       51.588        0.028      340.665       14.840      859.099
05/08/2014  10:53:00       41.238      -70.049       31.124       56.538      113.892       49.036     3196.557    12971.338     2404.553        1.307        0.929       81.286       37.277        0.210      340.783       15.042      859.107
05/08/2014  10:54:00       60.117       19.156       41.384       68.617       85.055       67.666     4708.306     7234.329     4578.720        1.110        0.826       63.095       58.297        0.854      340.822       15.107      859.116
05/08/2014  10:55:00       74.053     -120.766        7.014       61.973       84.448       49.186     3840.632     7131.483     2419.229        1.675        0.670      141.663       47.460        0.112      340.955       15.331      859.136
05/08/2014  10:56:00       17.359      -12.522       45.074       53.086       77.336       29.655     2818.146     5980.863      879.401        0.608        0.484       21.404       29.855        1.945      341.212       15.768      859.156
05/08/2014  10:57:00       54.301      -81.978       15.596       67.293       86.298       43.420     4528.307     7447.393     1885.269        1.188        0.693       98.331       49.175        0.250      340.914       15.263      859.187
05/08/2014  10:58:00       28.083       29.802       29.795       42.384       68.862       34.918     1796.382     4742.005     1219.254        0.516        0.388       40.949       15.028        0.135      340.934       15.299      859.198
05/08/2014  10:59:00        8.760      -58.105       -1.667       33.968       21.549       21.544     1153.831      464.375      464.137        0.277        0.104       58.761       12.252        0.043      341.344       15.992      859.204
05/08/2014  11:00:00       56.174      -71.276        8.942       58.229       67.948       47.817     3390.656     4616.989     2286.485        0.930        0.515       90.751       48.452        0.285      341.200       15.747      859.197
05/08/2014  11:01:00       21.523       12.841       51.010       35.266       48.926       35.288     1243.700     2393.778     1245.261        0.406        0.244       25.063       20.183        0.649      341.390       16.070      859.179
05/08/2014  11:02:00       69.994      -28.753       13.682       40.878       44.466       26.556     1671.033     1977.256      705.220        0.513        0.218       75.670       18.395        0.059      340.739       14.967      859.181
05/08/2014  11:03:00       48.722        2.378       20.399       46.269       42.978       29.884     2140.853     1847.090      893.037        0.384        0.244       48.780       29.730        0.371      341.385       16.061      859.191
05/08/2014  11:04:00       63.008       55.922       47.093       49.885       53.397       35.929     2488.486     2851.196     1290.858        0.797        0.332       84.245       23.481        0.078      341.440       16.154      859.193
05/08/2014  11:05:00        1.093      -16.051        9.436       16.031       21.326       22.748      257.001      454.779      517.468        0.079        0.061       16.088       11.769        0.535      341.694       16.586      859.240
05/08/2014  11:06:00       -7.793      -28.950       10.181       63.750       42.157       39.308     4064.099     1777.224     1545.120        0.419        0.369       29.981       22.618        0.569      341.554       16.348      859.261
05/08/2014  11:07:00        8.883       94.023      106.610       44.857      111.301       70.429     2012.146    12387.872     4960.187        1.982        0.968       94.442       70.183        0.552      341.464       16.195      859.191
05/08/2014  11:08:00       58.675      -59.422       23.058       67.028       70.161       54.743     4492.746     4922.511     2996.830        0.996        0.621       83.509       42.772        0.262      341.470       16.205      859.148
05/08/2014  11:09:00       52.617      -91.994        8.467       43.267       59.262       33.831     1871.997     3511.986     1144.545        0.891        0.326      105.979       33.156        0.098      341.674       16.550      859.183
05/08/2014  11:10:00       52.087     -115.589       -9.607      149.206      109.347       69.373    22262.521    11956.666     4812.561        2.759        1.952      126.782       59.130        0.218      341.502       16.257      859.153
05/08/2014  11:11:00     -178.482      -50.802       19.459      163.547      114.920       72.532    26747.473    13206.676     5260.960        4.001        2.261      185.571       78.483        0.179      341.890       16.914      859.130
05/08/2014  11:12:00     -156.382     -133.920       -7.202      145.690      119.553       57.871    21225.676    14292.923     3349.041        4.065        1.943      205.889       32.995        0.026      341.627       16.469      859.120
05/08/2014  11:13:00     -123.677     -170.174       -0.717      112.364      127.711       58.305    12625.558    16309.982     3399.486        3.829        1.617      210.370       54.573        0.067      341.700       16.593      859.133
05/08/2014  11:14:00     -131.562     -172.541       16.376      108.767      114.199       69.528    11830.219    13041.392     4834.146        3.852        1.485      216.977       63.051        0.084      341.679       16.557      859.107
05/08/2014  11:15:00     -260.965     -232.181        4.401      158.558      115.295       71.808    25140.674    13292.935     5156.360        8.280        2.179      349.300       75.432        0.047      341.654       16.515      859.087
05/08/2014  11:16:00     -376.895     -223.691      -15.511      186.021      130.445       80.385    34603.716    17015.825     6461.807       12.519        2.904      438.278       94.476        0.046      341.328       15.961      859.055
05/08/2014  11:17:00     -442.338     -122.501      -30.720      242.163      121.435       74.940    58642.679    14746.342     5615.963       14.529        3.950      458.988       76.947        0.028      341.585       16.396      859.007
05/08/2014  11:18:00     -422.318     -139.228      -13.298      151.532      138.849       71.427    22961.945    19279.177     5101.857       12.262        2.367      444.676       68.832        0.024      341.593       16.411      859.007
05/08/2014  11:19:00     -416.351     -168.942      -10.017      272.103      199.736       94.813    74040.103    39894.522     8989.540       16.243        6.146      449.322      110.537        0.061      341.498       16.248      858.979
05/08/2014  11:20:00     -461.595     -246.838      -24.121      210.875      171.957       75.930    44468.141    29569.051     5765.387       17.718        3.990      523.449       79.002        0.023      341.389       16.064      858.983
05/08/2014  11:21:00      -93.961      -46.695       49.996      144.930      147.462       63.870    21004.597    21744.925     4079.425        3.016        2.341      104.924       59.015        0.316      341.865       16.872      858.992
05/08/2014  11:22:00     -287.677     -169.146       13.961      199.863      156.168       84.376    39945.057    24388.571     7119.283        9.149        3.573      333.719       93.574        0.079      341.715       16.619      859.005
05/08/2014  11:23:00     -326.873     -198.001        4.610      257.564      156.825      107.584    66338.985    24594.010    11574.225       12.427        5.125      382.165      132.854        0.121      341.715       16.616      859.014
05/08/2014  11:24:00     -306.703     -234.251       -3.285      228.709      245.669       99.344    52307.806    60353.225     9869.251       13.572        6.127      385.928      108.248        0.079      341.495       16.244      859.040
05/08/2014  11:25:00     -282.756     -218.974        2.834      209.491      185.434       90.476    43886.607    34385.835     8185.917       10.717        4.323      357.632      101.848        0.081      341.361       16.017      859.044
05/08/2014  11:26:00     -428.748     -271.549       -7.099      238.536      176.513       96.411    56899.424    31156.810     9295.131       17.746        4.868      507.508      124.006        0.060      341.197       15.739      859.029
05/08/2014  11:27:00     -385.724     -330.487        0.863      231.325      193.489      112.985    53511.335    37437.848    12765.582       18.084        5.186      507.942      111.718        0.048      341.085       15.551      859.052
05/08/2014  11:28:00     -411.937     -246.704      -16.003      281.343      181.465      120.802    79153.849    32929.464    14593.154       17.872        6.334      480.162      139.545        0.084      341.183       15.715      859.054
05/08/2014  11:29:00     -438.088     -214.815        2.251      271.702      196.263      115.153    73821.904    38519.200    13260.294       18.181        6.280      487.921      145.173        0.089      341.231       15.798      859.066
05/08/2014  11:30:00     -488.380     -199.498       -9.115      260.471      196.762      106.604    67844.901    38715.262    11364.487       19.814        5.896      527.555      114.766        0.047      341.216       15.771      859.050
05/08/2014  11:31:00     -523.114     -222.298       -7.523      281.148      205.437      108.288    79044.110    42204.298    11726.210       22.802        6.649      568.387      116.740        0.042      341.095       15.565      859.079
05/08/2014  11:32:00     -314.562     -276.731        3.389      218.171      176.208      118.620    47598.755    31049.376    14070.620       13.411        4.636      418.963      124.248        0.088      341.150       15.660      859.069
05/08/2014  11:33:00     -379.380     -126.246       -5.242      294.326      179.905      108.218    86627.799    32365.698    11711.126       14.527        6.535      399.834      136.873        0.117      341.273       15.868      859.091
05/08/2014  11:34:00     -428.976     -123.986       -3.954      233.367      201.713      100.712    54459.946    40687.936    10143.007       15.233        5.265      446.534      102.809        0.053      341.289       15.895      859.081
05/08/2014  11:35:00     -318.669     -236.793       11.190      221.726      175.919       92.441    49162.628    30947.400     8545.278       12.318        4.433      397.015       78.106        0.039      341.255       15.838      859.108
05/08/2014  11:36:00     -399.929     -271.769      -12.309      229.150      195.900      103.908    52509.614    38376.618    10796.924       16.780        5.084      483.530      120.617        0.062      341.187       15.723      859.115
05/08/2014  11:37:00     -457.236     -285.670       -4.578      288.516      233.625      127.336    83241.470    54580.802    16214.546       22.233        7.702      539.140      153.654        0.081      341.128       15.623      859.094
05/08/2014  11:38:00     -504.655     -219.623      -13.646      281.668      180.798       95.791    79337.089    32687.823     9175.949       21.212        6.060      550.373      115.486        0.044      341.057       15.502      859.129
05/08/2014  11:39:00     -510.082     -281.061       -8.072      243.283      161.252       97.036    59186.534    26002.216     9415.890       21.691        4.730      582.391       92.010        0.025      341.101       15.577      859.119
05/08/2014  11:40:00     -421.542     -287.338       -6.812      252.923      177.754      113.535    63969.920    31596.512    12890.177       18.436        5.423      510.158      121.678        0.057      341.081       15.543      859.122
05/08/2014  11:41:00     -428.203     -224.632       -7.544      198.084      201.525       97.085    39237.305    40612.273     9425.469       16.156        4.464      483.547      100.764        0.043      341.135       15.634      859.154
05/08/2014  11:42:00     -205.648     -154.030        8.764      198.677      158.174       73.439    39472.554    25018.976     5393.270        6.797        3.494      256.937       93.243        0.132      341.289       15.897      859.152
05/08/2014  11:43:00     -132.381      -63.268       -0.153      115.572       97.290       73.304    13356.850     9465.260     5373.496        2.486        1.410      146.723       53.744        0.134      341.549       16.336      859.169
05/08/2014  11:44:00     -446.169     -184.115       -9.680      262.849      194.940       91.195    69089.643    38001.580     8316.504       17.421        5.770      482.665      116.062        0.058      341.282       15.883      859.165
05/08/2014  11:45:00     -585.064     -136.874       -8.371      287.766      174.218      115.683    82809.304    30351.857    13382.630       24.380        6.327      600.861      142.510        0.056      341.009       15.422      859.134
05/08/2014  11:46:00     -449.700     -216.262       -1.381      210.931      163.919      112.356    44491.759    26869.518    12623.922       16.648        4.199      498.998      124.625        0.062      340.913       15.259      859.150
05/08/2014  11:47:00     -455.290     -231.324      -19.257      170.071      193.778       88.621    28924.216    37549.723     7853.618       16.773        3.716      510.686       81.782        0.026      340.983       15.377      859.147
05/08/2014  11:48:00     -296.779      -86.176        5.896      204.150      151.346       79.515    41677.056    22905.469     6322.589        8.321        3.545      309.037      101.950        0.109      341.083       15.546      859.155
05/08/2014  11:49:00     -197.509     -193.794        5.312      152.942      154.724       66.066    23391.121    23939.388     4364.761        6.413        2.585      276.705       75.589        0.075      341.144       15.649      859.129
05/08/2014  11:50:00     -208.587      -27.134        7.086      192.933      116.729       62.147    37223.298    13625.657     3862.282        4.949        2.736      210.345       87.204        0.172      341.224       15.786      859.112
05/08/2014  11:51:00     -243.771     -135.234        5.638      208.459      145.945       84.822    43455.287    21299.817     7194.751        7.483        3.597      278.770       96.813        0.121      341.201       15.746      859.111
05/08/2014  11:52:00     -443.909     -180.791      -25.023      207.516      191.210       92.780    43063.091    36561.263     8608.129       15.928        4.412      479.313       97.987        0.042      341.102       15.579      859.113
05/08/2014  11:53:00     -369.374     -262.365      -11.312      259.052      181.937      108.064    67108.126    33101.095    11677.898       15.862        5.594      453.070      136.083        0.090      341.156       15.671      859.103
05/08/2014  11:54:00     -348.046     -214.359       -4.017      210.650      155.396       99.361    44373.264    24147.773     9872.705       12.273        3.920      408.761      109.081        0.071      341.166       15.687      859.093
05/08/2014  11:55:00     -531.201      -51.746      -37.021      207.780      143.503       96.664    43172.619    20593.131     9343.917       17.965        3.655      533.715      108.272        0.041      341.021       15.441      859.082
05/08/2014  11:56:00     -167.332      -62.720       17.868      140.263      100.082       70.139    19673.607    10016.399     4919.476        3.342        1.730      178.700       75.520        0.179      341.374       16.041      859.094
05/08/2014  11:57:00     -186.668      -48.200       16.543      140.877       98.426       70.416    19846.237     9687.704     4958.349        3.596        1.725      192.791       76.550        0.158      341.390       16.068      859.060
05/08/2014  11:58:00     -179.039     -133.721       12.460      197.507      165.756       86.945    39008.984    27475.212     7559.362        6.205        3.702      223.465       97.496        0.190      341.326       15.959      859.030
05/08/2014  11:59:00     -467.274     -246.280      -21.096      161.194      137.581       83.288    25983.439    18928.574     6936.943       16.564        2.592      528.203       85.335        0.026      341.073       15.529      859.037
05/08/2014  12:00:00     -211.676        9.487       12.739      160.354      122.210       76.319    25713.451    14935.249     5824.645        4.576        2.324      211.889       83.552        0.155      341.093       15.565      859.022
05/08/2014  12:01:00     -292.847      -33.691       -8.659      114.471      116.713       68.613    13103.595    13621.986     4707.686        5.920        1.572      294.779       63.940        0.047      341.176       15.704      859.021
05/08/2014  12:02:00     -293.905      -36.259        0.592      152.258      143.129       69.062    23182.416    20485.916     4769.525        6.806        2.422      296.134       74.307        0.063      341.343       15.986      859.008
05/08/2014  12:03:00     -285.552     -114.463        8.569      182.218      175.184      101.376    33203.469    30689.593    10277.004        8.443        3.709      307.638      105.094        0.117      341.295       15.905      858.969
05/08/2014  12:04:00     -639.440     -159.609      -32.327      240.754      240.626      102.709    57962.274    57901.026    10549.196       28.088        6.321      659.058      118.955        0.033      341.130       15.626      858.926
05/08/2014  12:05:00     -384.151     -189.260        2.193      211.426      149.330       94.172    44701.002    22299.479     8868.381       12.962        3.793      428.242      107.081        0.063      341.262       15.849      858.990
05/08/2014  12:06:00     -401.410     -206.574        2.740      210.059      136.307       86.045    44124.830    18579.466     7403.691       13.695        3.505      451.446       85.736        0.036      341.103       15.580      858.998
05/08/2014  12:07:00     -401.012     -263.377      -11.701      213.615      171.312      100.543    45631.330    29347.713    10108.953       15.768        4.254      479.769      119.521        0.062      341.103       15.580      858.998
05/08/2014  12:08:00     -260.815     -195.549       -0.727      135.928      147.968       66.093    18476.315    21894.420     4368.279        7.549        2.237      325.982       68.918        0.045      341.181       15.710      858.995
05/08/2014  12:09:00     -260.541     -129.750        7.064      132.306      105.432       77.995    17504.903    11115.868     6083.294        5.973        1.735      291.061       70.767        0.059      341.205       15.753      858.951
05/08/2014  12:10:00     -263.339      -16.297        1.744      185.980       89.069       63.178    34588.609     7933.237     3991.433        5.806        2.326      263.843       81.298        0.095      341.299       15.913      858.934
05/08/2014  12:11:00     -435.151     -147.962      -20.954      180.892      131.976       80.820    32722.056    17417.660     6531.926       13.417        2.834      459.618       76.044        0.027      341.304       15.920      858.914
05/08/2014  12:12:00     -429.976     -143.858      -17.374      233.497      144.581       86.320    54520.856    20903.698     7451.208       14.436        4.144      453.404      111.996        0.061      341.307       15.925      858.920
05/08/2014  12:13:00     -281.504     -204.070       -4.410      162.353      150.531       66.344    26358.463    22659.515     4401.544        8.715        2.671      347.691       76.237        0.048      341.314       15.938      858.889
05/08/2014  12:14:00     -329.565      -86.071        0.387      165.667      156.323       71.357    27445.707    24436.925     5091.839        8.649        2.849      340.619       77.072        0.051      341.312       15.934      858.873
05/08/2014  12:15:00     -408.804      -52.861      -10.366      254.749      156.490       86.097    64897.114    24488.978     7412.694       13.339        4.840      412.207      106.326        0.067      341.408       16.098      858.850
05/08/2014  12:16:00     -307.279     -203.458       -3.314      203.030      140.891       94.096    41221.272    19850.227     8854.035       10.286        3.496      368.532      100.328        0.074      341.380       16.049      858.916
05/08/2014  12:17:00     -341.551     -260.609       -8.159      182.152      153.237       89.108    33179.371    23481.457     7940.309       12.461        3.230      429.621       79.776        0.034      341.342       15.984      858.911
05/08/2014  12:18:00     -248.224     -137.315       15.339      145.035      119.475       69.454    21035.014    14274.323     4823.903        6.041        2.007      283.673       68.486        0.058      341.367       16.028      858.892
05/08/2014  12:19:00     -228.417      -78.126        8.717      133.568      117.805       63.245    17840.445    13877.956     3999.903        4.703        1.786      241.409       67.579        0.078      341.370       16.031      858.883
05/08/2014  12:20:00     -245.298     -196.649        9.084      167.497      124.286       78.593    28055.408    15446.949     6176.932        7.429        2.484      314.391       90.950        0.084      341.426       16.126      858.891
05/08/2014  12:21:00     -264.684     -264.473        4.769      175.304      138.070       73.995    30731.609    19063.212     5475.289        9.764        2.764      374.171       83.648        0.050      341.392       16.067      858.875
05/08/2014  12:22:00     -302.783     -216.448      -15.634      172.518      111.311       68.346    29762.325    12390.118     4671.145        9.279        2.341      372.192       75.668        0.041      341.365       16.025      858.841
05/08/2014  12:23:00     -426.224     -245.948      -10.167      209.870      155.918       89.300    44045.586    24310.511     7974.490       15.928        3.817      492.095       98.525        0.040      341.338       15.978      858.838
05/08/2014  12:24:00     -299.150      -95.239      -15.519      138.438      132.196       67.909    19165.082    17475.676     4611.622        7.002        2.063      313.944       77.773        0.061      341.367       16.027      858.830
05/08/2014  12:25:00     -244.277     -240.235      -23.955      160.243      161.651       65.069    25677.720    26130.939     4234.031        8.699        2.802      342.614       73.199        0.046      341.413       16.105      858.831
05/08/2014  12:26:00     -377.744     -219.418      -18.529      203.895      122.961       77.724    41573.346    15119.414     6041.073       12.694        3.137      436.846       87.455        0.040      341.592       16.409      858.789
05/08/2014  12:27:00     -134.537      -69.226       10.861      123.389       77.876       51.154    15224.729     6064.658     2616.732        2.345        1.195      151.303       62.341        0.170      341.822       16.800      858.800
05/08/2014  12:28:00     -291.528      -86.137       -4.471      126.364      111.092       62.019    15967.973    12341.429     3846.401        6.229        1.608      303.987       57.017        0.035      341.755       16.684      858.790
05/08/2014  12:29:00     -319.070      -14.274       -4.714      154.036      118.524       74.382    23727.232    14047.865     5532.612        7.266        2.165      319.390       71.128        0.050      341.741       16.662      858.801
05/08/2014  12:30:00     -296.602      -88.872       -9.545      118.926      123.912       59.403    14143.502    15354.077     3528.749        6.449        1.651      309.630       51.267        0.027      341.708       16.605      858.789
05/08/2014  12:31:00     -173.502     -142.284       12.434      139.123      156.601       47.795    19355.214    24523.823     2284.340        4.832        2.308      224.383       64.664        0.083      341.808       16.775      858.766
05/08/2014  12:32:00     -118.921     -173.402       -6.717      162.341       96.191       61.410    26354.684     9252.805     3771.220        4.181        1.969      210.263       64.913        0.095      341.911       16.951      858.793
05/08/2014  12:33:00     -414.394     -213.625       -3.192      235.556      157.483       91.381    55486.789    24800.986     8350.569       15.299        4.432      466.217      100.879        0.047      341.662       16.527      858.776
05/08/2014  12:34:00     -439.385     -211.959      -17.175      220.751      200.146       91.926    48731.118    40058.595     8450.381       16.774        4.862      487.838       93.935        0.037      341.612       16.441      858.746
05/08/2014  12:35:00     -404.374     -253.121      -12.396      190.703      156.841       80.028    36367.513    24599.190     6404.495       14.754        3.369      477.063       99.117        0.043      341.539       16.319      858.753
05/08/2014  12:36:00     -354.185     -168.403      -19.075      170.991      168.101       84.390    29238.023    28258.070     7121.662       10.938        3.231      392.181       87.758        0.050      341.726       16.633      858.715
05/08/2014  12:37:00     -351.772     -248.618      -23.663      141.516       90.816       58.988    20026.902     8247.595     3479.630       10.893        1.588      430.760       61.897        0.021      341.759       16.691      858.721
05/08/2014  12:38:00     -324.425     -248.607       -3.886      206.886      144.408       81.497    42801.622    20853.663     6641.839       11.867        3.515      408.727       87.137        0.045      341.873       16.885      858.718
05/08/2014  12:39:00     -366.465     -305.719        9.970      232.518      169.739      102.192    54064.793    28811.313    10443.173       16.057        4.666      477.243      130.947        0.075      341.802       16.764      858.687
05/08/2014  12:40:00     -370.868     -326.514       -5.825      236.107      170.307      102.128    55746.322    29004.438    10430.159       16.967        4.759      494.120      115.315        0.054      341.651       16.508      858.695
05/08/2014  12:41:00     -273.831     -168.004       12.532      176.811      157.740       88.268    31262.052    24882.016     7791.277        8.364        3.197      321.262      105.187        0.107      341.891       16.916      858.712
05/08/2014  12:42:00     -204.785     -194.267       11.994      191.163      155.870       75.914    36543.196    24295.341     5762.919        7.320        3.330      282.270       81.082        0.083      341.750       16.677      858.723
05/08/2014  12:43:00     -175.160     -113.243       12.248      173.032      116.772       80.785    29940.200    13635.786     6526.285        4.687        2.505      208.579       97.504        0.219      341.801       16.764      858.711
05/08/2014  12:44:00     -346.543     -225.429        0.775      179.393      133.227       79.202    32181.831    17749.560     6272.909       11.355        2.810      413.412       86.317        0.044      341.738       16.656      858.696
05/08/2014  12:45:00     -319.435     -269.380        0.305      169.226      155.970       94.371    28637.376    24326.547     8905.922       11.822        3.093      417.857       89.340        0.046      341.833       16.817      858.676
05/08/2014  12:46:00     -344.939     -236.243       -6.517      170.823      151.452       78.188    29180.359    22937.618     6113.299       11.652        2.912      418.084       60.041        0.021      341.824       16.802      858.669
05/08/2014  12:47:00     -351.110     -127.599       -7.250      145.037      168.413       74.690    21035.793    28362.783     5578.625        9.728        2.749      373.577       58.321        0.024      341.841       16.830      858.690
05/08/2014  12:48:00     -398.046     -210.130       -7.313      258.741      185.144       83.730    66946.860    34278.200     7010.743       15.542        5.412      450.105      110.338        0.060      341.811       16.781      858.680
05/08/2014  12:49:00     -206.060     -265.324       14.026      187.700      272.860       72.915    35231.375    74452.579     5316.560       11.400        5.750      335.943       56.954        0.029      341.708       16.605      858.660
05/08/2014  12:50:00     -291.954     -211.691       -1.562      147.358      148.523       69.290    21714.359    22059.058     4801.150        8.930        2.429      360.625       62.359        0.030      341.857       16.856      858.644
05/08/2014  12:51:00     -435.132     -188.093       -4.553      228.264      157.874       77.092    52104.558    24924.045     5943.142       15.384        4.149      474.046       95.049        0.040      341.953       17.019      858.612
05/08/2014  12:52:00     -429.052     -212.682      -22.756      203.234      180.882       80.408    41303.867    32718.302     6465.459       15.515        4.024      478.873       93.195        0.038      341.681       16.559      858.582
05/08/2014  12:53:00     -295.660     -118.615        1.024      154.010      137.758       72.560    23718.929    18977.254     5264.891        7.471        2.398      318.566       80.804        0.064      341.944       17.006      858.534
05/08/2014  12:54:00     -426.794     -114.536      -27.284      192.011      152.406       79.099    36868.073    23227.582     6256.661       13.117        3.318      441.896       79.690        0.033      341.941       17.000      858.524
05/08/2014  12:55:00     -319.130     -112.777        1.260      222.251      177.225       85.483    49395.706    31408.743     7307.294       10.132        4.406      338.471      106.831        0.100      342.096       17.262      858.477
05/08/2014  12:56:00     -441.181     -319.015       -9.381      232.487      210.195      103.926    54050.103    44181.879    10800.624       20.274        5.452      544.436      100.568        0.034      341.696       16.586      858.458
05/08/2014  12:57:00     -304.670     -339.350       16.077      215.498      191.281      116.228    46439.220    36588.436    13509.050       15.237        4.827      456.051      132.945        0.085      341.799       16.759      858.420
05/08/2014  12:58:00     -332.736     -281.148       10.341      230.294      191.712       99.008    53035.112    36753.430     9802.510       14.471        4.980      435.611      112.936        0.067      341.846       16.839      858.444
05/08/2014  12:59:00     -404.683     -162.709        9.933      279.417      232.112      120.884    78073.781    53875.827    14613.033       16.842        7.328      436.168      140.625        0.104      341.792       16.748      858.429
05/08/2014  13:00:00     -564.398     -164.136      -24.753      225.005      169.647      100.216    50627.091    28780.054    10043.184       21.776        4.473      587.780      114.911        0.038      341.645       16.498      858.431
05/08/2014  13:01:00     -321.626     -122.097       -8.852      194.358      165.638       91.235    37775.151    27436.107     8323.800        9.597        3.677      344.022      107.247        0.097      341.749       16.673      858.445
05/08/2014  13:02:00     -394.430      -94.249      -12.112      195.367      156.487       89.393    38168.324    24488.335     7991.048       11.761        3.532      405.534       92.491        0.052      341.856       16.855      858.425
05/08/2014  13:03:00     -323.246     -142.027       -5.509      192.848      192.671       87.963    37190.443    37122.086     7737.561       10.335        4.103      353.071       77.707        0.048      341.890       16.912      858.458
05/08/2014  13:04:00     -374.568     -198.996       11.053      211.381      173.056       92.674    44682.099    29948.480     8588.391       13.160        4.161      424.147      107.743        0.065      341.941       17.002      858.422
05/08/2014  13:05:00     -264.285     -121.707       17.311      219.293      167.623       70.591    48089.265    28097.425     4983.026        8.305        4.058      290.963       86.306        0.088      342.165       17.380      858.371
05/08/2014  13:06:00     -289.119     -122.379       -5.357      159.960      167.506       68.290    25587.245    28058.392     4663.558        7.844        2.915      313.953       52.926        0.028      342.035       17.158      858.372
05/08/2014  13:07:00     -505.970     -105.580      -16.450      266.312      182.011      101.493    70922.005    33127.964    10300.755       19.086        5.718      516.868      126.828        0.060      342.100       17.270      858.351
05/08/2014  13:08:00     -411.251     -252.089       -3.573      249.242      172.278      106.601    62121.813    29679.852    11363.717       16.791        5.158      482.365      127.032        0.069      342.075       17.228      858.366
05/08/2014  13:09:00     -409.681     -380.112       -4.418      274.239      186.294      104.560    75206.854    34705.576    10932.781       21.657        6.042      558.860      116.794        0.044      341.776       16.720      858.375
05/08/2014  13:10:00     -444.092     -292.530      -17.031      203.166      192.482       88.515    41276.459    37049.429     7834.871       18.460        4.308      531.782       90.376        0.029      341.856       16.854      858.354
05/08/2014  13:11:00     -494.566     -325.615       -7.202      230.109      185.580      104.036    52950.000    34439.887    10823.559       22.442        4.911      592.132      113.685        0.037      341.910       16.947      858.301
05/08/2014  13:12:00     -524.409     -377.757       -5.844      268.287      223.632      120.603    71977.825    50011.139    14545.043       27.711        6.827      646.301      115.036        0.032      341.699       16.590      858.305
05/08/2014  13:13:00     -465.957     -351.179       -4.487      194.870      157.931      105.520    37974.159    24942.047    11134.528       20.724        3.703      583.474      107.247        0.034      341.819       16.793      858.311
05/08/2014  13:14:00     -320.178     -217.015       -4.571      232.844      155.738       88.548    54216.300    24254.244     7840.794       11.795        4.316      386.794      106.599        0.076      342.122       17.307      858.331
05/08/2014  13:15:00     -328.790     -195.586       -5.667      159.529      146.335       74.380    25449.424    21413.805     5532.391        9.938        2.620      382.566       69.566        0.033      342.022       17.137      858.322
05/08/2014  13:16:00     -377.472     -138.892       12.598      232.893      216.585       93.956    54239.154    46908.940     8827.670       13.593        5.499      402.214      101.116        0.063      342.120       17.304      858.291
05/08/2014  13:17:00     -370.675     -273.117        7.529      259.115      245.424      135.896    67140.583    60233.011    18467.776       17.892        7.292      460.427      163.522        0.126      341.963       17.037      858.305
05/08/2014  13:18:00     -383.195     -323.198      -26.386      273.752      192.263       96.752    74940.351    36964.954     9360.977       18.660        6.063      501.294      116.092        0.054      342.006       17.112      858.307
05/08/2014  13:19:00     -401.813     -239.862      -15.245      209.847      151.738       75.614    44035.622    23024.425     5717.484       14.598        3.639      467.961       75.086        0.026      342.158       17.368      858.325
05/08/2014  13:20:00     -464.243     -291.535        8.562      269.151      211.451      108.831    72442.461    44711.592    11844.128       21.477        6.450      548.192      125.168        0.052      342.000       17.100      858.295
05/08/2014  13:21:00     -492.066     -253.676        5.044      249.879      214.074      124.501    62439.279    45827.634    15500.452       21.511        6.188      553.607      146.215        0.070      341.995       17.091      858.300
05/08/2014  13:22:00     -376.160      -97.192       13.097      168.775      158.858       92.043    28484.985    25235.772     8471.849       10.664        3.110      388.513       89.668        0.053      342.190       17.423      858.308
05/08/2014  13:23:00     -228.329     -133.836        0.908      195.778      131.161       71.868    38328.987    17203.134     5164.984        6.536        3.035      264.662       71.194        0.072      342.136       17.331      858.292
05/08/2014  13:24:00     -412.413     -221.903        6.321      209.942      171.916       98.588    44075.649    29555.128     9719.665       15.134        4.168      468.322      106.211        0.051      342.268       17.555      858.275
05/08/2014  13:25:00     -447.723     -259.457       -6.861      253.363      188.123      107.253    64192.754    35390.449    11503.128       18.943        5.554      517.469      111.952        0.047      342.216       17.468      858.323
05/08/2014  13:26:00     -422.508     -270.779      -11.183      213.605      223.433      105.027    45626.965    49922.471    11030.608       17.925        5.329      501.831      103.288        0.042      342.187       17.419      858.356
05/08/2014  13:27:00     -564.787     -139.875      -36.933      144.012      117.113       71.276    20739.534    13715.503     5080.218       18.972        1.977      581.850       71.445        0.015      341.748       16.673      858.370
05/08/2014  13:28:00     -256.277     -205.308        2.140      166.801      143.912       94.529    27822.662    20710.609     8935.725        8.264        2.873      328.374       94.487        0.083      342.237       17.502      858.362
05/08/2014  13:29:00     -392.165     -243.785      -14.365      266.592      193.838      113.044    71071.251    37573.172    12779.001       16.740        6.071      461.763      119.124        0.067      342.159       17.372      858.390
05/08/2014  13:30:00     -352.048     -102.377      -19.577      222.086      193.956       81.400    49321.974    37619.084     6625.890       11.417        4.678      366.632       80.031        0.048      342.204       17.448      858.387
05/08/2014  13:31:00     -213.861     -183.186        5.909      178.802      146.346       68.823    31970.179    21417.058     4736.547        6.871        2.906      281.592       71.025        0.064      342.351       17.697      858.367
05/08/2014  13:32:00     -441.750     -199.760        5.965      237.126      204.036      106.518    56228.714    41630.615    11346.106       17.212        5.460      484.816      109.946        0.051      342.266       17.551      858.349
05/08/2014  13:33:00     -418.827     -321.187       -7.015      218.435      182.119      102.982    47714.041    33167.186    10605.368       18.504        4.574      527.804      112.439        0.045      342.095       17.262      858.365
05/08/2014  13:34:00     -442.528     -229.476        2.069      243.357      168.634      102.166    59222.791    28437.345    10437.820       17.328        4.905      498.488      113.226        0.052      342.062       17.206      858.338
05/08/2014  13:35:00     -460.337     -175.383       -7.098      247.514      145.113      111.055    61263.193    21057.886    12333.208       16.867        4.733      492.615      109.923        0.050      342.186       17.416      858.325
05/08/2014  13:36:00     -333.385     -182.626      -12.595      190.523      128.684       65.398    36299.039    16559.543     4276.839       10.088        2.857      380.129       64.023        0.028      342.345       17.686      858.384
05/08/2014  13:37:00     -510.334     -111.199      -28.134      227.892      144.538       92.783    51934.538    20891.172     8608.612       17.750        4.072      522.308      109.261        0.044      342.193       17.427      858.381
05/08/2014  13:38:00     -319.902     -224.617       -1.966      298.060      182.066      111.830    88839.964    33147.869    12505.874       14.362        6.725      390.884      138.300        0.125      342.300       17.611      858.354
05/08/2014  13:39:00     -397.972     -284.789       -5.301      266.770      199.206      107.154    71166.409    39682.995    11482.043       18.090        6.117      489.374      117.419        0.058      342.223       17.479      858.380
05/08/2014  13:40:00     -436.507     -220.300       -7.486      256.309      231.224      110.609    65694.550    53464.737    12234.338       18.523        6.570      488.948      132.157        0.073      342.076       17.229      858.390
05/08/2014  13:41:00     -420.228     -293.674       -4.408      257.614      161.759      104.879    66364.999    26165.977    10999.533       18.317        5.177      512.676      101.669        0.039      342.130       17.322      858.383
05/08/2014  13:42:00     -495.873     -324.618      -28.622      181.403      174.878       91.982    32906.897    30582.466     8460.628       21.200        3.597      592.677       88.590        0.022      342.113       17.292      858.402
05/08/2014  13:43:00     -274.430     -225.684       -2.859      243.046      184.982      105.699    59071.244    34218.313    11172.294       11.534        5.223      355.310      101.386        0.081      342.240       17.508      858.396
05/08/2014  13:44:00     -420.523     -237.240      -11.775      236.490      190.018      105.048    55927.649    36106.963    11035.048       16.814        5.153      482.827      110.376        0.052      342.051       17.187      858.400
05/08/2014  13:45:00     -386.422     -161.152      -10.189      217.662      135.928       90.910    47376.690    18476.377     8264.703       12.474        3.706      418.679      101.930        0.059      342.206       17.450      858.435
05/08/2014  13:46:00     -411.941     -214.263       -4.496      237.854      218.581       93.121    56574.685    47777.484     8671.454       16.430        5.651      464.332      112.751        0.059      342.017       17.129      858.479
05/08/2014  13:47:00     -559.129     -341.579      -23.982      237.512      209.253      114.067    56411.900    43786.620    13011.284       27.152        5.660      655.211      120.435        0.034      341.700       16.591      858.419
05/08/2014  13:48:00     -540.621     -301.581       -2.719      227.888      207.877      103.829    51932.786    43212.899    10780.537       24.456        5.296      619.049      103.692        0.028      341.887       16.909      858.423
05/08/2014  13:49:00     -377.950     -179.571       16.177      226.628      165.055       99.550    51360.261    27243.041     9910.262       13.192        4.426      418.440       92.835        0.049      342.055       17.194      858.463
05/08/2014  13:50:00     -459.559     -308.382       -0.991      289.694      250.014      131.667    83922.352    62506.792    17336.155       23.500        8.188      553.438      149.085        0.073      341.886       16.907      858.489
05/08/2014  13:51:00     -578.375     -392.010      -15.367      278.817      230.715      121.936    77739.015    53229.323    14868.350       31.710        7.292      698.706      128.045        0.034      341.674       16.547      858.469
05/08/2014  13:52:00     -689.754     -469.677      -27.168      307.401      281.112      131.170    94495.105    79023.966    17205.617       44.387        9.536      834.480      154.224        0.034      341.493       16.241      858.519
05/08/2014  13:53:00     -406.957     -337.162       13.091      250.127      206.289      126.773    62563.298    42555.236    16071.434       20.030        6.059      528.481      136.326        0.067      341.626       16.466      858.540
05/08/2014  13:54:00     -339.896     -267.681      -13.593      221.444      161.476       96.010    49037.607    26074.403     9217.832       13.583        4.216      432.645      100.937        0.054      341.696       16.584      858.572
05/08/2014  13:55:00     -359.935     -193.633       -7.116      209.816      149.160       81.187    44022.680    22248.716     6591.328       11.997        3.643      408.714       99.575        0.059      341.837       16.823      858.595
05/08/2014  13:56:00     -393.416     -209.845       -6.671      245.812      164.781       94.282    60423.686    27152.858     8889.170       14.764        4.823      445.883      115.789        0.067      341.867       16.874      858.624
05/08/2014  13:57:00     -334.465     -157.913      -12.286      199.078      190.149       89.508    39632.051    36156.609     8011.630       11.036        4.190      369.870       88.719        0.058      342.003       17.104      858.627
05/08/2014  13:58:00     -341.176     -134.241        2.103      248.348      147.793       80.718    61676.955    21842.918     6515.407       11.221        4.502      366.636      110.623        0.091      342.013       17.124      858.616
05/08/2014  13:59:00     -447.377     -334.506       -8.234      336.196      224.217      118.112   113027.957    50273.385    13950.421       24.464        8.863      558.606      135.393        0.059      341.742       16.662      858.577
05/08/2014  14:00:00     -533.588     -327.012      -15.539      287.696      305.238      132.187    82768.855    93170.416    17473.323       29.262        9.671      625.822      143.675        0.053      341.594       16.411      858.592
05/08/2014  14:01:00     -559.715     -241.096       -6.234      343.404      256.327      112.722   117926.605    65703.488    12706.281       28.385        9.817      609.432      119.438        0.038      341.480       16.219      858.544
05/08/2014  14:02:00     -487.108     -237.852       -9.627      207.248      168.856       94.587    42951.870    28512.204     8946.769       18.716        4.021      542.077      104.924        0.037      341.695       16.583      858.546
05/08/2014  14:03:00     -578.711     -270.022       -9.038      290.255      238.913      112.857    84247.675    57079.440    12736.645       28.095        7.703      638.606      140.064        0.048      341.627       16.468      858.532
05/08/2014  14:04:00     -420.877     -214.762       24.094      320.589      237.973      107.715   102777.434    56630.970    11602.585       19.739        8.551      472.504      143.535        0.092      341.810       16.779      858.483
05/08/2014  14:05:00     -448.149     -234.117       -7.962      267.465      272.606      113.640    71537.313    74314.102    12914.026       20.721        7.938      505.617      140.493        0.077      341.696       16.586      858.500
05/08/2014  14:06:00     -418.276     -257.235       -0.661      215.045      217.040       90.601    46244.358    47106.227     8208.552       17.132        5.078      491.044       83.243        0.029      341.908       16.945      858.501
05/08/2014  14:07:00     -495.363     -276.712       -4.556      286.354      211.129      109.987    81998.430    44575.572    12097.137       23.029        6.934      567.410      129.164        0.052      341.688       16.571      858.535
05/08/2014  14:08:00     -402.207     -198.734       -3.886      238.029      164.475      103.158    56657.827    27051.983    10641.527       14.780        4.718      448.627      112.513        0.063      341.795       16.753      858.527
05/08/2014  14:09:00     -541.823     -284.294      -11.283      311.871      262.756      124.487    97263.487    69040.679    15496.914       27.813        9.090      611.878      148.023        0.059      341.577       16.383      858.507
05/08/2014  14:10:00     -556.054     -354.928      -26.304      307.782      198.333      121.484    94729.638    39336.164    14758.338       29.231        7.441      659.675      143.918        0.048      341.536       16.314      858.498
05/08/2014  14:11:00     -533.765     -303.618       -4.304      319.894      268.637      119.476   102331.883    72165.861    14274.606       28.290        9.439      614.076      153.794        0.063      341.524       16.292      858.503
05/08/2014  14:12:00     -577.782     -367.585      -12.584      277.089      222.757      113.450    76778.240    49620.718    12870.852       30.416        6.963      684.800      124.565        0.033      341.459       16.181      858.474
05/08/2014  14:13:00     -535.867     -344.493        5.871      301.581      249.944      135.068    90951.047    62471.756    18243.314       28.873        8.583      637.047      138.884        0.048      341.420       16.116      858.529
05/08/2014  14:14:00     -342.844     -193.908       -3.589      280.530      243.554      104.098    78697.309    59318.452    10836.380       15.197        7.443      393.881      131.284        0.111      341.459       16.183      858.527
05/08/2014  14:15:00     -479.603     -409.068      -12.358      256.843      228.290      116.039    65968.309    52116.305    13465.119       26.450        6.577      630.361      128.092        0.041      341.461       16.185      858.552
05/08/2014  14:16:00     -517.442     -312.452      -12.002      272.073      205.142      113.722    74023.937    42083.091    12932.639       24.725        6.452      604.461      117.787        0.038      341.432       16.136      858.547
05/08/2014  14:17:00     -552.161     -299.991       -9.406      241.899      178.749      110.887    58515.202    31951.098    12296.028       24.884        5.138      628.392      107.933        0.030      341.406       16.094      858.554
05/08/2014  14:18:00     -435.383     -256.775      -13.110      297.278      212.257      114.208    88374.416    45053.048    13043.456       20.104        7.324      505.462      128.213        0.064      341.508       16.266      858.585
05/08/2014  14:19:00     -230.751      -93.750       24.826      218.177      134.457       87.289    47601.305    18078.669     7619.303        6.796        3.665      249.069       92.144        0.137      341.810       16.778      858.613
05/08/2014  14:20:00     -301.066     -181.331        6.905      233.097      221.606       86.639    54334.037    49109.054     7506.268       11.724        5.547      351.456      111.749        0.101      341.672       16.543      858.605
05/08/2014  14:21:00     -255.176     -118.130       10.497      160.987      165.803       81.675    25916.893    27490.632     6670.746        6.962        3.004      281.193       94.272        0.112      341.724       16.633      858.625
05/08/2014  14:22:00     -399.101     -185.566        3.586      223.281      174.102      101.413    49854.315    30311.337    10284.596       14.207        4.523      440.132      108.659        0.061      341.681       16.560      858.659
05/08/2014  14:23:00     -479.300     -171.888      -11.510      207.427      134.074       87.835    43026.009    17975.881     7715.075       16.405        3.436      509.190       89.460        0.031      341.660       16.524      858.683
05/08/2014  14:24:00     -405.988     -170.617       14.010      297.655      170.145       95.412    88598.631    28949.312     9103.523       16.037        6.333      440.382      110.844        0.063      341.706       16.601      858.698
05/08/2014  14:25:00     -638.352     -355.370      -13.218      247.982      176.870      113.005    61495.028    31283.169    12770.232       31.973        5.277      730.603      127.463        0.030      341.300       15.913      858.635
05/08/2014  14:26:00     -611.535     -405.786       -8.179      332.969      202.902      123.841   110868.650    41169.388    15336.627       35.301        8.369      733.919      123.849        0.028      341.353       16.003      858.592
05/08/2014  14:27:00     -332.854     -295.783        0.743      169.892      220.217       80.707    28863.359    48495.326     6513.662       14.106        4.194      445.286       84.629        0.036      341.593       16.410      858.573
05/08/2014  14:28:00     -598.197     -303.463        1.797      335.319      216.643      126.139   112438.873    46934.335    15911.171       31.257        8.764      670.768      162.736        0.059      341.516       16.280      858.583
05/08/2014  14:29:00     -489.103     -332.898       -0.845      282.951      191.219      111.198    80061.013    36564.623    12365.106       23.949        6.450      591.644      116.029        0.038      341.451       16.169      858.581
05/08/2014  14:30:00     -580.306     -304.634        2.190      318.972      214.113      116.383   101743.167    45844.563    13544.931       29.532        8.057      655.406      127.116        0.038      341.366       16.025      858.566
05/08/2014  14:31:00     -374.406     -177.443        5.096      257.699      183.825      100.989    66408.958    33791.471    10198.681       14.102        5.520      414.326      117.359        0.080      341.393       16.071      858.589
05/08/2014  14:32:00     -379.672     -181.367        2.170      195.238      169.857       96.765    38117.813    28851.346     9363.561       12.668        3.817      420.767       92.626        0.048      341.577       16.381      858.578
05/08/2014  14:33:00     -371.407     -245.931       14.416      226.789      228.552      116.571    51433.334    52235.838    13588.702       15.792        5.863      445.449      127.424        0.082      341.746       16.669      858.592
05/08/2014  14:34:00     -609.569     -372.032      -24.878      329.784      270.174      151.194   108757.226    72994.204    22859.770       35.757       10.231      714.131      168.501        0.056      341.602       16.425      858.587
05/08/2014  14:35:00     -591.371     -512.040      -19.161      314.514      289.224      160.927    98919.015    83650.516    25897.522       41.033       10.423      782.243      175.810        0.051      341.330       15.964      858.618
05/08/2014  14:36:00     -668.281     -444.640       -4.100      266.928      202.647      112.993    71250.725    41065.889    12767.454       38.468        6.254      802.686      127.505        0.025      341.144       15.649      858.600
05/08/2014  14:37:00     -649.776     -389.722      -29.037      246.804      203.324      107.804    60912.124    41340.645    11621.756       34.438        5.694      757.689      110.898        0.021      341.350       15.999      858.589
05/08/2014  14:38:00     -452.250     -338.229        1.279      245.405      238.700      123.351    60223.415    56977.536    15215.398       22.565        6.621      564.738      116.027        0.042      341.546       16.331      858.650
05/08/2014  14:39:00     -568.840     -143.209      -14.356      265.054      257.413      134.800    70253.471    66261.610    18171.155       24.946        7.734      586.590      135.720        0.054      341.465       16.193      858.685
05/08/2014  14:40:00     -478.884     -297.367      -16.662      278.143      229.697      109.820    77363.550    52760.621    12060.467       23.008        7.109      563.699      122.353        0.047      341.390       16.066      858.713
05/08/2014  14:41:00     -515.645     -328.894        7.156      272.928      238.396      114.846    74489.911    56832.783    13189.709       25.928        7.226      611.605      145.691        0.057      341.256       15.839      858.722
05/08/2014  14:42:00     -515.670     -348.226        1.276      253.959      228.466      117.367    64495.337    52196.502    13775.037       25.880        6.523      622.235      130.451        0.044      341.291       15.899      858.711
05/08/2014  14:43:00     -432.923     -325.446       -3.284      292.448      224.512      103.199    85525.575    50405.427    10650.136       21.994        7.329      541.606      138.819        0.066      341.403       16.087      858.727
05/08/2014  14:44:00     -464.373     -148.789       -5.045      237.623      202.455      115.187    56464.629    40988.010    13268.011       17.424        5.536      487.627      122.293        0.063      341.464       16.192      858.721
05/08/2014  14:45:00     -307.911      -76.496       -2.708      147.781      147.228       77.775    21839.250    21675.954     6049.022        7.511        2.478      317.271       60.085        0.036      341.621       16.457      858.704
05/08/2014  14:46:00     -525.889     -246.226       -0.887      235.619      188.237      102.440    55516.380    35433.283    10493.971       21.930        5.072      580.678      110.010        0.036      341.360       16.014      858.725
05/08/2014  14:47:00     -289.851     -229.770       -1.705      197.282      234.462       94.985    38920.193    54972.359     9022.154       11.984        5.146      369.876       74.475        0.041      341.432       16.136      858.686
05/08/2014  14:48:00     -538.392     -263.932        0.445      282.231      193.917      110.902    79654.303    37603.735    12299.288       24.452        6.478      599.605      123.207        0.042      341.429       16.132      858.655
05/08/2014  14:49:00     -556.452     -316.511      -12.388      280.133      221.014      108.959    78474.369    48846.980    11872.079       27.455        6.960      640.170      120.078        0.035      341.416       16.109      858.658
05/08/2014  14:50:00     -606.264     -425.974      -34.215      243.618      185.618      102.423    59349.852    34454.139    10490.548       32.722        5.215      740.952       92.688        0.016      341.359       16.012      858.626
05/08/2014  14:51:00     -502.506     -270.093       -0.043      272.410      212.589      113.727    74207.272    45194.182    12933.902       22.887        6.617      570.493      128.554        0.051      341.298       15.911      858.647
05/08/2014  14:52:00     -155.967     -146.213        0.925      127.087      118.083       74.166    16151.097    13943.499     5500.559        4.064        1.780      213.785       71.139        0.111      341.519       16.285      858.644
05/08/2014  14:53:00     -343.984     -150.227       -8.948      230.861      189.241      106.536    53296.698    35812.280    11349.841       12.070        5.023      375.358      112.363        0.090      341.586       16.398      858.605
05/08/2014  14:54:00     -365.011     -222.933        7.444      344.628      277.662      118.865   118768.504    77096.382    14128.906       19.645       10.500      427.706      137.664        0.104      341.681       16.559      858.636
05/08/2014  14:55:00     -672.536     -416.220      -19.914      330.894      286.935      156.001   109490.660    82331.804    24336.281       42.101       10.808      790.913      185.907        0.055      341.142       15.645      858.613
05/08/2014  14:56:00     -435.486     -162.295       22.163      255.105      192.347      115.642    65078.427    36997.456    13373.185       16.594        5.772      464.744      127.371        0.075      341.284       15.886      858.628
05/08/2014  14:57:00     -551.148     -418.805       -6.787      279.819      298.616      118.459    78298.613    89171.702    14032.599       33.032        9.075      692.215      146.786        0.045      341.268       15.859      858.598
05/08/2014  14:58:00     -447.690     -227.209      -13.499      240.970      229.463      107.847    58066.349    52653.204    11630.868       18.727        6.118      502.046      120.843        0.058      341.410       16.099      858.610
05/08/2014  14:59:00     -498.548     -320.613      -17.633      289.127      241.514      115.795    83594.657    58328.903    13408.433       25.346        7.767      592.741      122.214        0.043      341.320       15.949      858.561
05/08/2014  15:00:00     -469.173      -87.531       -6.977      289.672      198.371      123.938    83909.861    39351.013    15360.534       18.320        6.931      477.269      141.007        0.087      341.378       16.046      858.536
05/08/2014  15:01:00     -428.253     -314.647       26.871      331.961      216.097      137.451   110198.276    46698.047    18892.903       22.942        8.789      531.416      162.350        0.093      341.290       15.896      858.503
05/08/2014  15:02:00     -467.936     -256.938      -32.575      255.528      211.452      109.002    65294.702    44711.848    11881.327       20.394        6.094      533.837      129.702        0.059      341.331       15.967      858.527
05/08/2014  15:03:00     -517.303     -355.357      -21.320      326.698      207.757      116.108   106731.292    43163.098    13481.114       27.882        8.169      627.600      141.756        0.051      341.339       15.979      858.497
05/08/2014  15:04:00     -659.586     -151.485      -26.399      214.667      186.248      104.586    46082.048    34688.306    10938.158       27.518        4.585      676.758       97.349        0.021      341.290       15.897      858.481
05/08/2014  15:05:00     -214.394     -152.937       35.697      291.243      216.206      115.035    84822.554    46745.022    13232.944       10.769        7.240      263.353      123.754        0.221      341.511       16.270      858.451
05/08/2014  15:06:00     -397.105     -250.852      -12.776      271.368      206.028      111.418    73640.842    42447.640    12413.868       17.462        6.425      469.701      132.446        0.080      341.360       16.017      858.461
05/08/2014  15:07:00     -352.364     -113.124        6.733      215.513      187.116      104.037    46446.012    35012.386    10823.745       11.462        4.614      370.077      104.834        0.080      341.488       16.232      858.440
05/08/2014  15:08:00     -127.073      -89.122       26.467      210.164      142.538       84.826    44169.077    20317.111     7195.519        4.822        3.584      155.211       91.248        0.346      341.658       16.522      858.425
05/08/2014  15:09:00     -308.510       -6.122       -3.549      204.401      166.586       79.349    41779.749    27751.049     6296.185        8.551        3.791      308.571       84.945        0.076      341.605       16.430      858.376
05/08/2014  15:10:00     -433.823     -224.413      -12.800      275.905      194.049      103.021    76123.561    37655.051    10613.237       18.153        6.220      488.430      123.907        0.064      341.441       16.153      858.354
05/08/2014  15:11:00     -282.690     -129.531       25.239      240.270      174.375       91.282    57729.833    30406.488     8332.486        9.688        4.823      310.954      112.818        0.132      341.540       16.321      858.306
05/08/2014  15:12:00     -356.581     -279.749        0.125      219.718      176.634      100.870    48276.090    31199.477    10174.673       14.751        4.483      453.222      109.014        0.058      341.461       16.187      858.295
05/08/2014  15:13:00     -396.858     -161.242      -18.544      281.273      183.995      116.019    79114.776    33854.253    13460.461       15.511        6.321      428.363      123.446        0.083      341.489       16.234      858.251
05/08/2014  15:14:00     -216.395      -99.161       21.924      204.233      195.717       96.910    41710.976    38305.080     9391.553        7.326        4.470      238.033      106.914        0.202      341.555       16.347      858.282
05/08/2014  15:15:00     -312.343      -87.166       -9.085      190.968      240.384       97.755    36468.777    57784.339     9556.076       10.450        5.190      324.278       91.396        0.079      341.539       16.319      858.242
05/08/2014  15:16:00     -515.188     -196.929      -13.243      287.340      213.227      127.514    82564.421    45465.722    16259.782       22.430        7.214      551.543      145.102        0.069      341.366       16.027      858.202
05/08/2014  15:17:00     -415.643      -81.407       -0.037      239.034      208.562      102.844    57137.212    43498.207    10576.855       14.528        5.561      423.540      105.309        0.062      341.462       16.188      858.222
05/08/2014  15:18:00     -239.196      -47.412        3.963      203.694      163.796       87.750    41491.191    26829.192     7700.085        6.773        3.801      243.850       79.891        0.107      341.586       16.399      858.238
05/08/2014  15:19:00     -420.920     -124.729       -8.417      295.922      216.540      109.643    87569.799    46889.567    12021.541       16.961        7.324      439.012      143.518        0.107      341.586       16.399      858.236
05/08/2014  15:20:00     -533.702     -145.254      -34.468      242.715      170.022      111.326    58910.746    28907.496    12393.558       20.365        5.011      553.116      135.066        0.060      341.573       16.377      858.272
05/08/2014  15:21:00     -330.308     -110.934       -2.431      162.198      165.891       90.750    26308.239    27519.814     8235.626        9.173        3.103      348.439       88.799        0.065      341.723       16.630      858.299
05/08/2014  15:22:00     -311.748     -163.755       -1.406      245.199      174.779      108.442    60122.351    30547.666    11759.738       11.320        5.121      352.140      116.494        0.109      341.613       16.444      858.284
05/08/2014  15:23:00     -334.624     -185.449        3.322      263.468      133.391       89.425    69415.187    17793.181     7996.749       12.077        4.760      382.576      120.763        0.100      341.527       16.298      858.283
05/08/2014  15:24:00     -506.773     -250.625       -5.274      258.125      194.239      112.600    66628.575    37728.611    12678.761       21.832        5.852      565.360      122.930        0.047      341.485       16.228      858.255
05/08/2014  15:25:00     -432.534     -261.732      -18.759      235.814      177.460       87.829    55608.255    31491.921     7713.935       17.536        4.741      505.559       97.620        0.037      341.459       16.183      858.273
05/08/2014  15:26:00     -442.455     -235.368       -3.382      263.145      191.121      112.632    69245.244    36527.317    12685.861       18.479        5.923      501.163      127.447        0.065      341.614       16.445      858.269
05/08/2014  15:27:00     -516.565     -190.226      -15.577      271.888      209.169      109.277    73922.938    43751.662    11941.489       21.642        6.481      550.477      125.395        0.052      341.656       16.516      858.249
05/08/2014  15:28:00     -611.020     -114.412      -15.790      283.369      245.070      115.181    80298.067    60059.168    13266.744       27.012        7.681      621.640      121.286        0.038      341.475       16.210      858.242
05/08/2014  15:29:00     -286.856      -54.860        1.615      234.455      147.237       89.147    54968.937    21678.600     7947.272        8.493        4.230      292.055       85.523        0.086      341.616       16.449      858.272
05/08/2014  15:30:00     -353.571     -130.256       20.967      252.699      199.627      104.961    63856.916    39850.849    11016.887       12.855        5.736      376.801      128.789        0.117      341.563       16.360      858.216
05/08/2014  15:31:00     -417.625     -213.302       -6.857      239.016      194.814      116.434    57128.846    37952.560    13556.797       16.428        5.432      468.944      130.901        0.078      341.545       16.329      858.223
05/08/2014  15:32:00     -215.586     -159.545       25.861      289.989      208.812      122.166    84093.463    43602.650    14924.587       10.758        7.131      268.201      138.145        0.265      341.556       16.349      858.166
05/08/2014  15:33:00     -555.311     -200.789        5.725      414.131      266.819      124.419   171504.379    71192.612    15480.188       30.340       12.909      590.497      168.375        0.081      341.410       16.100      858.150
05/08/2014  15:34:00     -413.229     -238.510        6.220      302.181      235.268      134.222    91313.524    55350.947    18015.413       19.615        8.234      477.122      162.793        0.116      341.352       16.003      858.122
05/08/2014  15:35:00     -609.625      -68.510      -35.877      326.364      274.926      124.862   106513.572    75584.564    15590.516       28.762        9.884      613.463      153.774        0.063      341.283       15.886      858.117
05/08/2014  15:36:00     -730.137      -21.080      -53.201      290.565      176.433      128.967    84427.865    31128.507    16632.501       33.426        6.609      730.441      151.400        0.043      341.342       15.984      858.111
05/08/2014  15:37:00     -422.810     -168.928      -13.215      259.007      196.599       95.053    67084.665    38650.991     9035.166       16.110        5.739      455.308      108.995        0.057      341.381       16.051      858.113
05/08/2014  15:38:00     -275.936     -155.592        0.228      203.060      186.363       94.323    41233.386    34730.987     8896.738        9.259        4.243      316.780      101.480        0.103      341.472       16.204      858.070
05/08/2014  15:39:00     -449.701     -255.713      -15.691      254.967      185.946       98.469    65008.301    34576.098     9696.097       18.855        5.464      517.320      115.357        0.050      341.420       16.118      858.082
05/08/2014  15:40:00     -429.369     -199.981      -24.062      235.983      208.863      116.910    55687.969    43623.921    13667.850       16.893        5.649      473.656      120.026        0.064      341.371       16.034      858.048
05/08/2014  15:41:00     -304.167     -228.188       12.471      274.200      219.433      118.894    75185.383    48151.010    14135.876       14.108        6.874      380.246      153.309        0.163      341.394       16.072      858.007
05/08/2014  15:42:00     -359.920     -298.281       -3.845      282.495      208.262      116.712    79803.377    43373.015    13621.765       17.764        6.840      467.454      148.632        0.101      341.404       16.089      857.998
05/08/2014  15:43:00     -414.488     -293.914       -5.890      242.994      281.646      125.081    59045.967    79324.671    15645.290       20.609        7.701      508.120      141.999        0.078      341.336       15.975      857.985
05/08/2014  15:44:00     -351.427     -157.796      -15.679      247.469      191.204      119.254    61240.797    36558.820    14221.539       13.031        5.601      385.228      130.261        0.114      341.367       16.026      857.979
05/08/2014  15:45:00     -435.556     -137.444        5.159      308.624      212.616      110.476    95248.755    45205.510    12204.849       18.061        7.633      456.727      131.983        0.084      341.332       15.969      857.958
05/08/2014  15:46:00     -250.741      -69.433       -1.912      182.586      149.041       90.464    33337.726    22213.363     8183.821        6.570        3.187      260.177       81.743        0.099      341.391       16.066      857.981
05/08/2014  15:47:00     -410.673     -112.125      -20.479      279.371      202.541      113.789    78048.047    41022.672    12947.849       15.680        6.601      425.705      144.722        0.116      341.386       16.061      858.003
05/08/2014  15:48:00     -202.887      -88.314       36.406      286.478      175.007      116.241    82069.437    30627.292    13511.861        8.822        6.310      221.274      124.845        0.318      341.447       16.162      857.977
05/08/2014  15:49:00     -404.215     -124.424        2.280      251.359      157.763      107.706    63181.457    24889.088    11600.668       13.925        4.984      422.932      128.817        0.093      341.319       15.946      857.988
05/08/2014  15:50:00     -207.460      -72.616        7.612      191.957      113.672       71.719    36847.436    12921.250     5143.589        5.163        2.746      219.801       87.174        0.157      341.484       16.226      858.003
05/08/2014  15:51:00     -282.772     -215.477        5.041      214.771      191.017      113.412    46126.574    36487.439    12862.373       11.093        4.774      355.515      123.941        0.122      341.417       16.113      858.011
05/08/2014  15:52:00     -256.681     -193.834       18.192      241.164      214.019      123.756    58160.247    45804.209    15315.431       11.151        5.964      321.647      140.061        0.190      341.412       16.103      858.016
05/08/2014  15:53:00     -283.680     -206.431       -1.723      197.026      148.685       90.625    38819.111    22107.230     8212.927        9.610        3.457      350.839      103.499        0.087      341.427       16.127      858.017
05/08/2014  15:54:00     -328.510     -225.499        4.707      209.224      146.930       80.970    43774.581    21588.516     6556.173       11.534        3.596      398.458       87.275        0.048      341.373       16.037      857.992
05/08/2014  15:55:00     -475.480     -205.052       -6.448      234.022      221.808      115.368    54766.519    49198.684    13309.728       19.270        5.864      517.810      120.596        0.054      341.336       15.974      857.990
05/08/2014  15:56:00     -566.766     -267.890      -36.259      230.787      225.227      112.255    53262.767    50727.335    12601.126       25.542        5.830      626.888      114.720        0.033      341.313       15.936      857.976
05/08/2014  15:57:00     -308.058     -203.934        1.305      180.537      143.182       79.879    32593.602    20501.199     6380.728        9.797        2.974      369.444       85.773        0.054      341.388       16.062      858.042
05/08/2014  15:58:00     -207.887     -145.480        5.924      150.885      144.281       88.087    22766.335    20817.064     7759.350        5.787        2.567      253.735       94.114        0.138      341.452       16.172      858.055
05/08/2014  15:59:00     -431.366     -102.922      -14.749      222.307      188.032       85.590    49420.477    35356.064     7325.671       14.448        4.605      443.474       89.406        0.041      341.346       15.991      858.064
05/08/2014  16:00:00     -341.154     -183.719       10.686      214.950      209.493      120.114    46203.604    43887.153    14427.275       12.736        5.226      387.477      135.401        0.122      341.308       15.928      858.031
05/08/2014  16:01:00     -470.755     -189.901      -19.351      213.118      169.623       72.025    45419.374    28771.984     5187.663       16.870        3.969      507.615       64.254        0.016      341.249       15.828      858.014
05/08/2014  16:02:00     -156.558       22.939       17.239      177.508      142.602       88.414    31509.091    20335.321     7817.079        4.249        2.983      158.230       86.418        0.298      341.398       16.080      858.002
05/08/2014  16:03:00     -361.790      -15.692      -16.561      203.191      136.649       73.799    41286.541    18673.050     5446.239        9.840        3.270      362.130       80.008        0.049      341.354       16.006      857.987
05/08/2014  16:04:00     -395.821      -54.332        1.748      326.685      239.428       98.405   106723.397    57325.979     9683.553       16.665        8.687      399.532      130.095        0.106      341.378       16.046      858.005
05/08/2014  16:05:00     -736.847     -183.970      -19.895      300.929      206.394      119.875    90558.302    42598.523    14370.134       36.233        7.376      759.466      145.943        0.037      341.186       15.721      857.950
05/08/2014  16:06:00     -376.235      -99.170       -7.093      190.040      166.244       81.311    36115.194    27637.040     6611.453       11.089        3.518      389.085       78.327        0.041      341.351       16.000      858.009
05/08/2014  16:07:00     -373.414      -55.040      -23.972      254.756      145.444       91.191    64900.670    21153.974     8315.836       11.869        4.719      377.449      102.284        0.073      341.407       16.093      858.040
05/08/2014  16:08:00     -673.790     -227.076      -14.033      322.654      250.714      128.271   104105.403    62857.618    16453.401       34.455        9.171      711.025      150.902        0.045      341.183       15.715      857.973
05/08/2014  16:09:00     -654.596     -117.928      -21.841      211.560      179.782       96.713    44757.437    32321.622     9353.439       26.464        4.322      665.133      100.497        0.023      341.221       15.779      857.986
05/08/2014  16:10:00     -560.871     -251.883      -22.269      333.838      223.393      120.152   111447.911    49904.575    14436.561       27.712        8.789      614.834      144.878        0.056      341.255       15.839      857.990
05/08/2014  16:11:00     -509.871     -214.028        0.416      260.296      229.623      123.833    67754.166    52726.835    15334.593       22.077        6.791      552.971      119.559        0.047      341.246       15.823      857.992
05/08/2014  16:12:00     -685.824     -189.927      -22.427      342.629      250.657      134.238   117394.296    62828.982    18019.966       35.255        9.912      711.637      174.790        0.060      341.259       15.845      857.978
05/08/2014  16:13:00     -510.366     -249.304       -8.869      278.321      248.710      112.009    77462.763    61856.690    12545.910       23.726        7.593      568.001      129.273        0.052      341.264       15.852      857.991
05/08/2014  16:14:00     -366.409     -210.467      -11.260      204.587      187.282       97.565    41855.756    35074.702     9518.979       13.255        4.322      422.554       98.183        0.054      341.358       16.010      857.999
05/08/2014  16:15:00     -547.129     -208.660       -9.445      246.454      225.879      104.686    60739.475    51021.154    10959.117       23.282        6.136      585.567      105.171        0.032      341.364       16.021      857.986
05/08/2014  16:16:00     -429.543     -227.020        1.080      341.061      212.122      120.132   116322.436    44995.644    14431.683       20.586        8.787      485.845      151.399        0.097      341.368       16.030      858.003
05/08/2014  16:17:00     -353.690     -179.393       18.260      234.254      163.507      102.564    54874.846    26734.586    10519.367       12.485        4.606      396.584      126.387        0.102      341.415       16.108      858.041
05/08/2014  16:18:00     -318.229     -167.670      -13.270      247.265      205.334       92.243    61140.210    42161.923     8508.816       12.066        5.591      359.698      126.410        0.124      341.387       16.062      858.072
05/08/2014  16:19:00     -278.117     -173.718        1.237      182.144      141.052       75.481    33176.558    19895.671     5697.340        8.314        2.938      327.913       84.540        0.066      341.424       16.123      858.055
05/08/2014  16:20:00     -369.223     -261.699       11.186      244.682      162.689      105.810    59869.104    26467.682    11195.772       15.122        4.877      452.561      113.294        0.063      341.380       16.049      858.025
05/08/2014  16:21:00     -339.368     -227.633      -20.336      152.588      139.224       82.957    23283.223    19383.456     6881.843       10.846        2.477      408.641       90.378        0.049      341.400       16.084      858.019
05/08/2014  16:22:00     -416.547     -206.667      -22.274      199.692      160.985       83.347    39876.807    25916.158     6946.646       14.471        3.637      464.997       92.283        0.039      341.340       15.981      857.981
05/08/2014  16:23:00     -404.278     -255.057      -12.390      229.714      188.453       90.977    52768.344    35514.474     8276.796       16.258        4.828      478.011       94.384        0.039      341.293       15.901      857.985
05/08/2014  16:24:00     -417.439     -152.040        5.576      221.724      148.024       90.189    49161.625    21910.959     8134.019       13.829        3.960      444.265      101.698        0.052      341.269       15.860      857.959
05/08/2014  16:25:00     -282.267     -237.839       -4.548      190.574      154.661      101.382    36318.617    23920.116    10278.374       10.338        3.526      369.110      104.986        0.081      341.267       15.857      857.947
05/08/2014  16:26:00     -155.472      -31.135       12.451      163.403      142.904       85.940    26700.630    20421.505     7385.641        3.989        2.725      158.559       95.019        0.359      341.363       16.021      857.920
05/08/2014  16:27:00     -234.577     -178.879       18.928      193.213      169.421      101.737    37331.284    28703.639    10350.416        8.187        3.819      294.998      117.316        0.158      341.322       15.953      857.918
05/08/2014  16:28:00     -380.358       21.687      -23.802      289.580      134.272       69.508    83856.310    18029.033     4831.305       12.619        5.336      380.976       92.311        0.059      341.345       15.991      857.904
05/08/2014  16:29:00     -416.281     -100.144      -23.540      266.512      152.679      105.077    71028.872    23310.950    11041.180       14.461        5.269      428.157      136.974        0.102      341.201       15.747      857.882
05/08/2014  16:30:00     -479.085      -42.372      -15.221      243.628      129.477       88.697    59354.628    16764.400     7867.102       15.775        4.199      480.955      109.393        0.052      341.207       15.757      857.897
05/08/2014  16:31:00     -500.191     -166.923      -24.389      246.332      182.481       97.052    60679.331    33299.471     9419.141       19.100        5.170      527.309      103.480        0.039      341.211       15.765      857.884
05/08/2014  16:32:00     -446.002     -124.746       -6.181      249.836      174.493       97.120    62418.051    30447.926     9432.247       15.839        5.115      463.119      108.867        0.055      341.269       15.861      857.956
05/08/2014  16:33:00     -391.139     -163.193       -4.990      194.855      197.074       82.802    37968.319    38838.242     6856.094       13.164        4.183      423.818       77.067        0.033      341.318       15.944      858.030
05/08/2014  16:34:00     -405.670     -194.757      -24.408      148.762      103.750       64.478    22130.146    10764.095     4157.367       12.007        1.853      449.998       67.218        0.022      341.319       15.946      858.059
05/08/2014  16:35:00     -378.520     -188.061      -15.266      274.469      192.765      109.268    75333.012    37158.212    11939.489       15.163        6.222      422.664      127.419        0.091      341.327       15.960      858.048
05/08/2014  16:36:00     -419.663     -201.824      -16.399      232.697      148.596       83.104    54148.036    22080.845     6906.324       15.011        4.157      465.671      107.784        0.054      341.311       15.934      858.085
05/08/2014  16:37:00     -245.786     -148.336        8.552      264.319      158.410      108.984    69864.409    25093.680    11877.475        9.464        5.342      287.079      110.538        0.148      341.324       15.954      858.076
05/08/2014  16:38:00     -215.881      -49.611        8.361      151.268      125.114       83.857    22882.098    15653.625     7032.050        4.734        2.278      221.508       80.878        0.133      341.377       16.045      858.065
05/08/2014  16:39:00     -286.617     -167.403       -1.550      224.372      143.272       82.005    50342.854    20526.808     6724.758        9.387        3.880      331.923      109.055        0.108      341.328       15.963      858.074
05/08/2014  16:40:00     -211.283     -152.359       16.950      212.341      178.399       96.742    45088.826    31826.157     9358.963        7.719        4.314      260.488      122.932        0.223      341.366       16.026      858.057
05/08/2014  16:41:00     -346.664     -238.080        9.927      261.395      195.630      112.333    68327.336    38271.077    12618.672       14.806        5.961      420.545      124.759        0.088      341.204       15.751      858.051
05/08/2014  16:42:00     -443.454     -201.369        8.273      255.621      183.707       95.323    65341.950    33748.412     9086.389       17.270        5.409      487.033      119.702        0.060      341.231       15.798      858.084
05/08/2014  16:43:00     -251.512      -65.521        3.043      202.915      145.582       80.202    41174.338    21194.095     6432.322        6.817        3.440      259.907       85.672        0.109      341.314       15.937      858.119
05/08/2014  16:44:00     -295.399     -117.949        4.311      160.360      149.373       87.333    25715.369    22312.153     7627.091        7.841        2.783      318.076       86.393        0.074      341.334       15.971      858.135
05/08/2014  16:45:00     -389.187     -234.563       -5.026      244.677      193.053      100.408    59866.666    37269.548    10081.798       15.684        5.361      454.407      116.888        0.066      341.246       15.823      858.124
05/08/2014  16:46:00     -453.949     -333.845      -10.153      278.733      189.311      120.179    77692.244    35838.481    14442.985       22.277        6.399      563.491      140.668        0.062      341.163       15.681      858.126
05/08/2014  16:47:00     -377.078     -273.056        4.084      251.401      186.122      117.203    63202.388    34641.510    13736.447       16.415        5.579      465.561      140.795        0.091      341.180       15.712      858.107
05/08/2014  16:48:00     -449.726     -155.504      -12.491      226.506      166.307       88.586    51305.095    27657.949     7847.484       15.668        4.341      475.852       95.580        0.040      341.157       15.671      858.098
05/08/2014  16:49:00     -409.841     -251.272      -10.984      245.972      201.444      116.904    60502.184    40579.502    13666.452       17.297        5.737      480.736      124.674        0.067      341.127       15.621      858.068
05/08/2014  16:50:00     -504.682     -233.860      -18.547      299.857      218.786      107.688    89914.151    47867.377    11596.751       22.953        7.469      556.232      127.278        0.052      341.110       15.593      858.060
05/08/2014  16:51:00     -549.090     -144.607      -39.908      296.631      200.307      115.062    87989.791    40122.980    13239.195       23.265        7.068      567.813      148.918        0.069      341.054       15.497      858.022
05/08/2014  16:52:00     -447.110     -138.008      -16.448      222.170      224.760      106.836    49359.529    50517.077    11413.872       16.524        5.565      467.924      117.213        0.063      341.104       15.583      858.002
05/08/2014  16:53:00     -600.429     -332.582      -29.906      308.856      226.181      121.615    95391.949    51157.807    14790.252       31.665        8.067      686.386      134.923        0.039      341.013       15.427      857.975
05/08/2014  16:54:00     -483.511     -220.339        9.390      276.418      203.578      111.897    76407.164    41443.823    12521.032       20.637        6.519      531.349      126.516        0.057      341.060       15.508      858.015
05/08/2014  16:55:00     -526.582     -123.462      -39.765      315.858      265.871      126.128    99765.984    70687.639    15908.166       24.020        9.318      540.862      150.961        0.078      341.022       15.442      857.977
05/08/2014  16:56:00     -454.835     -233.138      -12.613      289.797      199.427      132.304    83982.136    39771.186    17504.287       20.129        7.063      511.105      140.793        0.076      341.032       15.460      858.003
05/08/2014  16:57:00     -592.406     -253.349      -30.357      293.591      272.054      124.413    86195.579    74013.565    15478.572       29.584        8.784      644.306      124.138        0.037      340.910       15.254      857.987
05/08/2014  16:58:00     -548.158     -345.083      -10.550      323.169      252.534      141.306   104438.046    63773.599    19967.405       30.389        9.409      647.734      169.820        0.069      340.852       15.156      857.980
05/08/2014  16:59:00     -327.332     -164.063       -4.801      275.939      196.351      119.736    76142.472    38553.533    14336.753       13.153        6.452      366.146      154.359        0.178      340.958       15.336      858.025
05/08/2014  17:00:00     -466.000     -158.695       -8.959      299.738      176.472       95.936    89843.097    31142.498     9203.660       18.628        6.509      492.280      119.288        0.059      340.936       15.298      857.993
05/08/2014  17:01:00     -425.246     -160.787      -11.054      252.238      217.380      119.312    63623.785    47254.128    14235.425       16.594        6.256      454.628      127.165        0.078      340.907       15.249      858.001
05/08/2014  17:02:00     -494.155     -212.341      -13.989      265.361      207.922      109.684    70416.612    43231.389    12030.673       20.755        6.284      537.846      119.567        0.049      340.874       15.192      857.978
05/08/2014  17:03:00     -370.939     -265.466       -9.776      197.158      148.094       96.142    38871.254    21931.812     9243.301       13.909        3.502      456.145      103.897        0.052      340.905       15.245      857.966
05/08/2014  17:04:00     -566.918     -261.608      -23.008      238.831      246.199      117.296    57040.052    60614.089    13758.246       26.086        6.571      624.368      127.161        0.041      340.858       15.167      857.978
05/08/2014  17:05:00     -638.017     -407.993      -42.936      335.552      222.353      142.834   112595.180    49440.941    20401.456       37.887        9.122      757.313      169.770        0.050      340.824       15.109      857.952
05/08/2014  17:06:00     -342.467     -161.934       -9.100      198.822      194.145      110.457    39530.049    37692.316    12200.777       11.649        4.471      378.822      104.951        0.077      340.915       15.261      857.985
05/08/2014  17:07:00     -453.599     -109.023      -21.672      190.375      151.825       95.986    36242.721    23050.815     9213.323       14.329        3.425      466.517       88.028        0.036      340.936       15.296      858.056
05/08/2014  17:08:00     -426.004     -136.815        3.801      233.866      189.759       89.686    54693.246    36008.509     8043.565       14.946        4.937      447.434      107.576        0.058      340.943       15.309      858.078
05/08/2014  17:09:00     -415.353      -37.404      -15.693      241.158      177.323       89.233    58157.161    31443.423     7962.451       13.584        4.878      417.034      105.301        0.064      340.908       15.251      858.084
05/08/2014  17:10:00     -252.671      -21.385       -6.086      257.434      147.836      100.105    66272.181    21855.471    10021.095        8.122        4.907      253.574      108.388        0.183      340.976       15.365      858.108
05/08/2014  17:11:00     -172.483      -65.656       11.372      168.101      142.562      101.865    28258.090    20323.949    10376.504        4.656        2.948      184.557       90.484        0.240      340.948       15.318      858.104
05/08/2014  17:12:00     -415.412     -182.985       -4.209      389.252      192.170      111.665   151516.897    36929.256    12469.013       20.345       10.046      453.928      159.346        0.123      340.940       15.305      858.096
05/08/2014  17:13:00     -493.430     -234.359      -15.381      242.826      209.747      111.411    58964.637    43993.742    12412.476       20.698        5.769      546.257      119.876        0.048      340.835       15.126      858.057
05/08/2014  17:14:00     -495.028     -118.435      -31.959      250.225      183.019      102.365    62612.538    33495.992    10478.515       18.332        5.329      508.999      102.397        0.040      340.834       15.125      858.036
05/08/2014  17:15:00     -735.719     -147.918      -18.031      319.882      215.778      127.525   102324.569    46560.189    16262.662       36.428        8.257      750.441      133.940        0.032      340.766       15.010      858.005
05/08/2014  17:16:00     -549.618     -244.878      -36.695      324.613      232.755      129.384   105373.906    54174.907    16740.315       26.981        8.814      601.702      147.592        0.060      340.735       14.958      858.020
05/08/2014  17:17:00     -440.441     -265.277      -13.060      292.287      233.790      136.483    85431.580    54657.876    18627.487       21.159        7.936      514.159      140.512        0.075      340.784       15.040      858.000
05/08/2014  17:18:00     -555.278     -198.399      -27.295      317.877      203.977      119.749   101045.766    41606.718    14339.709       25.268        7.850      589.657      117.756        0.040      340.762       15.005      858.025
05/08/2014  17:19:00     -475.668     -101.695      -10.980      244.987      217.352      103.111    60018.446    47242.001    10631.842       17.728        5.895      486.417      127.667        0.069      340.762       15.004      858.021
05/08/2014  17:20:00     -430.576     -204.352      -30.292      202.553      160.049       95.138    41027.826    25615.723     9051.148       15.187        3.785      476.608       88.523        0.034      340.834       15.124      858.013
05/08/2014  17:21:00     -331.552      -67.178       -7.920      224.885      209.876       93.948    50573.369    44047.901     8826.197       10.895        5.172      338.289       84.060        0.062      340.844       15.142      858.031
05/08/2014  17:22:00     -265.926     -132.142       -0.118      200.162      171.425       94.828    40064.901    29386.442     8992.419        8.330        3.922      296.948       96.538        0.106      340.879       15.202      858.018
05/08/2014  17:23:00     -432.276      -44.003      -11.684      276.970      189.540       96.996    76712.308    35925.591     9408.261       15.547        6.102      434.509      124.140        0.082      340.846       15.147      858.008
05/08/2014  17:24:00     -356.830     -170.815      -17.295      245.747      223.599      109.562    60391.821    49996.554    12003.895       13.957        6.120      395.608      117.451        0.088      340.869       15.183      858.012
05/08/2014  17:25:00     -444.036     -175.632       -1.670      261.200      222.680      132.270    68225.513    49586.333    17495.398       18.164        6.765      477.508      146.775        0.094      340.879       15.200      857.976
05/08/2014  17:26:00     -326.144      -82.704       -3.381      264.364      147.199       99.284    69888.568    21667.621     9857.395       10.730        5.071      336.467      112.926        0.113      340.904       15.243      857.941
05/08/2014  17:27:00     -261.512      -74.207        4.720      179.181      147.144       76.133    32105.698    21651.379     5796.245        6.672        2.978      271.836       81.928        0.091      340.974       15.362      857.967
05/08/2014  17:28:00     -361.249     -273.931        8.355      221.362      190.087      104.815    49001.024    36133.040    10986.253       15.085        4.806      453.364      110.363        0.059      340.879       15.201      857.972
05/08/2014  17:29:00     -358.313      -94.332       -8.103      239.612      204.443       94.418    57413.839    41796.755     8914.713       12.272        5.406      370.522      103.664        0.078      340.887       15.215      857.974
05/08/2014  17:30:00     -453.728     -120.651      -14.249      198.750      158.300       73.747    39501.758    25058.841     5438.626       14.530        3.500      469.495       84.602        0.032      340.909       15.251      858.004
05/08/2014  17:31:00     -377.172     -148.138       -8.658      222.074      159.105       97.718    49316.959    25314.255     9548.826       12.421        4.209      405.220      105.682        0.068      340.902       15.241      858.019
05/08/2014  17:32:00     -474.366     -125.954      -17.542      178.809      133.721       76.978    31972.615    17881.423     5925.538       14.848        2.789      490.803       87.034        0.031      340.922       15.274      858.011
05/08/2014  17:33:00     -271.954     -108.302      -19.545      171.171      129.482       91.977    29299.445    16765.589     8459.797        7.029        2.726      292.726       81.492        0.078      340.923       15.275      857.992
05/08/2014  17:34:00     -382.308     -126.601       -2.162      204.879      144.915       78.898    41975.467    21000.370     6224.944       11.568        3.460      402.725       87.520        0.047      340.909       15.251      857.989
05/08/2014  17:35:00     -349.726     -197.209       -8.379      174.572      181.176       92.442    30475.228    32824.706     8545.431       11.654        3.592      401.497       97.706        0.059      340.922       15.274      857.977
05/08/2014  17:36:00     -398.905      -81.962      -21.760      170.146      144.763       95.531    28949.829    20956.453     9126.238       11.266        2.952      407.238       91.087        0.050      340.934       15.294      857.972
05/08/2014  17:37:00     -185.383     -105.506       19.911      156.601      147.091       87.836    24524.000    21635.814     7715.099        4.987        2.694      213.303       92.323        0.187      340.979       15.371      857.959
05/08/2014  17:38:00     -270.654     -142.618       -7.037      187.038      136.347       82.346    34983.188    18590.476     6780.864        7.699        3.018      305.930       83.103        0.074      340.917       15.265      857.926
05/08/2014  17:39:00     -364.185     -220.855      -25.250      159.328      143.264       75.809    25385.536    20524.447     5746.985       11.684        2.583      425.920       81.377        0.037      340.879       15.201      857.893
05/08/2014  17:40:00     -205.776     -167.746       16.831      199.616      118.291       92.760    39846.501    13992.670     8604.467        6.659        3.122      265.486      113.762        0.184      340.970       15.357      857.888
05/08/2014  17:41:00     -262.717     -129.231      -11.481      160.769      120.640       70.765    25846.591    14554.121     5007.712        6.562        2.270      292.781       79.116        0.073      340.993       15.394      857.880
05/08/2014  17:42:00     -267.498     -168.591      -20.671      142.106      111.923       73.801    20194.094    12526.837     5446.607        6.928        1.908      316.193       65.279        0.043      340.950       15.322      857.870
05/08/2014  17:43:00     -275.408      -79.858      -12.597      136.586       75.145       45.476    18655.640     5646.718     2068.061        5.437        1.319      286.752       53.245        0.034      341.014       15.430      857.859
05/08/2014  17:44:00     -113.365     -103.198       17.304      127.314       75.577       59.402    16208.906     5711.838     3528.640        2.462        1.272      153.302       67.590        0.194      341.067       15.520      857.863
05/08/2014  17:45:00     -186.206     -116.249        0.626      109.484      115.105       53.231    11986.792    13249.272     2833.511        3.812        1.403      219.514       59.432        0.073      341.056       15.500      857.879
05/08/2014  17:46:00     -107.022      -48.656       12.909      139.845       50.802       42.793    19556.675     2580.831     1831.273        1.897        1.198      117.564       61.935        0.278      341.143       15.649      857.904
05/08/2014  17:47:00     -287.578     -128.196       -1.962      172.477      135.136       70.922    29748.470    18261.699     5029.994        7.608        2.652      314.858       84.236        0.072      341.033       15.462      857.923
05/08/2014  17:48:00     -248.965      -70.343       -4.889      150.150      114.447       65.946    22544.964    13098.055     4348.891        5.347        2.000      258.711       64.320        0.062      341.053       15.496      857.900
05/08/2014  17:49:00     -313.330      -95.199      -11.067      179.048      148.716       84.312    32058.073    22116.559     7108.595        8.431        3.064      327.473       99.114        0.092      341.014       15.430      857.872
05/08/2014  17:50:00     -387.983     -144.301       -8.975      162.990      113.972       76.259    26565.738    12989.635     5815.368       10.839        2.269      413.949       79.693        0.037      340.948       15.318      857.858
05/08/2014  17:51:00     -288.024      -99.106       15.634      247.074      142.858       79.346    61045.477    20408.410     6295.740        9.037        4.387      304.598      101.048        0.110      340.972       15.360      857.839
05/08/2014  17:52:00     -347.088     -147.769      -14.900      167.851      132.039       69.552    28173.801    17434.265     4837.421        9.648        2.522      377.234       79.191        0.044      340.965       15.346      857.871
05/08/2014  17:53:00     -256.349      -61.219      -13.007      188.343      115.086       71.180    35472.954    13244.835     5066.562        6.170        2.689      263.557       83.510        0.100      341.013       15.429      857.893
05/08/2014  17:54:00     -375.370     -159.734       -2.808      294.542      150.543       97.323    86755.242    22663.058     9471.826       14.263        5.945      407.943      115.228        0.080      340.924       15.276      857.895
05/08/2014  17:55:00     -573.258     -143.850      -25.837      279.625      174.444      104.163    78189.899    30430.658    10849.880       23.470        5.974      591.031      128.417        0.047      340.862       15.171      857.936
05/08/2014  17:56:00     -241.266      -84.023        0.753      163.350      133.852       85.342    26683.175    17916.424     7283.314        5.857        2.594      255.478       81.698        0.102      340.926       15.280      858.001
05/08/2014  17:57:00     -232.059      -90.129      -10.871      159.967      105.462       60.706    25589.513    11122.147     3685.191        5.124        2.020      248.947       55.716        0.050      341.031       15.458      858.008
05/08/2014  17:58:00     -364.930     -207.278       -6.613      203.281      190.111       89.603    41323.101    36142.270     8028.738       13.082        4.275      419.688       98.838        0.055      340.969       15.353      858.004
05/08/2014  17:59:00     -461.428     -202.095      -20.780      196.789      151.365       88.386    38725.742    22911.338     7812.121       16.181        3.472      503.744      103.472        0.042      340.917       15.265      858.012
05/08/2014  18:00:00     -358.728     -222.798        9.271      164.309      159.027       79.085    26997.347    25289.728     6254.369       11.846        2.927      422.285       81.513        0.037      340.937       15.299      858.012
05/08/2014  18:01:00     -237.772     -161.681       13.354      193.410      155.382       85.927    37407.585    24143.641     7383.421        7.588        3.447      287.535      103.639        0.130      340.986       15.381      858.046
05/08/2014  18:02:00     -258.738     -154.758      -17.105      135.151      126.354       62.197    18265.882    15965.362     3868.424        6.464        1.905      301.489       54.217        0.032      340.984       15.379      858.026
05/08/2014  18:03:00     -219.900     -198.543       -3.117      168.671      144.736       70.082    28449.807    20948.444     4911.419        7.104        2.715      296.269       74.551        0.063      340.993       15.393      858.052
05/08/2014  18:04:00     -289.366     -144.648        1.493      149.825      118.224       63.135    22447.527    13976.813     3986.077        7.253        2.021      323.505       68.811        0.045      340.977       15.368      858.056
05/08/2014  18:05:00     -349.836     -213.892      -12.315      148.283      115.308       70.184    21987.882    13295.924     4925.863       10.424        2.010      410.043       73.654        0.032      340.966       15.348      858.051
05/08/2014  18:06:00     -282.733      -72.272      -16.363      163.103      133.041       76.715    26602.536    17700.003     5885.252        6.780        2.509      291.824       81.837        0.079      341.012       15.427      858.049
05/08/2014  18:07:00     -198.333     -142.873        6.279      210.171      149.218       98.332    44171.986    22265.969     9669.122        6.793        3.805      244.435      117.864        0.233      341.025       15.448      858.030
05/08/2014  18:08:00     -305.519     -207.305      -10.296      204.958      172.810       88.674    42007.779    29863.273     7863.127       10.806        3.987      369.212      109.709        0.088      340.994       15.394      858.017
05/08/2014  18:09:00     -324.278     -151.301       15.068      202.680      193.802       82.171    41079.321    37559.293     6752.105       10.682        4.270      357.838       97.491        0.074      340.993       15.393      858.018
05/08/2014  18:10:00     -413.017     -133.784      -16.418      241.976      172.198       97.417    58552.514    29652.200     9490.055       14.320        4.885      434.144      115.674        0.071      340.954       15.329      858.013
05/08/2014  18:11:00     -375.660     -101.209       -6.330      241.522      205.383       84.218    58332.805    42182.331     7092.606       12.948        5.380      389.054       99.444        0.065      340.937       15.299      858.009
05/08/2014  18:12:00     -313.173      -71.408       12.864      186.230      167.919       93.061    34681.582    28196.902     8660.292        8.743        3.577      321.210       94.295        0.086      340.985       15.380      858.063
05/08/2014  18:13:00     -518.370     -154.484      -20.179      220.769      203.138      108.303    48738.824    41265.072    11729.494       19.734        5.087      540.900      119.501        0.049      340.894       15.226      858.067
05/08/2014  18:14:00     -350.311     -104.280        0.213      183.099      163.768       84.941    33525.297    26819.862     7215.036       10.056        3.378      365.502       79.290        0.047      340.986       15.382      858.080
05/08/2014  18:15:00     -281.197     -142.027        6.001      250.704      182.987       85.387    62852.350    33484.062     7290.858       10.143        5.181      315.030      104.479        0.110      341.005       15.415      858.114
05/08/2014  18:16:00     -386.057     -147.516      -20.387      184.950      146.272       82.594    34206.679    21395.374     6821.739       11.681        3.121      413.280       88.804        0.046      341.002       15.409      858.089
05/08/2014  18:17:00     -393.461     -153.351        4.415      305.801      168.257       89.162    93514.036    28310.407     7949.937       15.404        6.489      422.289      123.263        0.085      340.980       15.372      858.059
05/08/2014  18:18:00     -347.325      -89.570       -2.928      217.740      173.074       82.935    47410.516    29954.593     6878.284       10.644        4.212      358.688       85.665        0.057      340.923       15.275      858.038
05/08/2014  18:19:00     -452.919      -84.473      -15.485      241.587      172.723       86.966    58364.200    29833.389     7563.067       15.412        4.788      460.729      115.749        0.063      340.947       15.317      858.026
05/08/2014  18:20:00     -527.905     -189.262      -21.529      221.841      211.525       91.122    49213.497    44742.682     8303.178       20.859        5.113      560.806       91.583        0.027      340.889       15.217      858.032
05/08/2014  18:21:00     -367.141     -231.164        1.511      220.277      193.327      102.559    48521.842    37375.149    10518.430       14.230        4.821      433.854      108.102        0.062      340.907       15.248      858.048
05/08/2014  18:22:00     -450.981     -214.239      -25.181      195.519      208.606       91.612    38227.591    43516.346     8392.804       17.001        4.507      499.282       98.101        0.039      340.880       15.202      858.074
05/08/2014  18:23:00     -391.135     -144.195      -12.580      221.348      270.728      108.943    48995.071    73293.515    11868.653       15.402        6.708      416.867      118.569        0.081      340.876       15.196      858.044
05/08/2014  18:24:00     -446.566     -220.690       -1.698      314.316      217.063      103.389    98794.556    47116.551    10689.212       20.233        7.830      498.121      137.395        0.076      340.907       15.248      858.071
05/08/2014  18:25:00     -629.865     -327.224      -15.842      240.266      177.240      110.299    57727.744    31413.853    12165.886       30.266        5.065      709.793      124.990        0.031      340.805       15.076      858.014
05/08/2014  18:26:00     -447.357     -206.462       -4.554      269.606      207.820      105.387    72687.132    43189.115    11106.481       18.485        6.349      492.702      140.224        0.081      340.846       15.146      858.025
05/08/2014  18:27:00     -550.914     -155.788        8.014      321.412      203.365      131.945   103305.521    41357.475    17409.400       24.492        8.104      572.517      157.328        0.076      340.840       15.135      858.063
05/08/2014  18:28:00     -395.753     -352.449       -3.166      305.926      250.798      136.253    93590.629    62899.596    18564.789       22.792        8.753      529.943      174.513        0.108      340.827       15.113      858.055
05/08/2014  18:29:00     -535.307     -291.812      -14.162      262.867      169.542      105.338    69099.000    28744.655    11096.031       24.040        5.447      609.679      126.275        0.043      340.796       15.061      858.090
05/08/2014  18:30:00     -388.759     -168.583        4.394      265.226      215.135      103.379    70345.049    46282.927    10687.255       15.342        6.366      423.738      122.160        0.083      340.799       15.067      858.100
05/08/2014  18:31:00     -483.277     -341.084      -14.678      217.285      165.194      113.168    47212.891    27289.035    12806.947       21.869        4.365      591.519      111.312        0.035      340.785       15.041      858.096
05/08/2014  18:32:00     -487.063     -233.422      -18.170      199.399      174.627       86.326    39759.994    30494.534     7452.216       18.486        3.885      540.108       89.474        0.027      340.829       15.117      858.082
05/08/2014  18:33:00     -475.014     -121.629      -10.998      239.187      167.406       92.568    57210.443    28024.828     8568.924       16.716        4.690      490.338      112.756        0.053      340.826       15.113      858.115
05/08/2014  18:34:00     -375.685     -187.665      -24.823      233.368      158.209       84.689    54460.518    25030.125     7172.286       13.180        4.333      419.949      100.771        0.058      340.833       15.122      858.168
05/08/2014  18:35:00     -268.230     -129.442        2.251      179.712      130.843       76.446    32296.424    17119.771     5843.968        7.197        2.763      297.830       90.587        0.093      340.840       15.136      858.149
05/08/2014  18:36:00     -216.598     -163.227       17.156      168.452      148.912       90.284    28376.176    22174.930     8151.167        6.627        2.935      271.215       81.984        0.091      340.785       15.042      858.126
05/08/2014  18:37:00     -438.252     -222.754      -26.185      232.961      224.208      102.065    54270.900    50269.255    10417.259       17.864        5.748      491.614      112.101        0.052      340.720       14.933      858.147
05/08/2014  18:38:00     -485.987     -251.978      -33.520      257.442      207.655      102.275    66276.209    43120.459    10460.097       21.030        5.993      547.427      116.070        0.045      340.664       14.838      858.149
05/08/2014  18:39:00     -632.035     -253.190      -42.922      307.711      190.558      112.159    94686.043    36312.170    12579.533       30.447        7.179      680.862      120.398        0.031      340.663       14.834      858.165
05/08/2014  18:40:00     -475.063     -274.764       -6.402      299.375      182.104      117.633    89625.539    33161.761    13837.532       21.890        6.831      548.799      150.949        0.076      340.664       14.838      858.199
05/08/2014  18:41:00     -356.819     -282.365        4.909      211.192      182.881      107.595    44602.125    33445.411    11576.616       14.833        4.481      455.027      114.003        0.063      340.657       14.824      858.228
05/08/2014  18:42:00     -283.865     -233.553       17.038      186.727      179.119       99.090    34866.917    32083.465     9818.906       10.608        3.838      367.595      100.781        0.075      340.687       14.877      858.217
05/08/2014  18:43:00     -214.009     -134.953      -10.301      108.443       94.975       59.422    11759.969     9020.283     3531.007        4.421        1.216      253.007       55.806        0.049      340.734       14.954      858.255
05/08/2014  18:44:00     -245.515     -141.193        1.120      142.761      116.320       64.649    20380.656    13530.241     4179.461        5.914        1.905      283.219       71.086        0.063      340.761       15.002      858.274
05/08/2014  18:45:00     -342.826     -154.919      -23.457      185.707      163.946       87.078    34487.079    26878.152     7582.633       10.550        3.447      376.204       91.487        0.059      340.724       14.939      858.304
05/08/2014  18:46:00     -441.265     -275.900      -15.352      247.362      187.573      108.972    61188.098    35183.669    11874.823       18.964        5.412      520.418      121.631        0.055      340.618       14.760      858.287
05/08/2014  18:47:00     -251.466     -168.857       29.627      203.544      138.084       98.938    41430.315    19067.099     9788.669        8.144        3.514      302.899      117.860        0.151      340.645       14.805      858.282
05/08/2014  18:48:00     -304.638     -165.402      -10.881      165.834      159.103       70.525    27500.874    25313.829     4973.741        8.902        2.889      346.644       66.413        0.037      340.648       14.809      858.288
05/08/2014  18:49:00     -302.282      -93.325       18.552      268.430      143.909       98.912    72054.523    20709.840     9783.509       10.147        5.127      316.360      120.214        0.144      340.696       14.892      858.285
05/08/2014  18:50:00     -405.193     -325.081      -23.291      203.108      197.583       90.015    41252.975    39038.996     8102.675       17.938        4.420      519.480       98.235        0.036      340.633       14.785      858.299
05/08/2014  18:51:00     -414.764     -349.901      -26.248      189.133      203.409      100.079    35771.142    41375.373    10015.739       19.114        4.358      542.641      110.273        0.041      340.541       14.628      858.282
05/08/2014  18:52:00     -334.703     -115.636        9.155      209.778      140.370       89.215    44006.685    19703.662     7959.252        9.856        3.583      354.115      101.592        0.082      340.567       14.674      858.231
05/08/2014  18:53:00     -334.660     -225.723        4.799      194.273      169.660       92.106    37742.116    28784.610     8483.534       11.898        3.751      403.669       95.523        0.056      340.600       14.730      858.243
05/08/2014  18:54:00     -320.463     -218.224       -7.525      187.624      171.076       80.675    35202.622    29267.008     6508.451       11.066        3.549      387.709       92.806        0.057      340.586       14.708      858.287
05/08/2014  18:55:00     -266.668     -187.286       -9.098      154.453      147.284       76.790    23855.686    21692.519     5896.740        7.885        2.572      325.864       75.499        0.054      340.570       14.677      858.280
05/08/2014  18:56:00     -313.843     -119.978       -3.527      184.554      162.627       83.099    34060.055    26447.589     6905.431        9.015        3.371      335.994       93.892        0.078      340.578       14.692      858.260
05/08/2014  18:57:00     -426.096     -232.015       -4.767      190.179      180.458      102.490    36168.017    32564.910    10504.239       15.731        3.962      485.169      109.857        0.051      340.496       14.554      858.228
05/08/2014  18:58:00     -374.070      -87.288       -2.485      200.878      165.199       84.562    40351.875    27290.825     7150.802       11.116        3.740      384.120       99.603        0.067      340.525       14.601      858.192
05/08/2014  18:59:00     -275.800     -205.246        7.298      162.260      206.288       94.886    26328.267    42554.702     9003.413        9.805        3.894      343.790       86.501        0.063      340.493       14.549      858.185
05/08/2014  19:00:00     -437.310     -248.387       43.967      395.883      213.679      152.679   156723.017    45658.516    23310.927       24.024       11.285      502.927      201.557        0.161      340.455       14.484      858.153
05/08/2014  19:01:00     -327.720     -220.375        1.533      192.620      178.510      111.949    37102.373    31865.689    12532.484       11.872        4.075      394.925      115.709        0.086      340.455       14.486      858.103
05/08/2014  19:02:00     -419.727     -305.573      -19.844      238.848      249.593       95.371    57048.406    62296.682     9095.639       19.916        6.422      519.178       87.232        0.028      340.410       14.408      858.073
05/08/2014  19:03:00     -358.500     -258.226       12.639      204.545      136.164       79.503    41838.657    18540.697     6320.661       13.102        3.335      441.818       84.884        0.037      340.406       14.403      858.014
05/08/2014  19:04:00     -346.392     -163.225        9.202      214.000      136.156       93.551    45795.805    18538.523     8751.862       10.989        3.654      382.922      103.217        0.073      340.456       14.486      857.991
05/08/2014  19:05:00     -475.786     -135.985       -1.003      226.618      208.861      112.569    51355.847    43622.757    12671.888       17.624        5.383      494.837      118.345        0.057      340.396       14.385      858.009
05/08/2014  19:06:00     -337.311     -310.216        0.657      245.989      221.975      108.567    60510.496    49272.698    11786.895       16.577        6.079      458.271      121.587        0.070      340.433       14.447      858.007
05/08/2014  19:07:00     -540.474     -305.134      -31.172      248.938      176.199      106.819    61970.335    31046.165    11410.203       24.529        5.221      620.660      120.015        0.037      340.383       14.362      857.978
05/08/2014  19:08:00     -443.439     -160.234      -20.760      264.000      194.688       97.419    69695.814    37903.311     9490.388       16.989        5.854      471.501      120.745        0.066      340.383       14.362      858.008
05/08/2014  19:09:00     -553.229     -359.896      -15.439      288.641      218.084      114.819    83313.606    47560.800    13183.486       28.991        7.203      659.991      135.283        0.042      340.340       14.290      858.021
05/08/2014  19:10:00     -569.899     -367.210      -22.625      268.256      235.332      113.186    71961.299    55381.378    12811.053       30.012        7.008      677.959      123.146        0.033      340.269       14.170      857.975
05/08/2014  19:11:00     -276.524     -156.687       36.498      236.420      158.738      102.138    55894.532    25197.725    10432.256        9.692        4.576      317.831      111.187        0.122      340.338       14.286      857.978
05/08/2014  19:12:00     -413.313     -163.979       28.278      332.859      220.479      128.333   110795.131    48610.834    16469.377       18.716        8.794      444.654      156.876        0.124      340.306       14.232      857.995
05/08/2014  19:13:00     -413.672     -346.795      -21.855      206.719      176.776       94.515    42732.831    31249.902     8933.154       18.738        4.146      539.806       91.735        0.029      340.280       14.189      857.982
05/08/2014  19:14:00     -436.513     -277.034       -3.125      252.311      182.611      105.192    63660.805    33346.922    11065.431       18.767        5.404      517.002      123.057        0.057      340.266       14.164      857.993
05/08/2014  19:15:00     -388.225     -238.071        2.106      272.188      217.183      109.274    74086.139    47168.654    11940.763       17.027        6.660      455.408      129.051        0.080      340.262       14.158      857.982
05/08/2014  19:16:00     -424.767     -289.711      -15.600      202.532      242.126      110.934    41019.358    58625.054    12306.397       18.825        5.598      514.159      116.108        0.051      340.262       14.159      857.933
05/08/2014  19:17:00     -226.924     -246.124       18.160      190.198      180.671      102.984    36175.383    32642.057    10605.622        9.590        3.971      334.771      106.205        0.101      340.311       14.242      857.956
05/08/2014  19:18:00     -384.641     -344.564      -10.113      206.356      205.603       92.978    42582.735    42272.769     8644.864       18.012        4.675      516.404      113.394        0.048      340.285       14.197      857.986
05/08/2014  19:19:00     -420.151     -309.031       12.177      325.756      221.042      115.328   106117.022    48859.564    13300.493       22.019        8.414      521.562      139.279        0.071      340.263       14.159      857.962
05/08/2014  19:20:00     -653.778     -481.138      -13.367      333.523      261.821      143.935   111237.427    68550.375    20717.206       42.976       10.025      811.738      153.448        0.036      340.113       13.907      857.902
05/08/2014  19:21:00     -349.470     -308.317       -2.024      195.080      166.562      107.294    38056.298    27742.751    11511.978       14.724        3.866      466.035       98.542        0.045      340.176       14.013      857.947
05/08/2014  19:22:00     -257.578     -232.540        7.746      206.191      141.906       99.599    42514.849    20137.314     9920.048        9.651        3.629      347.017       97.776        0.079      340.177       14.014      857.933
05/08/2014  19:23:00     -291.556     -171.621       -5.429      188.135      124.352       79.805    35394.929    15463.417     6368.857        8.585        2.861      338.318       80.950        0.057      340.183       14.024      857.905
05/08/2014  19:24:00     -365.916     -207.642       -2.576      229.449      180.191       88.854    52647.031    32468.796     7895.101       13.500        4.651      420.725      100.391        0.057      340.151       13.969      857.825
05/08/2014  19:25:00     -528.591     -186.422        5.266      356.753      226.677      104.898   127272.546    51382.238    11003.520       25.189        9.483      560.501      139.837        0.062      340.092       13.870      857.728
05/08/2014  19:26:00     -489.264     -386.936       -8.284      268.050      239.034      126.230    71850.858    57137.147    15933.957       26.702        7.246      623.778      130.849        0.044      340.099       13.883      857.651
05/08/2014  19:27:00     -504.896     -269.564        2.864      341.859      216.643      120.276   116867.349    46934.085    14466.313       25.290        8.913      572.350      151.100        0.070      340.091       13.870      857.565
05/08/2014  19:28:00     -323.502     -245.883       20.577      252.764      201.271       98.017    63889.836    40509.974     9607.303       13.975        5.700      406.340      104.436        0.066      340.095       13.875      857.471
05/08/2014  19:29:00     -518.928     -260.738       19.079      304.018      226.301      114.424    92427.187    51211.999    13092.891       24.715        7.837      580.750      147.790        0.065      340.026       13.759      857.308
05/08/2014  19:30:00     -433.003     -322.116       -0.263      230.716      227.743      114.532    53230.082    51866.647    13117.512       20.471        5.911      539.676      123.190        0.052      340.030       13.765      857.230
05/08/2014  19:31:00     -380.882     -335.555        7.470      280.673      199.588      105.536    78777.508    39835.454    11137.778       19.371        6.488      507.610      103.737        0.042      340.039       13.779      857.197
05/08/2014  19:32:00     -521.498     -383.927      -18.790      264.584      192.076      131.556    70004.566    36893.353    17306.964       27.193        6.210      647.580      154.472        0.057      340.044       13.791      857.162
05/08/2014  19:33:00     -436.809     -323.614        4.250      265.021      256.193      118.271    70236.361    65635.025    13987.959       22.267        7.493      543.625      131.010        0.058      340.077       13.846      857.193
05/08/2014  19:34:00     -573.875     -370.055       -6.572      311.778      222.724      107.327    97205.493    49606.071    11519.119       31.229        7.917      682.842      142.274        0.043      339.981       13.684      857.178
05/08/2014  19:35:00     -464.881     -306.332        1.557      228.090      201.396      117.139    52024.877    40560.404    13721.509       20.811        5.315      556.735      123.537        0.049      339.948       13.628      857.172
05/08/2014  19:36:00     -311.755     -361.542      -21.310      239.472      152.150       83.521    57346.661    23149.506     6975.824       15.790        4.374      477.393      105.846        0.049      339.976       13.674      857.240
05/08/2014  19:37:00     -341.417     -248.153       17.451      269.503      200.173      114.178    72631.862    40069.236    13036.700       15.207        6.287      422.073      134.520        0.102      339.929       13.596      857.219
05/08/2014  19:38:00     -511.224     -283.426       -5.707      301.458      232.339      113.875    90876.909    53981.580    12967.413       24.974        7.891      584.534      145.181        0.062      339.882       13.517      857.186
05/08/2014  19:39:00     -603.213     -298.323      -26.864      248.654      215.178      110.515    61828.631    46301.777    12213.539       28.694        6.017      672.951      119.368        0.031      339.959       13.646      857.144
05/08/2014  19:40:00     -478.338     -371.754      -25.578      254.428      242.697      131.058    64733.484    58901.646    17176.073       25.421        7.041      605.812      127.405        0.044      339.994       13.704      857.239
05/08/2014  19:41:00     -434.631     -265.134        4.987      239.658      183.534      106.976    57435.763    33684.753    11443.955       18.087        5.128      509.117      114.619        0.051      339.954       13.639      857.292
05/08/2014  19:42:00     -483.774     -350.842       -9.329      255.289      217.040      118.445    65172.579    47106.447    14029.247       24.174        6.315      597.602      111.139        0.035      339.853       13.468      857.328
05/08/2014  19:43:00     -640.133     -424.553      -37.120      270.866      259.119      136.539    73368.262    67142.660    18642.992       37.524        7.958      768.125      134.428        0.031      339.818       13.409      857.305
05/08/2014  19:44:00     -457.707     -362.379      -22.557      255.514      251.746      120.884    65287.440    63376.253    14612.923       24.227        7.164      583.793      107.932        0.034      339.836       13.438      857.331
05/08/2014  19:45:00     -384.566     -262.992       -0.822      219.959      155.008       92.431    48381.751    24027.517     8543.554       14.899        4.048      465.893      101.788        0.048      339.870       13.497      857.332
05/08/2014  19:46:00     -358.938     -321.531       -5.048      225.630      150.873       86.364    50908.698    22762.637     7458.713       15.667        4.057      481.890       69.114        0.021      339.917       13.573      857.391
05/08/2014  19:47:00     -324.351     -221.232       -9.078      205.583      174.850       83.910    42264.564    30572.685     7040.853       11.704        3.994      392.616       72.835        0.034      339.926       13.589      857.371
05/08/2014  19:48:00     -369.907     -206.335        5.778      206.376      184.987      103.176    42590.967    34220.187    10645.291       13.343        4.373      423.563      100.965        0.057      339.904       13.552      857.420
05/08/2014  19:49:00     -382.125     -194.459      -12.599      206.237      172.320       80.548    42533.518    29694.098     6487.973       13.134        3.936      428.759       91.406        0.045      339.910       13.562      857.421
05/08/2014  19:50:00     -311.573     -175.724       22.659      240.437      169.033       88.428    57809.922    28572.096     7819.493       11.132        4.710      357.711       96.406        0.073      339.943       13.621      857.463
05/08/2014  19:51:00     -327.269     -206.774       -0.355      235.835      230.509      106.102    55617.975    53134.453    11257.569       13.491        6.000      387.118      120.408        0.097      339.961       13.649      857.478
05/08/2014  19:52:00     -471.172     -287.717       -8.521      286.541      256.961      118.300    82105.747    66028.790    13994.948       23.346        8.106      552.073      137.225        0.062      339.914       13.571      857.501
05/08/2014  19:53:00     -583.188     -326.888        5.818      343.105      231.851      136.541   117720.724    53755.048    18643.503       31.852        9.506      668.553      156.141        0.055      339.937       13.609      857.430
05/08/2014  19:54:00     -462.037     -272.498        0.568      320.630      218.512      121.228   102803.743    47747.523    14696.305       22.646        8.262      536.408      148.084        0.076      339.970       13.665      857.449
05/08/2014  19:55:00     -430.849     -307.420        8.414      246.584      191.051      114.577    60803.843    36500.409    13127.842       19.530        5.522      529.280      123.331        0.054      339.922       13.583      857.484
05/08/2014  19:56:00     -633.889     -274.924      -14.110      324.679      192.079      117.556   105416.558    36894.471    13819.309       31.683        7.807      690.940      137.315        0.039      339.913       13.568      857.498
05/08/2014  19:57:00     -265.213     -209.320       -0.149      197.003      181.698       89.822    38810.185    33014.102     8068.051        9.701        3.995      337.865       98.628        0.085      339.959       13.647      857.497
05/08/2014  19:58:00     -326.609     -227.519       15.416      264.084      212.606      111.662    69740.592    45201.297    12468.300       14.302        6.371      398.044      129.630        0.106      339.891       13.531      857.472
05/08/2014  19:59:00     -394.263     -163.794       -9.651      371.343      211.682      106.585   137895.964    44809.219    11360.462       18.818        9.703      426.933      146.416        0.118      339.832       13.431      857.473
05/08/2014  20:00:00     -569.982     -364.552      -15.115      245.692      266.069      120.842    60364.677    70792.661    14602.768       30.185        7.288      676.593      123.542        0.033      339.831       13.431      857.456
05/08/2014  20:01:00     -375.435     -226.565       10.530      221.658      181.049      104.255    49132.439    32778.609    10869.102       14.257        4.639      438.501      124.173        0.080      339.863       13.483      857.457
05/08/2014  20:02:00     -427.953     -152.273       -2.945      300.416      182.031      107.559    90249.702    33135.437    11568.995       17.062        6.748      454.237      131.959        0.084      339.890       13.529      857.525
05/08/2014  20:03:00     -532.060     -261.867      -25.571      260.937      227.736      100.079    68088.335    51863.701    10015.846       24.112        6.498      593.011      104.793        0.031      339.864       13.486      857.508
05/08/2014  20:04:00     -250.926     -116.794       13.573      170.538      123.811       76.498    29083.119    15329.137     5851.975        6.352        2.513      276.776       83.434        0.091      339.886       13.523      857.536
05/08/2014  20:05:00     -268.533     -157.186        1.462      164.491       96.922       87.989    27057.169     9393.789     7742.054        7.050        2.210      311.155       89.357        0.082      339.880       13.512      857.584
05/08/2014  20:06:00     -409.881     -230.788      -19.160      223.794      178.249       86.295    50083.673    31772.671     7446.849       15.545        4.465      470.389       98.465        0.044      339.833       13.433      857.625
05/08/2014  20:07:00     -268.978     -210.275       11.388      247.931      140.880      106.164    61469.848    19847.166    11270.834       10.462        4.629      341.416      123.844        0.132      339.852       13.466      857.610
05/08/2014  20:08:00     -490.057     -179.177       14.412      321.827      248.753      118.428   103572.894    61878.293    14025.238       22.594        8.974      521.786      130.160        0.062      339.825       13.421      857.650
05/08/2014  20:09:00     -227.335     -169.885      -13.734      156.887      163.875       80.113    24613.428    26854.997     6418.026        6.930        2.894      283.799       78.971        0.077      339.875       13.504      857.683
05/08/2014  20:10:00     -236.391     -159.887       18.104      186.938      133.251       83.685    34945.993    17755.840     7003.101        7.073        2.985      285.385       84.203        0.087      339.855       13.472      857.714
05/08/2014  20:11:00     -444.135     -363.497        2.300      236.037      192.063      120.036    55713.479    36888.373    14408.659       21.818        5.351      573.921      120.092        0.044      339.821       13.413      857.708
05/08/2014  20:12:00     -566.080     -176.705      -21.986      295.028      269.966      123.777    87041.587    72881.508    15320.802       26.366        8.762      593.019      138.538        0.055      339.833       13.433      857.700
05/08/2014  20:13:00     -605.817     -244.715       -0.239      282.220      196.397      115.499    79647.989    38571.859    13339.953       27.920        6.578      653.376      133.944        0.042      339.863       13.484      857.727
05/08/2014  20:14:00     -284.592     -291.038      -11.985      251.300      161.747       92.317    63151.882    26161.996     8522.380       13.182        4.892      407.058      109.595        0.072      339.900       13.545      857.762
05/08/2014  20:15:00     -601.871     -467.994      -30.818      303.576      269.070      126.080    92158.626    72398.423    15896.065       38.130        9.023      762.409      143.640        0.035      339.887       13.526      857.801
05/08/2014  20:16:00     -291.225     -220.024        6.311      199.586      186.008      102.249    39834.518    34598.906    10454.757       10.906        4.244      364.997      115.797        0.101      339.891       13.532      857.841
05/08/2014  20:17:00     -337.180     -203.881       13.953      212.510      207.182       97.497    45160.609    42924.523     9505.577       12.650        4.880      394.028      103.466        0.069      339.880       13.512      857.907
05/08/2014  20:18:00     -308.793     -301.362      -15.110      254.571      201.356       96.716    64806.233    40544.196     9353.972       15.053        5.735      431.476      113.767        0.070      339.827       13.424      857.970
05/08/2014  20:19:00     -323.172     -214.688       -7.426      208.972      184.911       83.901    43669.481    34192.055     7039.327       11.773        4.245      387.983       82.350        0.045      339.809       13.393      857.975
05/08/2014  20:20:00     -305.977     -241.651      -13.197      142.399      140.920       88.571    20277.577    19858.553     7844.818       10.008        2.399      389.894       77.532        0.040      339.795       13.371      857.962
05/08/2014  20:21:00     -315.986     -288.239        3.678      219.688      177.544       91.062    48262.617    31521.726     8292.235       13.549        4.404      427.702      102.582        0.058      339.789       13.361      858.011
05/08/2014  20:22:00     -309.521     -234.681      -14.329      176.126      160.326       67.546    31020.454    25704.314     4562.427       10.617        3.064      388.431       74.281        0.037      339.786       13.356      858.145
05/08/2014  20:23:00      -21.239      -87.437       30.987       77.273       79.138       55.697     5971.135     6262.879     3102.202        1.219        0.767       89.979       45.683        0.258      339.807       13.393      858.176
05/08/2014  20:24:00     -184.306     -111.300        3.994      188.299      119.888       67.384    35456.607    14373.044     4540.569        5.036        2.719      215.306       79.239        0.135      339.803       13.383      858.134
05/08/2014  20:25:00     -356.391     -201.889      -15.986      155.286      154.580       80.327    24113.713    23894.907     6452.378       11.123        2.723      409.602       67.372        0.027      339.762       13.315      858.059
05/08/2014  20:26:00     -514.364     -194.924      -30.543      249.670      167.578       89.157    62335.202    28082.290     7948.958       20.091        4.918      550.060       88.285        0.026      339.795       13.370      858.034
05/08/2014  20:27:00     -149.681     -179.779        7.243      124.417      157.143       68.525    15479.598    24693.882     4695.716        4.981        2.243      233.933       77.415        0.110      339.833       13.434      858.115
05/08/2014  20:28:00      -48.681     -274.384       -9.686      174.462      161.580       85.452    30436.918    26108.012     7302.120        7.079        3.192      278.669       44.286        0.025      339.908       13.562      858.053
05/08/2014  20:29:00     -334.617     -270.567       -4.968      227.631      217.720       99.627    51815.921    47402.213     9925.503       14.715        5.457      430.319      119.333        0.077      339.832       13.431      858.095
05/08/2014  20:30:00     -176.996     -128.242       24.580      172.566      135.268       79.987    29779.063    18297.332     6397.928        5.142        2.724      218.572       93.165        0.182      339.819       13.411      858.016
05/08/2014  20:31:00     -440.560     -273.836      -18.983      266.926      246.761      126.202    71249.508    60890.781    15927.016       20.872        7.403      518.729      142.667        0.076      339.793       13.366      857.971
05/08/2014  20:32:00     -303.620     -105.644        7.175      164.849      179.699      100.318    27175.185    32291.757    10063.792        8.645        3.477      321.474       91.230        0.081      339.766       13.322      857.892
05/08/2014  20:33:00     -436.125     -195.729       -2.247      223.445      177.198       94.451    49927.623    31399.264     8921.057       15.937        4.512      478.032       94.012        0.039      339.738       13.276      857.925
05/08/2014  20:34:00     -298.577     -214.359       17.539      282.610      197.653      130.804    79868.542    39066.587    17109.672       13.570        6.802      367.557      142.108        0.149      339.728       13.258      857.922
05/08/2014  20:35:00     -321.026     -222.792       -1.752      276.064      219.584       95.440    76211.568    48217.162     9108.835       14.309        6.677      390.761      108.635        0.077      339.750       13.295      857.999
05/08/2014  20:36:00     -408.709     -361.065      -17.866      286.779      205.804      121.611    82242.001    42355.399    14789.316       21.853        6.969      545.354      137.208        0.063      339.818       13.409      857.907
05/08/2014  20:37:00     -635.367     -349.116       -9.937      299.985      242.556      115.118    89991.244    58833.286    13252.129       34.384        8.104      724.965      122.214        0.028      339.808       13.392      857.860
05/08/2014  20:38:00     -543.159     -200.841        7.716      248.155      260.018      126.400    61580.729    67609.344    15976.952       24.026        7.258      579.102      136.403        0.055      339.793       13.368      857.800
05/08/2014  20:39:00     -446.324     -297.613       -1.457      287.729      270.771      123.742    82787.763    73316.962    15312.194       22.956        8.571      536.450      146.265        0.074      339.760       13.312      857.793
05/08/2014  20:40:00     -435.496     -275.008        2.706      233.606      180.158       94.592    54571.948    32456.874     8947.677       18.062        4.799      515.060      107.395        0.043      339.732       13.265      857.813
05/08/2014  20:41:00     -301.035     -255.701        6.547      199.749      147.277       97.689    39899.597    21690.436     9543.146       11.358        3.557      394.975      100.936        0.065      339.730       13.262      857.856
05/08/2014  20:42:00     -248.934     -296.926        7.185      172.507      222.357       87.018    29758.832    49442.529     7572.181       11.846        4.339      387.470       89.131        0.053      339.759       13.309      857.895
05/08/2014  20:43:00     -240.368     -312.397       10.877      238.062      195.243      111.111    56673.563    38119.834    12345.592       13.129        5.357      394.168      115.481        0.086      339.817       13.406      857.829
05/08/2014  20:44:00     -331.924     -320.263        9.439      243.653      165.200       95.262    59366.565    27291.152     9074.814       15.426        4.787      461.240      111.126        0.058      339.777       13.340      857.834
05/08/2014  20:45:00     -231.319     -188.756       -0.355      167.669      123.185       80.974    28113.047    15174.620     6556.856        6.948        2.492      298.559       81.975        0.075      339.797       13.374      857.820
05/08/2014  20:46:00     -269.427     -207.949        1.090      231.206      196.503       89.201    53456.021    38613.272     7956.903       10.791        5.001      340.343      100.985        0.088      339.771       13.330      857.810
05/08/2014  20:47:00     -438.995     -319.322      -12.443      210.012      172.029      105.042    44105.222    29593.996    11033.914       18.977        4.237      542.848      109.821        0.041      339.722       13.247      857.816
05/08/2014  20:48:00     -298.773     -235.622       -7.169      198.675      165.867       89.954    39471.671    27511.877     8091.634       10.994        3.754      380.503       92.874        0.060      339.732       13.266      857.854
05/08/2014  20:49:00     -484.490     -255.048       -6.428      236.217      179.382       99.662    55798.677    32177.723     9932.473       19.885        4.895      547.522      115.729        0.045      339.721       13.246      857.886
05/08/2014  20:50:00     -372.016     -282.732      -16.693      296.427      168.259      111.112    87868.857    28311.047    12345.846       17.354        6.426      467.261      123.941        0.070      339.750       13.296      857.845
05/08/2014  20:51:00     -198.388     -254.887       45.631      235.437      177.289      130.473    55430.427    31431.340    17023.258       10.513        5.194      322.994      140.540        0.189      339.790       13.362      857.877
05/08/2014  20:52:00     -411.670     -260.931        1.506      301.986      252.684      135.585    91195.381    63849.339    18383.377       20.546        8.671      487.399      157.653        0.105      339.758       13.308      857.883
05/08/2014  20:53:00     -330.997     -124.550       21.696      268.891      194.917      102.303    72302.516    37992.470    10465.912       12.313        6.038      353.654      109.799        0.096      339.811       13.397      857.820
05/08/2014  20:54:00     -434.531     -248.417        7.373      291.408      306.052      141.398    84918.743    93667.926    19993.261       22.454        9.929      500.527      177.278        0.125      339.820       13.412      857.815
05/08/2014  20:55:00     -443.732     -367.062      -23.194      273.097      273.754      109.873    74582.081    74941.422    12072.133       24.685        8.080      575.875      111.829        0.038      339.802       13.381      857.741
05/08/2014  20:56:00     -390.233     -232.208        6.979      267.959      198.392      115.507    71802.257    39359.348    13341.969       16.535        6.225      454.095      139.128        0.094      339.828       13.425      857.695
05/08/2014  20:57:00     -463.668     -175.493       -1.520      303.380      207.603      119.672    92039.410    43098.855    14321.507       19.759        7.473      495.768      141.113        0.081      339.831       13.431      857.691
05/08/2014  20:58:00     -461.938     -298.501      -19.764      260.130      214.056      113.470    67667.678    45819.922    12875.449       21.460        6.318      549.990      124.367        0.051      339.814       13.402      857.711
05/08/2014  20:59:00     -408.479     -203.698      -17.788      185.035      197.243       98.693    34237.848    38904.909     9740.315       14.576        4.144      456.451       95.518        0.044      339.776       13.339      857.754
05/08/2014  21:00:00     -439.529     -330.551      -16.444      214.993      193.067      106.553    46222.092    37274.847    11353.601       19.877        4.743      549.954      107.999        0.039      339.730       13.262      857.767
05/08/2014  21:01:00     -407.745     -349.789        3.889      269.425      220.617      134.915    72589.691    48671.729    18202.102       21.402        6.973      537.223      151.505        0.080      339.694       13.200      857.735
05/08/2014  21:02:00     -732.492     -306.868      -36.423      346.219      266.540      127.061   119867.418    71043.498    16144.533       41.951       10.353      794.174      154.859        0.038      339.656       13.136      857.738
05/08/2014  21:03:00     -571.834     -317.230      -34.720      275.045      212.326      118.448    75649.891    45082.500    14030.026       28.177        6.738      653.934      126.465        0.037      339.700       13.210      857.706
05/08/2014  21:04:00     -315.219     -204.969       31.024      303.722      199.464      130.678    92246.890    39785.730    17076.613       14.569        7.455      375.999      157.697        0.176      339.718       13.241      857.679
05/08/2014  21:05:00     -438.266     -345.111       -3.019      228.083      186.161      112.794    52021.906    34655.946    12722.505       20.527        4.970      557.834      116.689        0.044      339.679       13.175      857.622
05/08/2014  21:06:00     -411.420     -295.707       17.221      336.270      212.149      122.829   113077.773    45007.378    15086.930       21.505        8.659      506.665      165.960        0.107      339.643       13.113      857.606
05/08/2014  21:07:00     -397.180     -263.615      -10.155      244.878      173.355      100.155    59965.032    30052.025    10031.004       16.368        5.002      476.702      124.249        0.068      339.641       13.110      857.686
05/08/2014  21:08:00     -212.330     -147.926       20.267      209.313      145.249       92.489    43812.101    21097.226     8554.299        7.041        3.673      258.778      114.639        0.196      339.664       13.150      857.685
05/08/2014  21:09:00     -556.767     -291.337      -26.246      278.855      216.168       99.156    77759.996    46728.434     9831.849       26.491        6.716      628.384      118.847        0.036      339.604       13.048      857.683
05/08/2014  21:10:00     -513.267     -272.485      -13.447      259.392      198.556      113.960    67283.980    39424.547    12986.887       22.876        5.985      581.112      124.327        0.046      339.610       13.057      857.760
05/08/2014  21:11:00     -449.973     -327.791      -23.598      207.563      210.652       89.413    43082.416    44374.361     7994.735       20.295        4.773      556.707       90.581        0.026      339.682       13.179      857.803
05/08/2014  21:12:00     -271.462     -192.822       12.924      225.792      177.936       88.643    50982.202    31661.361     7857.603       10.075        4.525      332.974       89.149        0.072      339.634       13.099      857.809
05/08/2014  21:13:00     -535.467     -369.622        3.602      289.355      249.237      137.889    83726.525    62119.158    19013.287       29.408        8.243      650.650      155.578        0.057      339.605       13.050      857.739
05/08/2014  21:14:00     -483.973     -350.598       -8.609      241.919      216.975      108.445    58525.039    47078.116    11760.270       23.727        5.868      597.619      123.095        0.042      339.600       13.041      857.773
05/08/2014  21:15:00     -400.650     -302.479       -4.003      226.583      153.893      109.487    51339.699    23682.914    11987.330       16.950        4.350      502.010      114.214        0.052      339.613       13.063      857.763
05/08/2014  21:16:00     -386.010     -173.147       -5.428      204.617      144.764       83.031    41867.949    20956.525     6894.211       12.435        3.486      423.064       84.086        0.040      339.640       13.108      857.799
05/08/2014  21:17:00     -382.268     -216.229       -4.657      214.054      186.333       90.025    45819.318    34719.869     8104.459       14.076        4.432      439.185       82.696        0.035      339.793       13.366      857.769
05/08/2014  21:18:00     -389.926     -235.708        2.059      257.637      218.090       91.950    66376.692    47563.172     8454.782       16.498        6.120      455.632      107.112        0.055      339.797       13.375      857.837
05/08/2014  21:19:00     -550.799     -397.385      -14.654      333.317      276.569      156.669   111100.223    76490.501    24545.252       33.678       10.607      679.187      170.463        0.063      339.866       13.489      857.749
05/08/2014  21:20:00     -470.959     -383.671      -26.251      310.350      214.642      140.649    96316.822    46071.179    19782.253       26.590        8.109      607.458      152.471        0.063      339.939       13.612      857.795
05/08/2014  21:21:00     -247.057     -223.890       -2.219      153.538      171.113       72.196    23574.011    29279.539     5212.256        8.461        2.903      333.413       67.010        0.040      339.930       13.596      857.861
05/08/2014  21:22:00     -310.297     -136.583       16.159      206.786      147.972       88.823    42760.545    21895.619     7889.531        9.386        3.627      339.026       92.913        0.075      339.878       13.510      857.964
05/08/2014  21:23:00     -401.998     -274.531      -22.336      217.687      238.251       97.987    47387.761    56763.724     9601.406       17.559        5.688      486.795      102.537        0.044      339.742       13.281      858.027
05/08/2014  21:24:00     -294.559     -182.899        3.174      208.150      131.880       77.495    43326.238    17392.265     6005.487        9.346        3.336      346.723       83.504        0.058      339.693       13.199      857.994
05/08/2014  21:25:00     -446.346     -309.427       -1.398      233.992      179.196      103.585    54752.202    32111.233    10729.829       19.626        4.880      543.111      101.006        0.035      339.613       13.063      858.026
05/08/2014  21:26:00     -371.321     -244.451      -19.866      172.936      140.316       76.398    29906.855    19688.663     5836.618       12.672        2.772      444.562       71.759        0.026      339.609       13.057      858.147
05/08/2014  21:27:00     -475.153     -238.579      -15.241      163.953      153.870       80.005    26880.479    23676.091     6400.806       16.993        2.848      531.687       78.461        0.022      339.630       13.091      858.228
05/08/2014  21:28:00     -342.095     -176.336        0.405      199.334      155.696       77.707    39734.238    24241.298     6038.361       10.905        3.501      384.868       88.090        0.052      339.614       13.065      858.209
05/08/2014  21:29:00     -329.065     -168.075       -9.833      222.454      173.420       96.762    49485.840    30074.416     9362.838       11.276        4.446      369.504      106.846        0.084      339.630       13.092      858.210
05/08/2014  21:30:00     -483.888     -234.755      -10.202      228.729      181.242       86.181    52316.918    32848.803     7427.146       19.096        4.630      537.827      106.630        0.039      339.599       13.039      858.291
05/08/2014  21:31:00     -517.447     -193.992       -5.511      288.382      222.000      118.011    83164.175    49284.052    13926.625       22.587        7.319      552.616      133.685        0.059      339.590       13.026      858.241
05/08/2014  21:32:00     -480.114     -179.397      -17.289      279.150      232.040       97.801    77924.735    53842.656     9565.112       20.213        7.067      512.535      118.602        0.054      339.639       13.107      858.216
05/08/2014  21:33:00     -399.950     -232.252      -13.275      252.229      249.865      106.735    63619.651    62432.578    11392.393       17.573        6.872      462.494      122.438        0.070      339.641       13.109      858.209
05/08/2014  21:34:00     -385.432     -243.719        3.276      226.398      206.880       97.216    51256.085    42799.418     9450.963       15.572        5.175      456.023       95.788        0.044      339.625       13.084      858.279
05/08/2014  21:35:00     -626.072     -362.994       -8.522      315.577      283.281      136.460    99588.705    80248.027    18621.412       36.109        9.923      723.693      163.664        0.051      339.633       13.097      858.312
05/08/2014  21:36:00     -612.269     -307.966      -23.543      347.849      283.271      115.505   120998.929    80242.735    13341.344       34.238       10.729      685.358      126.679        0.034      339.631       13.093      858.252
05/08/2014  21:37:00     -335.160     -210.821        0.722      280.191      178.506      114.302    78507.215    31864.289    13065.034       14.008        6.172      395.951      130.075        0.108      339.639       13.106      858.350
05/08/2014  21:38:00     -318.416     -124.723       14.465      216.162      185.802      103.698    46726.130    34522.389    10753.254       10.456        4.600      341.971      114.872        0.113      339.604       13.048      858.462
05/08/2014  21:39:00     -519.168     -383.680      -33.053      246.919      186.601      114.881    60968.794    34819.762    13197.588       26.339        5.449      645.558      117.608        0.033      339.596       13.036      858.510
05/08/2014  21:40:00     -346.779     -194.036        6.008      314.138      203.709       95.188    98682.589    41497.503     9060.843       15.356        7.462      397.373      125.344        0.099      339.630       13.093      858.455
05/08/2014  21:41:00     -384.111     -163.209       -1.547      262.048      167.879       99.962    68669.196    28183.327     9992.419       14.049        5.342      417.347      113.194        0.074      339.612       13.063      858.474
05/08/2014  21:42:00     -306.327     -265.080       -4.708      267.557      168.859       85.171    71587.002    28513.278     7254.160       13.572        5.368      405.097      103.069        0.065      339.621       13.077      858.414
05/08/2014  21:43:00     -516.716     -206.914       21.532      342.986      211.776      132.812   117639.501    44848.981    17639.159       24.516        9.006      556.605      155.127        0.078      339.642       13.113      858.401
05/08/2014  21:44:00     -457.937     -238.386      -13.683      257.633      227.271      106.314    66374.686    51651.995    11302.582       19.800        6.466      516.269      108.611        0.044      339.615       13.067      858.373
05/08/2014  21:45:00     -377.116     -200.925       -6.698      277.470      159.431      104.332    76989.839    25418.344    10885.078       14.794        5.665      427.302      120.473        0.079      339.610       13.059      858.415
05/08/2014  21:46:00     -444.579     -249.525       -5.843      213.560      225.833       97.995    45607.922    51000.676     9602.937       18.306        5.311      509.817      103.487        0.041      339.581       13.010      858.454
05/08/2014  21:47:00     -457.948     -297.463       -5.579      295.727      194.812      116.349    87454.255    37951.846    13537.205       21.856        6.947      546.078      127.270        0.054      339.561       12.976      858.409
05/08/2014  21:48:00     -476.992     -273.341       -2.598      266.442      287.368      123.498    70991.334    82580.370    15251.835       23.550        8.441      549.760      130.379        0.056      339.587       13.020      858.419
05/08/2014  21:49:00     -422.129     -173.348       -8.870      197.599      206.208      101.137    39045.334    42521.859    10228.711       15.004        4.590      456.336       95.579        0.044      339.567       12.987      858.495
05/08/2014  21:50:00     -336.142     -212.547        3.293      210.697      156.265      111.626    44393.319    24418.888    12460.258       11.971        4.064      397.703      120.021        0.091      339.560       12.973      858.445
05/08/2014  21:51:00     -345.608      -94.993       -6.690      183.509      148.507       76.542    33675.481    22054.331     5858.638        9.504        3.079      358.425       74.853        0.044      339.569       12.989      858.392
05/08/2014  21:52:00     -304.378     -159.181        5.224      212.129      169.298       89.791    44998.661    28661.785     8062.503        9.985        4.086      343.489      108.134        0.099      339.549       12.954      858.367
05/08/2014  21:53:00     -455.411     -334.891       -6.497      230.729      290.321      109.065    53236.087    84286.213    11895.201       23.448        7.471      565.289      121.248        0.046      339.517       12.901      858.333
05/08/2014  21:54:00     -707.211     -341.058      -30.744      226.769      192.847      115.260    51424.103    37190.004    13284.954       35.964        5.095      785.155      110.369        0.020      339.468       12.819      858.326
05/08/2014  21:55:00     -422.096     -264.861      -11.030      198.793      169.660       97.791    39518.508    28784.579     9563.049       16.314        3.893      498.313      102.315        0.042      339.466       12.814      858.360
05/08/2014  21:56:00     -449.184     -169.763      -26.614      277.205      232.067      116.219    76842.741    53855.144    13506.895       18.772        7.210      480.193      132.285        0.076      339.465       12.813      858.434
05/08/2014  21:57:00     -416.716     -163.434        8.190      217.620      217.759      109.087    47358.278    47418.839    11899.909       15.353        5.334      447.619      100.202        0.050      339.450       12.788      858.414
05/08/2014  21:58:00     -489.763     -317.630      -16.423      223.243      169.597       96.919    49837.245    28763.167     9393.377       21.449        4.400      583.743      103.625        0.032      339.436       12.765      858.457
05/08/2014  21:59:00     -393.523     -258.947      -16.399      157.683      182.683       75.820    24863.804    33372.943     5748.641       14.307        3.199      471.078       81.103        0.030      339.427       12.749      858.477
05/08/2014  22:00:00     -383.498     -273.644      -27.420      164.236      127.194       77.525    26973.472    16178.427     6010.129       13.592        2.458      471.118       79.119        0.028      339.396       12.699      858.522
05/08/2014  22:01:00     -395.697     -205.627       -3.693      225.015      143.197       87.732    50631.950    20505.507     7696.990       13.884        3.942      445.935      105.760        0.056      339.356       12.629      858.505
05/08/2014  22:02:00     -444.040     -220.860      -30.955      156.695      188.733       75.560    24553.265    35620.007     5709.341       15.638        3.294      495.934       81.181        0.027      339.342       12.604      858.477
05/08/2014  22:03:00     -244.945      -98.742       22.072      191.276      166.870       99.647    36586.451    27845.560     9929.442        7.228        3.718      264.098       97.492        0.136      339.351       12.620      858.498
05/08/2014  22:04:00     -483.569     -322.556      -12.933      264.079      227.689      115.912    69737.833    51842.111    13435.508       23.650        6.751      581.276      120.100        0.043      339.307       12.547      858.499
05/08/2014  22:05:00     -485.867     -264.587       -9.231      190.165      170.238       97.696    36162.580    28981.025     9544.472       19.041        3.734      553.239      106.090        0.037      339.313       12.558      858.458
05/08/2014  22:06:00     -324.330     -272.302       -9.618      191.953      133.486       84.453    36845.814    17818.544     7132.341       12.060        3.090      423.483       93.570        0.049      339.271       12.487      858.523
05/08/2014  22:07:00     -425.021     -163.752      -29.367      207.031      164.161       78.793    42861.760    26948.815     6208.400       14.215        3.801      455.475       97.919        0.046      339.257       12.462      858.559
05/08/2014  22:08:00     -470.129      -83.418      -17.008      163.833      184.132       74.164    26841.362    33904.725     5500.317       14.724        3.312      477.473       82.282        0.030      339.211       12.387      858.540
05/08/2014  22:09:00     -427.446     -199.442       -9.494      232.064      151.966       84.467    53853.511    23093.605     7134.653       15.331        4.204      471.686       88.612        0.035      339.202       12.372      858.489
05/08/2014  22:10:00     -375.998     -160.225       -0.714      264.585      172.236       95.401    70004.962    29665.169     9101.290       13.789        5.439      408.713      115.817        0.080      339.231       12.420      858.428
05/08/2014  22:11:00     -449.333     -243.800      -23.471      253.193      202.119      112.616    64106.823    40852.143    12682.262       18.974        5.882      511.213      136.795        0.072      339.223       12.405      858.380
05/08/2014  22:12:00     -328.905      -13.157       22.010      229.964      162.177       95.132    52883.668    26301.258     9050.125        9.852        4.412      329.168       98.705        0.090      339.247       12.447      858.307
05/08/2014  22:13:00     -168.270      -61.838       28.157      156.586      109.228       77.836    24519.288    11930.811     6058.439        3.771        2.125      179.273       84.561        0.222      339.247       12.447      858.309
05/08/2014  22:14:00     -427.599     -249.365       -2.858      233.900      192.246      101.011    54709.010    36958.667    10203.282       17.343        5.094      494.999      118.523        0.057      339.238       12.431      858.268
05/08/2014  22:15:00     -427.002     -284.743      -25.713      172.725      212.097       77.749    29833.959    44985.177     6044.981       17.245        4.043      513.234       75.740        0.022      339.263       12.473      858.298
05/08/2014  22:16:00     -384.553     -317.019      -14.676      191.968      196.347       95.546    36851.561    38552.064     9129.125       16.655        4.227      498.379       97.541        0.038      339.274       12.493      858.322
05/08/2014  22:17:00     -319.974     -236.508       -4.035      203.964      153.892       93.295    41601.349    23682.864     8703.967       11.615        3.699      397.894      106.839        0.072      339.275       12.494      858.356
05/08/2014  22:18:00     -523.956     -348.605       -4.959      324.392      224.196      136.436   105230.309    50264.028    18614.870       28.506        8.705      629.329      158.967        0.064      339.244       12.442      858.297
05/08/2014  22:19:00     -640.081     -276.866      -15.651      348.559      292.161      127.953   121493.691    85358.101    16371.842       35.487       11.161      697.394      164.375        0.056      339.251       12.454      858.292
05/08/2014  22:20:00     -331.014     -232.599       29.450      327.853      191.839      133.927   107487.831    36802.393    17936.517       16.335        8.111      404.565      165.362        0.167      339.264       12.476      858.321
05/08/2014  22:21:00     -595.970     -290.079      -48.301      374.156      254.364      131.898   139992.459    64700.980    17397.109       33.183       11.105      662.817      158.375        0.057      339.273       12.490      858.320
05/08/2014  22:22:00     -468.864     -214.001      -11.061      289.470      210.561      101.066    83792.900    44336.117    10214.429       20.202        6.917      515.393      113.868        0.049      339.266       12.479      858.372
05/08/2014  22:23:00     -305.959     -165.895       -8.020      200.953      138.613       76.528    40381.909    19213.600     5856.531        9.331        3.273      348.040       89.574        0.066      339.257       12.462      858.391
05/08/2014  22:24:00     -427.694     -205.712       -5.902      264.889      179.481      104.371    70166.009    32213.582    10893.321       16.925        5.664      474.594      113.684        0.057      339.200       12.368      858.353
05/08/2014  22:25:00     -423.429     -220.500       -2.704      214.540      157.358       91.135    46027.240    24761.466     8305.623       15.349        3.955      477.402      105.830        0.049      339.197       12.363      858.333
05/08/2014  22:26:00     -419.234     -198.575      -20.441      273.065      207.070      133.072    74564.443    42878.138    17708.198       17.535        6.758      463.884      131.196        0.080      339.171       12.320      858.341
05/08/2014  22:27:00     -429.185     -176.581        5.489      234.259      201.553      107.323    54877.221    40623.774    11518.299       16.119        5.351      464.091      121.181        0.068      339.170       12.317      858.342
05/08/2014  22:28:00     -455.867     -254.793        8.320      317.492      228.133      121.307   100801.452    52044.672    14715.341       22.015        8.378      522.240      151.262        0.084      339.185       12.343      858.273
05/08/2014  22:29:00     -555.062     -277.674        1.324      212.461      224.683      117.302    45139.866    50482.252    13759.746       24.727        5.469      620.642      126.843        0.042      339.159       12.298      858.260
05/08/2014  22:30:00     -559.040     -289.483      -25.622      269.230      194.061      117.118    72484.900    37659.503    13716.575       26.040        6.193      629.545      127.787        0.041      339.126       12.243      858.238
05/08/2014  22:31:00     -441.882     -282.451       11.156      256.948      214.743      102.824    66022.142    46114.650    10572.799       19.891        6.135      524.441      115.417        0.048      339.113       12.221      858.298
05/08/2014  22:32:00     -372.389     -184.689       -0.491      207.888      204.904       94.231    43217.448    41985.558     8879.538       13.342        4.704      415.673      102.593        0.061      339.109       12.213      858.349
05/08/2014  22:33:00     -370.513     -164.385        0.422      227.707      159.822       85.593    51850.301    25543.110     7326.189       12.449        4.236      405.342      100.602        0.062      339.082       12.168      858.346
05/08/2014  22:34:00     -283.863     -195.724        1.637      169.525      153.310       80.302    28738.625    23503.848     6448.376        8.878        2.935      344.798       81.114        0.055      339.082       12.168      858.379
05/08/2014  22:35:00     -498.936     -242.070      -13.443      234.000      199.985       97.260    54756.093    39993.888     9459.490       20.594        5.210      554.558       93.724        0.029      339.063       12.137      858.353
05/08/2014  22:36:00     -424.234     -298.902      -11.888      217.189      203.468      107.192    47170.933    41399.330    11490.150       18.474        5.003      518.958      109.403        0.044      339.057       12.127      858.318
05/08/2014  22:37:00     -529.777     -418.696      -31.332      248.017      181.434      119.153    61512.187    32918.343    14197.385       28.277        5.431      675.256      134.794        0.040      339.038       12.094      858.285
05/08/2014  22:38:00     -432.264     -276.910       -3.256      259.318      254.722      123.543    67245.668    64883.338    15262.945       20.544        7.370      513.353      133.160        0.067      339.016       12.057      858.255
05/08/2014  22:39:00     -406.038     -317.261       -8.131      250.966      213.315      127.873    62984.175    45503.367    16351.536       19.519        6.242      515.288      143.873        0.078      338.998       12.028      858.257
05/08/2014  22:40:00     -405.428     -187.614        1.881      321.036      175.056      115.195   103063.807    30644.776    13269.956       17.325        7.349      446.733      143.560        0.103      338.966       11.975      858.236
05/08/2014  22:41:00     -519.002     -119.773        0.277      216.808      235.935      112.758    47005.884    55665.488    12714.380       19.952        5.769      532.644      118.675        0.050      338.964       11.971      858.261
05/08/2014  22:42:00     -380.088      -38.890       31.056      220.803      156.596      105.192    48753.912    24522.374    11065.416       11.563        4.217      382.073      123.092        0.104      338.952       11.950      858.304
05/08/2014  22:43:00     -405.787     -343.696      -19.930      256.582      200.617      120.387    65834.216    40247.139    14492.994       20.186        6.029      531.780      135.926        0.065      338.944       11.937      858.350
05/08/2014  22:44:00     -448.277     -251.581      -12.540      211.186      164.873      102.939    44599.589    27183.210    10596.379       17.337        4.119      514.048      120.310        0.055      338.934       11.920      858.344
05/08/2014  22:45:00     -435.609     -211.974      -20.075      214.960      182.804       90.084    46207.963    33417.361     8115.071       16.140        4.387      484.446      114.085        0.055      338.915       11.887      858.319
05/08/2014  22:46:00     -377.249     -179.971      -15.274      272.391      160.039      105.180    74196.624    25612.411    11062.778       14.288        5.544      417.979      121.598        0.085      338.887       11.841      858.294
05/08/2014  22:47:00     -472.819     -212.785        6.782      239.441      253.602      115.264    57332.008    64314.054    13285.893       20.188        6.747      518.493      121.944        0.055      338.851       11.780      858.258
05/08/2014  22:48:00     -458.753     -255.288        3.698      348.041      207.170      136.116   121132.796    42919.245    18527.579       22.907        9.129      525.001      166.422        0.100      338.884       11.837      858.202
05/08/2014  22:49:00     -406.485     -365.200      -19.380      274.171      302.296      118.114    75169.834    91382.806    13950.951       23.970        9.025      546.444      147.234        0.073      338.841       11.764      858.186
05/08/2014  22:50:00     -520.364     -216.868        8.248      363.011      230.764      140.176   131777.325    53251.910    19649.368       26.124       10.234      563.747      176.283        0.098      338.840       11.760      858.228
05/08/2014  22:51:00     -457.853     -210.480       -4.155      212.282      173.651       91.125    45063.461    30154.802     8303.702       16.872        4.176      503.916      100.598        0.040      338.836       11.756      858.206
05/08/2014  22:52:00     -380.802     -250.889       -5.769      199.785      187.801       96.739    39913.957    35269.202     9358.442       14.625        4.227      456.021      102.614        0.051      338.842       11.766      858.202
05/08/2014  22:53:00     -483.823     -188.641       -8.843      230.438      233.613      109.099    53101.878    54575.110    11902.684       19.464        5.979      519.298       99.772        0.037      338.842       11.765      858.220
05/08/2014  22:54:00     -337.806     -200.859       -9.099      203.855      170.163       87.342    41556.962    28955.416     7628.625       11.633        3.907      393.011       94.782        0.058      338.846       11.772      858.246
05/08/2014  22:55:00     -312.545     -215.549        7.046      211.703      220.599      120.163    44817.982    48663.744    14439.106       12.604        5.396      379.665      131.887        0.121      338.865       11.803      858.243
05/08/2014  22:56:00     -338.503     -201.423        6.060      245.681      188.614       96.618    60359.268    35575.209     9334.955       13.021        5.263      393.898      102.117        0.067      338.997       12.025      858.270
05/08/2014  22:57:00     -460.518     -278.086        0.422      256.436      203.698      117.773    65759.366    41493.056    13870.363       20.524        6.056      537.967      132.720        0.061      338.982       12.001      858.320
05/08/2014  22:58:00     -496.221     -254.235      -11.800      214.607      228.203      108.160    46056.188    52076.525    11698.486       21.040        5.492      557.557      113.888        0.042      338.885       11.837      858.315
05/08/2014  22:59:00     -388.676     -127.408      -12.225      246.750      165.185       99.984    60885.421    27285.934     9996.747       13.279        4.908      409.025       88.829        0.047      338.870       11.813      858.362
05/08/2014  23:00:00     -491.813     -267.602       -7.527      281.712      206.213      109.693    79361.816    42523.597    12032.625       22.371        6.696      559.903      115.974        0.043      338.876       11.823      858.389
05/08/2014  23:01:00     -357.237     -246.525        7.291      206.225      184.968      109.787    42528.883    34212.982    12053.184       13.860        4.440      434.042      125.872        0.084      338.886       11.838      858.397
05/08/2014  23:02:00     -569.857     -255.855      -15.252      260.937      217.968      113.707    68088.268    47510.005    12929.364       25.945        6.426      624.659      113.828        0.033      338.868       11.808      858.425
05/08/2014  23:03:00     -367.967     -219.450        0.061      238.324      178.787       92.638    56798.538    31964.926     8581.714       14.043        4.867      428.437       95.945        0.050      338.867       11.807      858.419
05/08/2014  23:04:00     -263.603     -180.889        8.101      210.509      211.369       86.515    44314.047    44676.699     7484.911        9.935        4.824      319.699       99.244        0.096      338.869       11.812      858.402
05/08/2014  23:05:00     -522.666     -211.966      -22.402      220.424      234.163      106.569    48586.543    54832.400    11356.905       21.667        5.739      564.012      107.732        0.036      338.846       11.773      858.355
05/08/2014  23:06:00     -433.753     -262.836       10.334      273.923      194.525      122.394    75033.959    37839.803    14980.215       19.257        6.393      507.173      126.424        0.062      338.843       11.767      858.404
05/08/2014  23:07:00     -416.613     -328.654       -3.216      227.973      231.700      107.853    51971.834    53684.898    11632.240       19.942        5.864      530.641      122.631        0.053      338.860       11.795      858.342
05/08/2014  23:08:00     -402.173     -311.936       -9.398      239.297      183.964      110.470    57262.846    33842.824    12203.670       18.120        5.165      508.967      114.159        0.050      338.824       11.735      858.358
05/08/2014  23:09:00     -416.299     -218.540        4.397      278.012      193.214      112.079    77290.714    37331.817    12561.777       17.411        6.359      470.175      125.907        0.072      338.833       11.750      858.324
05/08/2014  23:10:00     -389.604     -201.253       -1.396      196.686      136.507       81.993    38685.364    18634.067     6722.925       12.816        3.202      438.514       93.278        0.045      338.810       11.712      858.310
05/08/2014  23:11:00     -389.337     -225.177       -1.516      247.341      244.713       98.171    61177.584    59884.249     9637.460       16.647        6.535      449.765      120.268        0.072      338.812       11.716      858.332
05/08/2014  23:12:00     -415.325     -127.532      -16.897      163.711      129.428       78.020    26801.189    16751.593     6087.130       11.933        2.482      434.464       83.922        0.037      338.825       11.738      858.355
05/08/2014  23:13:00     -235.998     -239.434       -0.090      241.627      167.850       96.003    58383.535    28173.590     9216.596       10.438        4.789      336.190      100.328        0.089      338.881       11.831      858.370
05/08/2014  23:14:00     -521.207     -220.399      -12.400      266.182      220.990      114.402    70852.902    48836.623    13087.790       22.655        6.639      565.891      123.112        0.047      338.812       11.715      858.309
05/08/2014  23:15:00     -511.979     -312.470      -35.598      330.737      224.492      123.181   109386.713    50396.528    15173.601       26.796        8.748      599.800      145.943        0.059      338.783       11.667      858.318
05/08/2014  23:16:00     -616.254     -418.594      -26.657      315.413      221.585      127.501    99485.099    49099.786    16256.408       36.024        8.242      744.976      167.733        0.051      338.771       11.646      858.310
05/08/2014  23:17:00     -638.708     -213.473      -34.108      437.585      219.894      130.977   191480.342    48353.584    17155.054       35.578       12.849      673.438      186.947        0.077      338.792       11.682      858.277
05/08/2014  23:18:00     -409.796     -168.779      -11.258      260.706      183.780      104.676    67967.434    33775.066    10957.059       15.460        5.635      443.192      127.136        0.082      338.797       11.690      858.355
05/08/2014  23:19:00     -476.016     -177.724       -5.480      254.886      237.138      104.152    64966.663    56234.196    10847.596       19.510        6.602      508.112      116.920        0.053      338.771       11.647      858.351
05/08/2014  23:20:00     -335.681     -190.597      -13.951      238.475      162.082      100.489    56870.395    26270.476    10098.000       12.120        4.662      386.017      108.520        0.079      338.786       11.671      858.379
05/08/2014  23:21:00     -492.494     -257.257      -10.641      331.268      182.185      129.632   109738.678    33191.346    16804.431       23.426        7.987      555.636      148.341        0.071      338.779       11.660      858.386
05/08/2014  23:22:00     -353.254     -118.824       13.234      203.628      167.096       95.811    41464.433    27921.142     9179.791       10.881        3.928      372.703      100.161        0.072      338.763       11.634      858.385
05/08/2014  23:23:00     -336.784     -104.045       -4.777      310.338      208.298      102.281    96309.739    43387.898    10461.324       13.719        7.508      352.490      123.091        0.122      338.807       11.707      858.359
05/08/2014  23:24:00     -492.273      -13.073      -28.055      255.432      173.360       97.700    65245.515    30053.753     9545.339       17.405        5.242      492.446      117.614        0.057      338.788       11.677      858.316
05/08/2014  23:25:00     -355.417     -182.985       -1.027      285.763      262.722      127.232    81660.576    69022.649    16188.034       16.331        8.344      399.756      151.949        0.144      338.801       11.697      858.266
05/08/2014  23:26:00     -514.732     -106.215      -38.152      291.818      180.461      104.615    85157.526    32566.323    10944.288       20.315        6.433      525.577      132.208        0.063      338.790       11.678      858.264
05/08/2014  23:27:00     -374.429     -269.926      -17.830      284.014      198.998      111.704    80664.036    39600.109    12477.799       17.303        6.637      461.581      125.887        0.074      338.807       11.706      858.196
05/08/2014  23:28:00     -328.229     -109.784        8.967      203.640      154.446       87.405    41469.233    23853.699     7639.631        9.640        3.648      346.102       86.223        0.062      338.828       11.742      858.224
05/08/2014  23:29:00     -372.735     -171.088      -10.142      194.533      160.227       88.106    37842.983    25672.845     7762.697       11.978        3.564      410.124       93.671        0.052      338.850       11.779      858.218
05/08/2014  23:30:00     -549.600     -320.238      -12.304      348.378      250.561      127.509   121367.400    62780.628    16258.470       30.255       10.020      636.091      136.092        0.046      338.840       11.762      858.178
05/08/2014  23:31:00     -442.582      -85.917       -0.278      303.029      191.375      111.350    91826.604    36624.430    12398.761       17.203        7.042      450.844      134.415        0.089      338.885       11.837      858.180
05/08/2014  23:32:00     -582.216     -244.214      -15.596      265.428      214.372      113.706    70452.081    45955.422    12929.121       26.407        6.467      631.361      115.556        0.033      338.856       11.789      858.224
05/08/2014  23:33:00     -391.986     -191.500        4.911      275.442      190.811      108.285    75868.345    36408.717    11725.685       15.715        6.200      436.263      127.113        0.085      338.822       11.734      858.237
05/08/2014  23:34:00     -442.728     -251.227      -11.554      289.795      227.937      132.313    83981.107    51955.110    17506.688       20.632        7.672      509.041      148.475        0.085      338.837       11.758      858.244
05/08/2014  23:35:00     -486.934     -199.134        3.551      344.466      260.367      139.100   118657.116    67791.088    19348.879       24.124       10.290      526.079      161.448        0.094      338.871       11.815      858.219
05/08/2014  23:36:00     -671.684     -366.656      -19.070      411.530      315.153      149.739   169356.631    99321.138    22421.691       43.847       14.555      765.243      193.315        0.064      338.867       11.808      858.142
05/08/2014  23:37:00     -314.975     -159.050       14.263      247.423      207.902      113.511    61218.273    43223.076    12884.826       12.099        5.866      352.854      123.140        0.122      338.868       11.808      858.243
05/08/2014  23:38:00     -222.314     -118.988       22.288      208.104      234.159      104.209    43307.410    54830.650    10859.474        8.652        5.450      252.154      115.819        0.211      338.852       11.784      858.273
05/08/2014  23:39:00     -470.181     -274.307      -15.911      254.358      225.661      109.023    64698.200    50923.049    11885.978       21.201        6.375      544.347      123.761        0.052      338.799       11.692      858.272
05/08/2014  23:40:00     -523.049     -245.749      -25.043      323.858      240.002      123.750   104884.109    57601.170    15314.120       25.616        8.890      577.904      127.805        0.049      338.806       11.704      858.274
05/08/2014  23:41:00     -571.280     -242.971       -9.808      310.632      208.371      109.972    96492.131    43418.670    12093.862       26.872        7.600      620.803      140.179        0.051      338.804       11.702      858.225
05/08/2014  23:42:00     -689.253     -166.561      -24.512      340.867      253.685      133.926   116190.132    64356.007    17936.216       35.091        9.924      709.093      152.608        0.046      338.809       11.710      858.211
05/08/2014  23:43:00     -474.430     -220.143        3.903      269.379      241.963      131.137    72565.268    58546.148    17197.018       21.091        7.415      523.017      150.390        0.083      338.817       11.723      858.229
05/08/2014  23:44:00     -448.138     -267.308      -17.367      304.394      203.695      115.332    92655.429    41491.747    13301.391       20.999        7.372      521.806      143.119        0.075      338.825       11.736      858.245
05/08/2014  23:45:00     -342.646     -124.694       -8.560      259.364      170.973      120.680    67269.680    29231.925    14563.612       12.202        5.553      364.630      138.756        0.145      338.877       11.824      858.257
05/08/2014  23:46:00     -333.059     -141.800      -11.143      171.259      182.634       86.060    29329.790    33355.251     7406.323       10.061        3.505      361.989       87.033        0.058      338.888       11.843      858.281
05/08/2014  23:47:00     -276.457     -160.524       10.030      341.676      217.975      138.477   116742.382    47513.076    19176.018       14.283        9.172      319.682      172.883        0.292      338.897       11.858      858.189
05/08/2014  23:48:00     -378.937     -192.071      -16.998      286.470      224.799      112.290    82065.228    50534.448    12609.071       16.296        7.260      424.835      126.491        0.089      338.878       11.827      858.202
05/08/2014  23:49:00     -278.461     -152.781        9.056      172.320      187.636      106.905    29694.327    35207.134    11428.654        8.863        3.817      317.620      106.539        0.113      338.865       11.804      858.202
05/08/2014  23:50:00     -237.897     -106.463       13.003      221.256      182.182      108.740    48954.239    33190.146    11824.422        8.102        4.698      260.633      122.140        0.220      338.881       11.831      858.188
05/08/2014  23:51:00     -314.789     -146.908       14.492      259.584      173.355       99.013    67383.622    30051.970     9803.656       11.404        5.362      347.382      116.840        0.113      338.860       11.796      858.213
05/08/2014  23:52:00     -397.051      -54.848       -9.071      248.223      144.589      104.929    61614.685    20906.116    11010.014       12.712        4.677      400.822      126.478        0.100      338.876       11.822      858.243
05/08/2014  23:53:00     -528.344     -221.910      -44.925      381.117      256.325      112.642   145250.464    65702.734    12688.140       27.698       11.182      573.055      154.533        0.073      338.876       11.823      858.256
05/08/2014  23:54:00     -258.397     -147.276       -0.539      189.020      164.132       88.602    35728.380    26939.239     7850.297        7.947        3.526      297.421       88.157        0.088      338.898       11.858      858.231
05/08/2014  23:55:00     -214.404     -230.304       -5.883      197.551      207.125       89.892    39026.592    42900.859     8080.513        9.451        4.500      314.657      109.019        0.120      338.927       11.910      858.260
05/08/2014  23:56:00     -367.350     -275.085      -25.250      139.458      126.542       74.652    19448.413    16012.837     5572.941       12.614        2.052      458.931       64.137        0.020      338.927       11.907      858.310
05/08/2014  23:57:00     -343.292     -133.234        5.201      237.979      215.117       85.661    56634.213    46275.230     7337.799       12.292        5.512      368.240       92.486        0.063      338.945       11.938      858.352
05/08/2014  23:58:00     -384.490     -163.634       21.212      275.190      194.574      118.198    75729.661    37859.179    13970.809       15.128        6.378      417.862      139.026        0.111      338.939       11.928      858.336
05/08/2014  23:59:00     -308.812     -146.194       -5.087      236.976      179.065       89.119    56157.601    32064.391     7942.198       10.644        4.808      341.669      100.526        0.087      338.931       11.915      858.344
